[[{"header":{"parameterUnit":"m.s-1","parameterCategory":1,"la1":30.6,"la2":28.766,"lo1":-90.7593,"lo2":-88.6598,"dy":0.0162,"dx":0.0183,"nx":116,"ny":114,"refTime":"2024-04-17T06:00:00:Z","depth":0,"parameterNumber":2,"parameterNumberName":"U-component_of_WINDS"},"data":[0.0,0.0,0.0,0.0,0.0,0.0,0.0,0.0,0.0,0.0,0.0,0.0,0.0,0.0,0.0,0.0,0.0,0.0,0.0,0.0,0.0,0.0,0.0,0.0,0.0,0.0,0.0,0.0,0.0,0.0,0.0,0.0,0.0,0.0,0.0,0.0,0.0,0.0,0.0,0.0,0.0,0.0,0.0,0.0,0.0,0.0,0.0,0.0,0.0,0.0,0.0,0.0,0.0,0.0,0.0,0.0,0.0,0.0,0.0,0.0,0.0,0.0,0.0,0.0,0.0,0.0,0.0,0.0,0.0,0.0,0.0,0.0,0.0,0.0,0.0,0.0,0.0,0.0,0.0,0.0,0.0,0.0,0.0,0.0,0.0,0.0,0.0,0.0,0.0,0.0,0.0,0.0,0.0,0.0,0.0,0.0,0.0,0.0,0.0,0.0,0.0,0.0,0.0,0.0,0.0,0.0,0.0,0.0,0.0,0.0,0.0,0.0,0.0,0.0,0.0,0.0,0.0,0.0,0.0,0.0,0.0,0.0,0.0,0.0,0.0,0.0,0.0,0.0,0.0,0.0,0.0,0.0,0.0,0.0,0.0,0.0,0.0,0.0,0.0,0.0,0.0,0.0,0.0,0.0,0.0,0.0,0.0,0.0,0.0,0.0,0.0,0.0,0.0,0.0,0.0,0.0,0.0,0.0,0.0,0.0,0.0,0.0,0.0,0.0,0.0,0.0,0.0,0.0,0.0,0.0,0.0,0.0,0.0,0.0,0.0,0.0,0.0,0.0,0.0,0.0,0.0,0.0,0.0,0.0,0.0,0.0,0.0,0.0,0.0,0.0,0.0,0.0,0.0,0.0,0.0,0.0,0.0,0.0,0.0,0.0,0.0,0.0,0.0,0.0,0.0,0.0,0.0,0.0,0.0,0.0,0.0,0.0,0.0,0.0,0.0,0.0,0.0,0.0,0.0,0.0,0.0,0.0,0.0,0.0,0.0,0.0,0.0,0.0,0.0,0.0,0.0,0.0,0.0,0.0,0.0,0.0,0.0,0.0,0.0,0.0,0.0,0.0,0.0,0.0,0.0,0.0,0.0,0.0,0.0,0.0,0.0,0.0,0.0,0.0,0.0,0.0,0.0,0.0,0.0,0.0,0.0,0.0,0.0,0.0,0.0,0.0,0.0,0.0,0.0,0.0,0.0,0.0,0.0,0.0,0.0,0.0,0.0,0.0,0.0,0.0,0.0,0.0,0.0,0.0,0.0,0.0,0.0,0.0,0.0,0.0,0.0,0.0,0.0,0.0,0.0,0.0,0.0,0.0,0.0,0.0,0.0,0.0,0.0,0.0,0.0,0.0,0.0,0.0,0.0,0.0,0.0,0.0,0.0,0.0,0.0,0.0,0.0,0.0,0.0,0.0,0.0,0.0,0.0,0.0,0.0,0.0,0.0,0.0,0.0,0.0,0.0,0.0,0.0,0.0,0.0,0.0,0.0,0.0,0.0,0.0,0.0,0.0,0.0,0.0,0.0,0.0,0.0,0.0,0.0,0.0,0.0,0.0,0.0,0.0,0.0,0.0,0.0,0.0,0.0,0.0,0.0,0.0,0.0,0.0,0.0,0.0,0.0,0.0,0.0,0.0,0.0,0.0,0.0,0.0,0.0,0.0,0.0,0.0,0.0,0.0,0.0,0.0,0.0,0.0,0.0,0.0,0.0,0.0,0.0,0.0,0.0,0.0,0.0,0.0,0.0,0.0,0.0,0.0,0.0,0.0,0.0,0.0,0.0,0.0,0.0,0.0,0.0,0.0,0.0,0.0,0.0,0.0,0.0,0.0,0.0,0.0,0.0,0.0,0.0,0.0,0.0,0.0,0.0,0.0,0.0,0.0,0.0,0.0,0.0,0.0,0.0,0.0,0.0,0.0,0.0,0.0,0.0,0.0,0.0,0.0,0.0,0.0,0.0,0.0,0.0,0.0,0.0,0.0,0.0,0.0,0.0,0.0,0.0,0.0,0.0,0.0,0.0,0.0,0.0,0.0,0.0,0.0,0.0,0.0,0.0,0.0,0.0,0.0,0.0,0.0,0.0,0.0,0.0,0.0,0.0,0.0,0.0,0.0,0.0,0.0,0.0,0.0,0.0,0.0,0.0,0.0,0.0,0.0,0.0,0.0,0.0,0.0,0.0,0.0,0.0,0.0,0.0,0.0,0.0,0.0,0.0,0.0,0.0,0.0,0.0,0.0,0.0,0.0,0.0,0.0,0.0,0.0,0.0,0.0,0.0,0.0,0.0,0.0,0.0,0.0,0.0,0.0,0.0,0.0,0.0,0.0,0.0,0.0,0.0,0.0,0.0,0.0,0.0,0.0,0.0,0.0,0.0,0.0,0.0,0.0,0.0,0.0,0.0,0.0,0.0,0.0,0.0,0.0,0.0,0.0,0.0,0.0,0.0,0.0,0.0,0.0,0.0,0.0,0.0,0.0,0.0,0.0,0.0,0.0,0.0,0.0,0.0,0.0,0.0,0.0,0.0,0.0,0.0,0.0,0.0,0.0,0.0,0.0,0.0,0.0,0.0,0.0,0.0,0.0,0.0,0.0,0.0,0.0,0.0,0.0,0.0,0.0,0.0,0.0,0.0,0.0,0.0,0.0,0.0,0.0,0.0,0.0,0.0,0.0,0.0,0.0,0.0,0.0,0.0,0.0,0.0,0.0,0.0,0.0,0.0,0.0,0.0,0.0,0.0,0.0,0.0,0.0,0.0,0.0,0.0,0.0,0.0,0.0,0.0,0.0,0.0,0.0,0.0,0.0,0.0,0.0,0.0,0.0,0.0,0.0,0.0,0.0,0.0,0.0,0.0,0.0,0.0,0.0,0.0,0.0,0.0,0.0,0.0,0.0,0.0,0.0,0.0,0.0,0.0,0.0,0.0,0.0,0.0,0.0,0.0,0.0,0.0,0.0,0.0,0.0,0.0,0.0,0.0,0.0,0.0,0.0,0.0,0.0,0.0,0.0,0.0,0.0,0.0,0.0,0.0,0.0,0.0,0.0,0.0,0.0,0.0,0.0,0.0,0.0,0.0,0.0,0.0,0.0,0.0,0.0,0.0,0.0,0.0,0.0,0.0,0.0,0.0,0.0,0.0,0.0,0.0,0.0,0.0,0.0,0.0,0.0,0.0,0.0,0.0,0.0,0.0,0.0,0.0,0.0,0.0,0.0,0.0,0.0,0.0,0.0,0.0,0.0,0.0,0.0,0.0,0.0,0.0,0.0,0.0,0.0,0.0,0.0,0.0,0.0,0.0,0.0,0.0,0.0,0.0,0.0,0.0,0.0,0.0,0.0,0.0,0.0,0.0,0.0,0.0,0.0,0.0,0.0,0.0,0.0,0.0,0.0,0.0,0.0,0.0,0.0,0.0,0.0,0.0,0.0,0.0,0.0,0.0,0.0,0.0,0.0,0.0,0.0,0.0,0.0,0.0,0.0,0.0,0.0,0.0,0.0,0.0,0.0,0.0,0.0,0.0,0.0,0.0,0.0,0.0,0.0,0.0,0.0,0.0,0.0,0.0,0.0,0.0,0.0,0.0,0.0,0.0,0.0,0.0,0.0,0.0,0.0,0.0,0.0,0.0,0.0,0.0,0.0,0.0,0.0,0.0,0.0,0.0,0.0,0.0,0.0,0.0,0.0,0.0,0.0,0.0,0.0,0.0,0.0,0.0,0.0,0.0,0.0,0.0,0.0,0.0,0.0,0.0,0.0,0.0,0.0,0.0,0.0,0.0,0.0,0.0,0.0,0.0,0.0,0.0,0.0,0.0,0.0,0.0,0.0,0.0,0.0,0.0,0.0,0.0,0.0,0.0,0.0,0.0,0.0,0.0,0.0,0.0,0.0,0.0,0.0,0.0,0.0,0.0,0.0,0.0,0.0,0.0,0.0,0.0,0.0,0.0,0.0,0.0,0.0,0.0,0.0,0.0,0.0,0.0,0.0,0.0,0.0,0.0,0.0,0.0,0.0,0.0,0.0,0.0,0.0,0.0,0.0,0.0,0.0,0.0,0.0,0.0,0.0,0.0,0.0,0.0,0.0,0.0,0.0,0.0,0.0,0.0,0.0,0.0,0.0,0.0,0.0,0.0,0.0,0.0,0.0,0.0,0.0,0.0,0.0,0.0,0.0,0.0,0.0,0.0,0.0,0.0,0.0,0.0,0.0,0.0,0.0,0.0,0.0,0.0,0.0,0.0,0.0,0.0,0.0,0.0,0.0,0.0,0.0,0.0,0.0,0.0,0.0,0.0,0.0,0.0,0.0,0.0,0.0,0.0,0.0,0.0,0.0,0.0,0.0,0.0,0.0,0.0,0.0,0.0,0.0,0.0,0.0,0.0,0.0,0.0,0.0,0.0,0.0,0.0,0.0,0.0,0.0,0.0,0.0,0.0,0.0,0.0,0.0,0.0,0.0,0.0,0.0,0.0,0.0,0.0,0.0,0.0,0.0,0.0,0.0,0.0,0.0,0.0,0.0,0.0,0.0,0.0,0.0,0.0,0.0,0.0,0.0,0.0,0.0,0.0,0.0,0.0,0.0,0.0,0.0,0.0,0.0,0.0,0.0,0.0,0.0,0.0,0.0,0.0,0.0,0.0,0.0,0.0,0.0,0.0,0.0,0.0,0.0,0.0,0.0,0.0,0.0,0.0,0.0,0.0,0.0,0.0,0.0,0.0,0.0,0.0,0.0,0.0,0.0,0.0,0.0,0.0,0.0,0.0,0.0,0.0,0.0,0.0,0.0,0.0,0.0,0.0,0.0,0.0,0.0,0.0,0.0,0.0,0.0,0.0,0.0,0.0,0.0,0.0,0.0,0.0,0.0,0.0,0.0,0.0,0.0,0.0,0.0,0.0,0.0,0.0,0.0,0.0,0.0,0.0,0.0,0.0,0.0,0.0,0.0,0.0,0.0,0.0,0.0,0.0,0.0,0.0,0.0,0.0,0.0,0.0,0.0,0.0,0.0,0.0,0.0,0.0,0.0,0.0,0.0,0.0,0.0,0.0,0.0,0.0,0.0,0.0,0.0,0.0,0.0,0.0,0.0,0.0,0.0,0.0,0.0,0.0,0.0,0.0,0.0,0.0,0.0,0.0,0.0,0.0,0.0,0.0,0.0,0.0,0.0,0.0,0.0,0.0,0.0,0.0,0.0,0.0,0.0,0.0,0.0,0.0,0.0,0.0,0.0,0.0,0.0,0.0,0.0,0.0,0.0,0.0,0.0,0.0,0.0,0.0,0.0,0.0,0.0,0.0,0.0,0.0,0.0,0.0,0.0,0.0,0.0,0.0,0.0,0.0,0.0,0.0,0.0,0.0,0.0,0.0,0.0,0.0,0.0,0.0,0.0,0.0,0.0,0.0,0.0,0.0,0.0,0.0,0.0,0.0,0.0,0.0,0.0,0.0,0.0,0.0,0.0,0.0,0.0,0.0,0.0,0.0,0.0,0.0,0.0,0.0,0.0,0.0,0.0,0.0,0.0,0.0,0.0,0.0,0.0,0.0,0.0,0.0,0.0,0.0,0.0,0.0,0.0,0.0,0.0,0.0,0.0,0.0,0.0,0.0,0.0,0.0,0.0,0.0,0.0,0.0,0.0,0.0,0.0,0.0,0.0,0.0,0.0,0.0,0.0,0.0,0.0,0.0,0.0,0.0,0.0,0.0,0.0,0.0,0.0,0.0,0.0,0.0,0.0,0.0,0.0,0.0,0.0,0.0,0.0,0.0,0.0,0.0,0.0,0.0,0.0,0.0,0.0,0.0,0.0,0.0,0.0,0.0,0.0,0.0,0.0,0.0,0.0,0.0,0.0,0.0,0.0,0.0,0.0,0.0,0.0,0.0,0.0,0.0,0.0,0.0,0.0,0.0,0.0,0.0,0.0,0.0,0.0,0.0,0.0,0.0,0.0,0.0,0.0,0.0,0.0,0.0,0.0,0.0,0.0,0.0,0.0,0.0,0.0,0.0,0.0,0.0,0.0,0.0,0.0,0.0,0.0,0.0,0.0,0.0,0.0,0.0,0.0,0.0,0.0,0.0,0.0,0.0,0.0,0.0,0.0,0.0,0.0,0.0,0.0,5.6677,0.0,0.0,0.0,0.0,0.0,0.0,0.0,0.0,0.0,0.0,0.0,0.0,0.0,0.0,0.0,0.0,0.0,0.0,0.0,0.0,0.0,0.0,0.0,0.0,5.5403,5.5403,5.5403,5.5403,5.5403,5.5403,0.0,0.0,0.0,0.0,0.0,0.0,0.0,5.4142,5.3757,5.3757,5.3757,5.3757,5.3378,5.3206,5.3206,0.0,0.0,0.0,0.0,0.0,0.0,0.0,0.0,0.0,0.0,0.0,0.0,0.0,0.0,0.0,0.0,0.0,0.0,0.0,0.0,0.0,0.0,0.0,0.0,0.0,0.0,0.0,0.0,0.0,0.0,0.0,0.0,0.0,0.0,0.0,0.0,0.0,0.0,0.0,0.0,0.0,0.0,0.0,0.0,0.0,0.0,0.0,0.0,0.0,0.0,0.0,0.0,0.0,0.0,0.0,0.0,0.0,0.0,0.0,0.0,0.0,0.0,0.0,0.0,0.0,0.0,0.0,0.0,0.0,0.0,0.0,5.7204,0.0,0.0,0.0,0.0,0.0,0.0,0.0,0.0,0.0,0.0,0.0,0.0,0.0,0.0,0.0,0.0,0.0,0.0,0.0,0.0,0.0,5.5358,5.5286,5.5305,5.526,5.5206,5.5206,5.5233,5.5286,5.5233,0.0,0.0,0.0,5.4814,5.4193,5.4142,5.3795,5.3206,5.3206,5.3206,5.3206,5.3206,5.3206,5.3206,5.3206,0.0,0.0,0.0,0.0,0.0,0.0,0.0,0.0,0.0,0.0,0.0,0.0,0.0,0.0,0.0,0.0,0.0,0.0,0.0,0.0,0.0,0.0,0.0,0.0,0.0,0.0,0.0,0.0,0.0,0.0,0.0,0.0,0.0,0.0,0.0,0.0,0.0,0.0,0.0,0.0,0.0,0.0,0.0,0.0,0.0,0.0,0.0,0.0,0.0,0.0,0.0,0.0,0.0,0.0,0.0,0.0,0.0,0.0,0.0,0.0,0.0,0.0,0.0,5.8349,5.8349,5.8349,5.8349,5.8242,5.8197,5.8286,5.8349,5.8349,5.8443,0.0,0.0,0.0,0.0,0.0,0.0,0.0,0.0,0.0,0.0,0.0,0.0,0.0,0.0,0.0,0.0,0.0,0.0,0.0,5.526,5.4933,5.4884,5.4765,5.4482,5.4449,5.4578,5.4855,5.461,5.456,5.4855,5.4277,5.3888,5.3795,5.3502,5.3314,5.3206,5.3206,5.3206,5.3206,5.3206,5.3206,5.3206,5.3206,5.3206,5.3206,0.0,0.0,0.0,0.0,0.0,0.0,0.0,0.0,0.0,0.0,0.0,0.0,0.0,0.0,0.0,0.0,0.0,0.0,0.0,0.0,0.0,0.0,0.0,0.0,0.0,0.0,0.0,0.0,0.0,0.0,0.0,0.0,0.0,0.0,0.0,0.0,0.0,0.0,0.0,0.0,0.0,5.3463,5.4161,0.0,0.0,0.0,0.0,0.0,0.0,0.0,0.0,0.0,0.0,0.0,0.0,0.0,5.7042,5.7877,5.7895,5.7951,5.8042,5.8042,5.8042,5.8042,5.8042,5.8042,5.8042,5.8042,0.0,5.8242,5.8242,0.0,0.0,0.0,0.0,0.0,0.0,0.0,0.0,0.0,0.0,0.0,0.0,0.0,0.0,0.0,0.0,0.0,0.0,0.0,0.0,0.0,5.4623,5.4463,5.4296,5.4315,5.4364,5.4495,5.4364,5.4382,5.4528,5.4228,5.3944,5.3701,5.3563,5.34,5.3206,5.3206,5.3206,5.3206,5.3206,5.3206,5.3206,5.3206,5.3206,5.3206,5.3206,0.0,0.0,0.0,0.0,0.0,0.0,0.0,0.0,0.0,0.0,0.0,0.0,0.0,0.0,0.0,0.0,0.0,0.0,0.0,0.0,0.0,0.0,0.0,0.0,0.0,0.0,0.0,0.0,0.0,0.0,0.0,0.0,0.0,0.0,0.0,0.0,0.0,0.0,0.0,5.3867,5.4179,5.4968,5.506,5.5207,0.0,0.0,0.0,0.0,0.0,0.0,0.0,0.0,0.0,5.7464,5.7464,5.7648,5.7997,5.7997,5.7997,5.7997,5.7997,5.7997,5.7997,5.7997,5.7997,5.7997,5.7997,5.8042,5.8088,5.8152,5.8242,5.8356,0.0,0.0,0.0,0.0,5.8505,5.8443,0.0,0.0,0.0,0.0,0.0,0.0,0.0,0.0,0.0,0.0,0.0,0.0,5.4541,5.4277,5.4123,5.4035,5.4035,5.4052,5.4123,5.4071,5.4071,5.4158,5.4052,5.3889,5.3584,5.3545,5.3462,5.3206,5.3206,5.3206,5.3206,5.3206,5.3206,5.3206,5.3206,5.3206,5.3206,5.3206,5.3206,5.3206,0.0,0.0,0.0,0.0,0.0,0.0,0.0,0.0,0.0,0.0,0.0,0.0,0.0,0.0,0.0,0.0,0.0,0.0,0.0,0.0,0.0,0.0,0.0,0.0,0.0,0.0,0.0,0.0,0.0,0.0,0.0,0.0,0.0,0.0,0.0,0.0,0.0,5.4711,5.5005,5.5794,5.5904,5.5978,0.0,0.0,0.0,0.0,0.0,0.0,5.7116,5.7666,5.7997,5.7997,5.7997,5.7997,5.7997,5.7997,5.7997,5.7997,5.7997,5.7997,5.7997,5.7997,5.7997,5.7997,5.7997,5.7997,5.7997,5.8106,5.8152,5.8197,5.8305,5.8349,5.8393,5.8393,5.8393,5.8349,0.0,0.0,0.0,0.0,0.0,0.0,0.0,0.0,0.0,0.0,0.0,5.4193,5.3795,5.3758,5.3584,5.3272,5.3248,5.34,5.372,5.344,5.34,5.372,5.344,5.3248,5.3248,5.3248,5.3206,5.3206,5.3206,5.3206,5.3206,5.3206,5.3206,5.3206,5.3206,5.3206,5.3206,5.3206,5.3206,5.3206,5.3206,0.0,0.0,0.0,0.0,0.0,0.0,0.0,0.0,0.0,0.0,0.0,0.0,0.0,0.0,0.0,0.0,0.0,0.0,0.0,0.0,0.0,0.0,0.0,0.0,0.0,0.0,0.0,0.0,0.0,0.0,0.0,0.0,0.0,0.0,0.0,0.0,0.0,0.0,5.6657,5.6748,0.0,0.0,0.0,0.0,5.7868,5.7923,5.7941,5.7941,5.7978,5.7997,5.7997,5.7997,5.7997,5.7997,5.7997,5.7997,5.7997,5.7997,5.7997,5.7997,5.7997,5.7997,5.7997,5.7997,5.7997,5.7997,5.7997,5.8106,5.8197,5.8197,5.8305,5.8393,5.8393,5.8305,5.8197,0.0,0.0,0.0,0.0,0.0,5.456,5.4776,5.4806,5.4746,5.4654,5.443,5.4158,5.3739,5.3484,5.3336,5.3206,5.3206,5.323,5.3359,5.3272,5.323,5.3359,5.3272,5.3206,5.3206,5.372,5.3977,5.3977,5.4491,5.473,5.473,5.473,5.473,5.473,5.473,5.473,5.4675,5.3647,5.3206,5.3206,5.3206,5.3206,0.0,0.0,0.0,0.0,0.0,0.0,0.0,0.0,0.0,0.0,0.0,0.0,0.0,0.0,0.0,0.0,0.0,0.0,0.0,0.0,0.0,0.0,0.0,0.0,0.0,0.0,0.0,0.0,0.0,0.0,0.0,0.0,0.0,0.0,0.0,0.0,0.0,5.7483,5.7574,0.0,5.796,5.7997,5.7997,5.7997,5.7997,5.7997,5.7997,5.7997,5.7997,5.7997,5.7997,5.7997,5.7997,5.7997,5.7997,5.7997,5.7997,5.7997,5.7997,5.7997,5.7997,5.7997,5.7997,5.7997,5.7997,5.7997,5.8042,5.8088,5.8088,5.8088,5.8133,5.8133,5.8088,5.8088,0.0,0.0,0.0,0.0,0.0,5.4495,5.4623,5.4623,5.4572,5.4444,5.4158,5.3814,5.3563,5.3336,5.3206,5.3206,5.3206,5.3206,5.3206,5.3206,5.3206,5.3206,5.3463,5.361,5.361,5.4399,5.4803,5.4803,5.5335,5.5592,5.5592,5.5592,5.5592,5.5592,5.5592,5.5592,5.5519,5.4454,5.4014,5.4014,5.4014,5.4014,5.4014,0.0,0.0,0.0,0.0,0.0,0.0,0.0,0.0,0.0,0.0,0.0,0.0,0.0,0.0,0.0,0.0,0.0,0.0,0.0,0.0,0.0,0.0,0.0,0.0,0.0,0.0,0.0,0.0,0.0,0.0,0.0,0.0,0.0,0.0,0.0,5.7409,5.7941,5.7997,5.7997,5.7997,5.7997,5.7997,5.7997,5.7997,5.7997,5.7997,5.7997,5.7997,5.7997,5.7997,5.7997,5.7997,5.7997,5.8143,5.84,5.84,5.8547,5.8804,5.8529,5.84,5.84,5.8125,5.7997,5.7997,5.7997,5.7997,5.7997,5.7997,5.7997,5.7997,5.7997,5.7997,5.7997,0.0,0.0,0.0,0.0,0.0,5.4654,5.433,5.4315,5.4158,5.3758,5.344,5.3206,5.3206,5.3206,5.3206,5.3206,5.3206,5.3206,5.3206,5.3206,5.3225,5.3243,5.3977,5.4418,5.4436,5.5225,5.5629,5.5629,5.5647,5.5666,5.5666,5.5666,5.5666,5.5666,5.5666,5.5666,5.5666,5.5666,5.5666,5.5666,5.5611,5.5592,5.5592,0.0,0.0,0.0,0.0,0.0,0.0,0.0,0.0,0.0,0.0,0.0,0.0,0.0,0.0,0.0,0.0,0.0,0.0,0.0,0.0,0.0,0.0,0.0,0.0,0.0,0.0,0.0,0.0,0.0,0.0,0.0,0.0,0.0,5.7997,5.7997,5.7997,5.7997,5.7997,5.7997,5.7997,5.7997,5.7997,5.7997,5.7997,5.7997,5.7997,5.8015,5.8033,5.8033,5.8052,5.807,5.807,5.807,5.8474,5.9263,5.9263,5.9667,6.0382,5.9612,5.9263,5.9208,5.8419,5.807,5.807,5.807,5.807,5.807,5.8015,5.7997,5.7997,5.7997,5.7997,5.7997,0.0,0.0,0.0,5.3961,5.3979,5.3961,5.3888,5.4123,5.4158,5.3758,5.3623,5.3462,5.3248,5.3206,5.3206,5.3206,5.3206,5.3206,5.3206,5.3206,5.3463,5.4051,5.4289,5.4675,5.5244,5.6051,5.6473,5.6473,5.7042,5.7336,5.7336,5.7336,5.7336,5.7336,5.7336,5.7336,5.7336,5.7336,5.7336,5.7226,5.6069,5.5592,5.5592,0.0,0.0,0.0,0.0,0.0,0.0,0.0,0.0,0.0,0.0,0.0,0.0,0.0,0.0,0.0,0.0,0.0,0.0,0.0,0.0,0.0,0.0,0.0,0.0,0.0,0.0,0.0,0.0,0.0,0.0,0.0,5.7997,5.7997,5.7997,5.7997,5.7997,5.7997,5.7997,5.7997,5.7997,5.7997,5.7997,5.7997,5.7997,5.7997,5.7997,5.8547,5.8877,5.8877,5.9446,5.974,5.974,5.974,5.985,6.007,6.007,6.0199,6.0401,6.0181,6.007,6.007,5.985,5.974,5.974,5.974,5.974,5.963,5.8455,5.7997,5.7997,5.7997,5.7997,5.7997,0.0,0.0,0.0,5.3643,5.3833,5.3888,5.372,5.4052,5.4158,5.3758,5.3584,5.344,5.3206,5.3206,5.3206,5.3206,5.3206,5.3206,5.3206,5.3537,5.3922,5.4381,5.506,5.5629,5.6088,5.6895,5.7299,5.7299,5.7776,5.7997,5.7997,5.7997,5.7997,5.7997,5.7997,5.7997,5.7997,5.7997,5.7997,5.7923,5.6969,5.6602,5.6602,5.6602,5.6602,5.6602,5.6602,5.6381,5.6106,5.6106,0.0,0.0,0.0,0.0,0.0,0.0,0.0,0.0,0.0,0.0,0.0,0.0,0.0,0.0,0.0,0.0,0.0,0.0,0.0,0.0,0.0,0.0,0.0,0.0,5.7997,5.7997,5.7997,5.7997,5.7997,5.7997,5.7997,5.7997,5.7997,5.7997,5.7997,5.7997,5.8309,5.851,5.851,5.9281,5.9722,5.9722,6.0162,6.0401,6.0401,6.0401,6.0566,6.0896,6.0896,6.108,6.1392,6.1062,6.0896,6.0878,6.0548,6.0401,6.0401,6.0401,6.0401,0.0,0.0,0.0,0.0,0.0,5.9006,5.9006,0.0,0.0,0.0,5.3584,5.398,5.4088,5.3682,5.398,5.4088,5.37,5.34,5.3206,5.3206,5.3206,5.3206,5.3206,5.3206,5.3206,5.3206,5.3959,5.4436,5.4528,5.5996,5.684,5.6932,5.7629,5.7997,5.7997,5.7997,5.7997,5.7997,5.7997,5.7997,5.7997,5.7997,5.7997,5.7997,5.7997,5.7997,5.7997,5.7997,5.7997,5.7997,5.7997,5.7997,5.7997,5.7997,5.7538,5.695,5.695,0.0,0.0,0.0,0.0,0.0,0.0,0.0,0.0,0.0,0.0,0.0,0.0,0.0,0.0,0.0,0.0,0.0,0.0,0.0,0.0,0.0,0.0,0.0,0.0,5.7997,5.7997,5.7997,5.7997,5.7997,5.7997,5.7997,5.7997,5.7997,5.807,5.8143,5.8143,5.8896,5.9355,5.9355,0.0,0.0,0.0,0.0,6.0731,6.0823,6.0823,6.1227,6.2016,6.2016,6.2383,6.3062,6.2254,6.1869,6.1832,6.1025,6.0676,6.0676,6.0676,6.0676,6.0658,6.0474,6.0401,6.0401,6.0401,6.0401,6.0401,0.0,0.0,5.3206,5.3272,5.3602,5.37,5.3336,5.3602,5.37,5.3336,5.3248,5.3206,5.3206,5.3206,5.3206,5.3206,5.3206,5.3206,5.3206,5.3959,5.4693,5.5335,5.629,5.7097,5.7758,5.7923,5.7997,5.7997,5.7997,5.7997,5.7997,5.7997,5.7997,5.7997,5.7997,5.7997,5.7997,5.7997,5.7997,5.7997,5.7997,5.7997,5.7997,5.7997,5.7997,5.7997,5.7997,5.7905,5.7776,5.7776,5.7666,5.7538,5.7538,5.7538,0.0,0.0,0.0,0.0,0.0,0.0,0.0,0.0,0.0,0.0,0.0,0.0,0.0,0.0,0.0,0.0,0.0,0.0,0.0,5.7997,5.7997,5.7997,5.7997,5.7997,5.7997,5.7997,5.7997,5.7997,5.7997,5.8602,5.8988,5.8988,5.9722,6.0181,6.0181,6.0933,6.1374,6.1374,6.1998,6.2677,6.3374,6.3374,6.3796,6.4585,0.0,0.0,6.4806,6.398,6.3613,6.3558,6.2713,6.2346,6.2346,6.2346,6.2346,6.2218,6.0915,6.0401,6.0401,6.0401,6.0401,6.0401,0.0,5.3295,5.3206,5.3206,5.3462,5.3584,5.323,5.3484,5.3584,5.323,5.3206,5.3206,5.3206,5.3206,5.3206,5.3206,5.3206,5.3206,5.3206,5.4326,5.517,5.5574,5.6748,5.7593,5.7997,5.7997,5.7997,5.7997,5.7997,5.7997,5.7997,5.7997,5.7997,5.7997,5.7997,5.7997,5.7997,5.7997,5.795,5.7904,5.7997,5.795,5.7904,5.7997,5.7997,5.7997,5.7997,5.7997,5.7997,5.7997,5.7997,5.7997,5.7997,5.7997,5.7997,0.0,0.0,0.0,0.0,0.0,0.0,0.0,0.0,0.0,0.0,0.0,0.0,0.0,0.0,5.7997,5.7997,0.0,5.7997,5.7997,5.7997,5.7997,5.7997,5.7997,5.7997,5.7997,5.7997,5.8162,5.8565,5.8969,5.9391,5.9777,6.0548,6.1006,6.1006,6.2181,6.2842,6.2842,6.3631,6.4273,6.4695,6.4695,6.4897,6.5319,6.5319,6.5319,6.5301,6.4879,6.4695,6.4677,6.4255,6.3833,6.3429,6.2989,6.2805,6.2732,6.1924,6.1612,6.1612,6.1612,6.1612,6.1612,0.0,0.0,5.3206,5.3206,5.3422,5.3524,5.323,5.3422,5.3502,5.3248,5.3206,5.3206,5.3206,5.3206,5.3206,5.3206,5.3206,5.3206,5.3206,5.4711,5.5592,5.5592,5.7134,5.7997,5.7997,5.7997,5.7997,5.7997,5.7997,5.7997,5.7997,5.7997,5.7997,5.7997,5.7997,5.7997,5.7997,5.7997,5.7904,5.7792,5.7904,5.7886,5.7792,5.7904,5.7997,5.7997,5.7997,5.7997,5.7997,5.7997,5.7997,5.7997,5.7997,5.7997,5.7997,5.7997,5.7997,0.0,0.0,0.0,0.0,0.0,0.0,0.0,0.0,0.0,5.7997,5.7997,5.7997,5.7997,5.7997,5.7997,5.7997,5.7997,5.7997,5.7997,5.7997,5.7997,5.8052,5.8217,5.8235,5.8492,5.9153,5.9501,5.9942,6.0584,6.1374,6.1906,6.2071,6.3356,6.4163,6.4328,6.4971,6.5393,6.554,6.554,6.5613,6.5778,6.5778,6.5778,6.576,6.5613,6.554,6.5521,6.5375,6.4934,6.4273,6.3594,6.3209,6.3062,6.3062,6.297,6.2805,6.2805,6.2805,6.2805,0.0,0.0,0.0,5.3206,5.3248,5.323,5.3206,5.3248,5.323,5.3206,5.3206,5.3206,5.3206,5.3206,5.3206,5.3206,5.3206,5.3206,5.3206,5.4711,5.5592,5.5592,5.7134,5.7997,5.7997,5.7997,5.7997,5.7997,5.7997,5.7997,5.7997,5.7997,5.7997,5.7997,5.7997,5.7997,5.7997,5.7886,5.7792,5.7792,5.7697,5.7697,5.7792,5.7792,5.7904,5.7997,5.7997,5.7997,5.7997,5.7997,5.7997,5.7997,5.7997,5.7997,5.7997,5.7997,0.0,5.7997,5.7997,5.7997,5.7997,5.7997,5.7997,5.7997,0.0,0.0,5.7997,5.7997,5.7997,5.7997,5.7997,5.7997,5.7997,5.7997,5.7997,5.7997,5.7997,5.7997,5.8272,5.8988,5.9079,5.9116,5.9208,6.0493,6.1374,6.1447,6.2218,6.3007,6.3778,6.3998,6.442,6.5154,6.5264,6.565,6.6366,6.6366,6.6714,6.7412,6.7412,6.7412,6.7393,6.6678,6.6366,6.6329,6.5613,6.5264,6.5173,6.5063,6.4604,6.3943,6.3943,6.3484,6.2805,6.2805,6.2805,6.2805,0.0,0.0,0.0,5.3206,5.3206,5.3206,5.3206,5.3206,5.3206,5.3206,5.3206,5.3206,5.3206,5.3206,5.3206,5.3206,5.3206,5.3206,5.3206,5.4271,5.5097,5.5574,5.6693,5.7519,5.7997,5.7997,5.7997,5.7997,5.7997,5.7997,5.7997,5.7997,5.7997,5.7997,5.7997,5.795,5.7904,5.7839,5.7697,5.7553,5.7601,5.7601,5.7601,5.7745,5.7839,5.7886,5.7997,5.7997,0.0,5.7997,5.7997,5.7997,5.7997,5.7997,5.7997,5.7997,5.7997,0.0,5.7997,5.7997,0.0,0.0,5.7997,5.7997,5.7997,5.7997,5.7997,5.7997,5.7997,5.7997,5.7997,5.7997,5.7997,0.0,5.7997,5.8162,5.8639,5.8712,5.9006,5.9813,6.0309,6.0603,6.0603,6.1208,6.1796,6.2273,6.308,6.3723,6.4071,6.4989,6.565,6.5999,6.6439,6.6861,6.7192,6.7192,6.7357,6.7687,6.7687,6.7687,6.7687,6.7338,6.7192,6.7136,6.6347,6.5999,6.5962,6.5503,6.5099,6.4806,6.4806,6.4292,6.3503,6.3007,6.2805,6.2805,0.0,0.0,0.0,5.3206,5.3206,5.3206,5.3206,5.3206,5.3206,5.3206,5.3206,5.3206,5.3206,5.3206,5.3206,5.3206,5.3206,5.3206,5.3206,5.3959,5.4748,5.5556,5.6363,5.7189,5.7978,5.7997,5.7997,5.7997,5.7997,5.7997,5.7997,5.7997,5.7997,5.7997,5.7997,5.795,5.7839,5.7792,5.7649,5.7455,5.7504,5.7504,5.7504,5.7697,5.7792,5.7857,5.795,5.7997,5.7997,5.7997,5.7997,5.7997,5.7997,5.7997,5.7997,5.7997,5.7997,5.7997,5.7997,0.0,0.0,5.7997,5.7997,5.7997,5.7997,5.7997,5.7997,5.7997,5.7997,5.7997,5.7997,5.7997,5.807,5.829,5.8327,5.8621,5.9428,5.9538,5.9832,6.0639,6.1245,6.1686,6.1906,6.1924,6.2273,6.3099,6.3741,6.4273,6.4732,6.587,6.6604,6.6824,6.7393,6.7687,6.7687,6.7687,6.7687,6.7687,6.7687,6.7687,6.7687,6.7687,6.7687,6.765,6.7063,6.6824,6.6788,6.62,6.5833,6.5632,6.5632,6.5136,6.4328,6.3484,6.3025,6.2805,0.0,0.0,0.0,0.0,5.3206,5.3206,5.3206,5.3206,5.3206,5.3206,5.3206,5.3206,5.3206,5.3206,5.3206,5.3206,5.3206,5.3206,5.3206,5.3959,5.4748,5.5556,5.6363,5.7189,5.7978,5.7997,5.7997,5.7997,5.7997,5.7997,5.7997,5.7997,5.7997,5.7997,5.7997,5.7997,5.7997,5.7697,5.7601,5.7601,5.7307,5.7356,5.7583,5.7601,5.7745,5.7997,5.7997,5.7997,5.7997,5.7997,5.7997,5.7997,5.7997,5.7997,0.0,5.7997,5.7997,5.7997,0.0,0.0,5.7997,5.7997,5.7997,5.7997,5.7997,5.7997,5.7997,5.7997,5.7997,5.7997,5.7997,5.7997,5.8253,5.9061,5.9171,5.9446,6.0254,6.0364,6.0658,6.1465,6.1575,6.1906,0.0,6.2768,6.3135,6.3998,6.409,6.4769,6.6329,6.6476,6.6861,6.7632,6.7687,6.7687,6.7687,6.7687,6.7687,6.7687,6.7687,6.7687,6.7687,6.7687,6.7687,6.7687,6.765,6.765,6.765,6.7632,6.7155,6.6457,6.6457,6.598,6.5173,6.4347,6.3521,6.2805,0.0,0.0,0.0,0.0,0.0,5.3206,5.3206,5.3206,5.3206,5.3206,5.3206,0.0,0.0,0.0,0.0,0.0,5.3206,5.3206,5.3206,5.3463,5.3959,5.4766,5.5574,5.6381,5.7189,5.7721,5.7997,5.7997,5.7997,5.7997,5.7997,5.7997,5.7997,5.7997,5.7997,5.795,5.7857,5.7697,5.7553,5.7437,5.7289,5.7239,5.7338,5.7553,5.7649,5.7745,0.0,5.7997,5.7997,5.7997,5.7997,5.7997,5.7997,5.7997,5.7997,5.7997,5.7997,5.7997,5.7997,0.0,5.7997,5.7997,5.7997,5.7997,5.7997,5.7997,5.7997,5.7997,5.7997,5.8162,5.8712,5.8804,5.9079,5.9887,6.0015,6.0291,6.108,6.119,6.1484,6.231,6.2401,0.0,0.0,0.0,0.0,6.4016,6.4585,6.5375,6.6439,6.7008,6.7412,6.7687,6.7687,6.7687,6.7687,6.7687,6.7687,6.7687,6.7687,6.7687,6.7687,6.7687,6.7687,6.7687,6.7687,6.7687,6.7687,6.7687,6.7522,6.7283,6.7283,6.6788,6.6054,6.5797,6.4824,6.3576,0.0,0.0,0.0,0.0,0.0,0.0,0.0,0.0,0.0,0.0,0.0,0.0,0.0,0.0,0.0,0.0,0.0,5.3206,5.3206,5.3206,5.3702,5.4785,5.5317,5.6106,5.7207,5.774,5.7997,5.7997,5.7997,5.7997,5.7997,5.7997,5.7997,5.7997,5.7997,5.795,5.7792,5.7649,5.7534,5.7406,5.7239,5.7257,5.7307,5.7504,5.7649,0.0,5.7904,5.7997,5.7997,5.7997,5.7997,5.7997,5.7997,5.7997,5.7997,5.7997,5.7997,5.7997,5.7997,5.7997,5.7997,5.7997,5.7997,5.7997,5.7997,5.7997,5.7997,5.7997,5.8235,5.8602,5.9116,5.9446,5.9905,6.0694,6.0823,6.1117,6.1924,6.2034,6.2218,6.275,6.2805,6.2805,0.0,0.0,0.0,6.4475,6.5283,6.609,6.688,6.7412,6.7687,6.7687,6.7687,6.7687,6.7687,6.7687,6.7687,6.7687,6.7687,6.7687,6.7687,6.7687,6.7687,6.7687,6.7687,6.7687,6.7687,6.7687,6.7687,6.7687,6.7687,6.7375,6.688,6.6604,6.5852,6.4787,0.0,0.0,0.0,0.0,0.0,0.0,0.0,0.0,0.0,0.0,0.0,0.0,0.0,0.0,0.0,0.0,0.0,0.0,5.3206,5.3206,5.3885,5.5409,5.5556,5.6308,5.7831,5.796,5.7997,5.7997,5.7997,5.7997,5.7997,5.7997,5.7997,5.7997,5.7997,5.7904,5.7792,5.7649,5.7504,5.7406,5.7239,5.7289,5.7388,5.7553,5.7697,5.7792,5.795,5.7997,5.7997,5.7997,5.7997,5.7997,5.7997,5.7997,5.7997,5.7997,5.7997,5.7997,5.7997,5.7997,5.7997,5.7997,5.7997,5.7997,5.7997,5.7997,5.7997,5.7997,5.8657,5.9226,0.0,0.0,6.0731,6.152,6.1649,6.1924,6.2695,6.2805,6.2805,0.0,0.0,0.0,0.0,0.0,0.0,6.5246,0.0,6.6843,6.765,6.7687,6.7687,6.7687,6.7687,6.7687,6.7687,6.7687,6.7687,6.7687,6.7687,6.7687,6.7687,6.7687,6.7687,6.7687,6.7687,6.7687,6.7687,6.7687,6.7687,6.7687,6.7687,6.7687,6.7595,6.6843,6.6531,6.6274,0.0,0.0,0.0,0.0,0.0,0.0,0.0,0.0,0.0,0.0,0.0,0.0,0.0,0.0,0.0,0.0,0.0,0.0,5.3206,5.3206,5.339,5.3794,5.495,5.5776,5.6198,5.7391,5.7997,5.7997,5.7904,5.7839,5.7839,5.7839,5.7839,5.7839,5.7839,5.7839,5.7792,5.7553,5.7437,5.7406,5.7239,5.7289,5.7388,5.7553,5.7697,5.7792,5.795,5.7997,5.7997,5.7997,5.7997,5.7997,5.7997,5.7997,5.7997,5.7997,5.7997,5.7997,5.7997,5.7997,5.7997,5.7997,5.7997,5.7997,5.7997,5.7997,5.7997,5.7997,5.8657,5.9391,0.0,0.0,0.0,6.2365,6.2493,0.0,6.2787,6.2805,0.0,6.2805,0.0,6.2805,6.2805,6.4145,0.0,0.0,6.6054,6.6843,6.765,6.7687,6.7687,6.7687,6.7687,6.7687,6.7687,6.7687,6.7687,6.7687,6.7687,6.7687,6.7687,6.7687,6.7687,6.7687,6.7687,6.7687,6.7687,6.7687,6.7687,6.7687,6.7687,6.7687,6.7669,6.7467,6.7008,6.6439,0.0,0.0,0.0,0.0,0.0,0.0,0.0,0.0,0.0,0.0,0.0,0.0,0.0,0.0,0.0,0.0,0.0,0.0,0.0,5.3206,5.3371,5.372,5.4583,5.539,5.6106,5.7005,5.7648,5.7997,5.7932,5.7904,5.7904,5.7839,5.7792,5.7792,5.7745,5.7697,5.7583,5.7437,5.7356,0.0,0.0,5.7257,5.7338,5.7553,5.7649,5.7745,5.795,5.7997,5.7997,0.0,0.0,5.7997,5.7997,5.7997,5.7997,5.7997,0.0,5.7997,5.7997,5.7997,5.7997,5.7997,5.7997,5.7997,5.7997,5.7997,5.7997,5.7997,5.8933,0.0,6.0327,6.1355,0.0,0.0,0.0,0.0,6.2805,6.2805,6.2805,0.0,6.2805,0.0,6.2805,6.4328,6.5319,0.0,6.6366,6.721,6.7669,6.7687,6.7687,6.7687,6.7687,6.7687,6.7687,6.7687,6.7687,6.7687,6.7687,6.7687,6.7687,6.7687,6.7687,6.7687,0.0,6.7687,6.7687,6.7687,6.7687,6.7687,6.7687,6.7687,6.7687,6.7687,6.7393,6.6971,0.0,0.0,0.0,0.0,0.0,0.0,0.0,0.0,0.0,0.0,5.3206,5.3206,0.0,0.0,0.0,0.0,0.0,0.0,0.0,0.0,5.3518,5.4216,5.4344,5.506,5.6455,5.6693,5.7152,5.7831,5.7895,5.795,5.7997,5.7857,5.7792,5.7792,5.7649,5.7553,5.7437,5.7406,5.7338,5.7239,5.7239,5.7257,5.7289,0.0,5.7601,5.7649,5.7904,5.7997,5.7997,5.7997,5.7997,5.7997,5.7997,5.7997,5.7997,5.7997,5.7997,5.7997,5.7997,5.7997,5.7997,5.7997,5.7997,5.7997,5.7997,5.7997,5.7997,5.7997,0.0,6.0401,6.0401,6.1722,6.2805,6.2805,0.0,6.2805,6.2805,6.2805,6.2805,6.2805,6.2805,6.286,6.297,6.4383,6.5356,6.5466,6.6843,6.7687,6.7687,6.7687,6.7687,6.7687,6.7687,6.7687,6.7687,6.7687,6.7687,6.7687,6.7687,6.7687,6.7687,6.7687,6.7687,6.7687,6.7687,6.7687,6.7687,6.7687,6.7687,6.7687,6.7687,6.7687,6.7687,6.7687,6.7687,6.7595,0.0,0.0,0.0,0.0,0.0,0.0,0.0,0.0,0.0,0.0,5.3206,5.3206,0.0,0.0,0.0,0.0,0.0,0.0,0.0,0.0,0.0,5.3408,5.4051,5.4528,5.4803,5.6124,5.6877,5.7024,5.7481,5.7745,5.7839,5.7697,5.7697,5.7792,5.7649,5.7649,5.7697,5.7486,5.7437,5.7504,5.7406,5.7437,5.7553,5.7601,0.0,0.0,5.795,5.7997,5.7997,5.7997,5.7997,5.7997,5.7997,5.7997,5.7997,5.7997,5.7997,5.7997,5.7997,5.7997,5.7997,5.7997,5.7997,5.7997,5.7997,5.7997,0.0,0.0,5.9281,6.0401,6.0401,6.1722,6.2805,6.2805,6.2805,6.2805,6.2805,6.2805,6.2805,0.0,6.2805,6.3099,0.0,0.0,0.0,0.0,6.7155,6.7687,6.7687,6.7687,6.7687,6.7687,6.7687,6.7687,6.7687,6.7687,6.7687,6.7687,6.7687,6.7687,6.7687,6.7687,6.7687,6.7687,6.7687,0.0,6.7687,6.7687,6.7687,6.7687,6.7687,6.7687,6.7687,6.7687,6.7687,6.7669,0.0,0.0,0.0,0.0,0.0,0.0,0.0,5.3206,5.3206,5.3206,5.3206,5.3206,5.3206,5.3206,5.3206,0.0,0.0,0.0,0.0,0.0,0.0,0.0,5.3573,5.3977,5.4399,5.517,5.5959,5.6804,0.0,5.7389,5.7792,5.7745,5.7697,5.7697,5.7649,5.7649,5.7697,5.7553,5.7553,5.7583,5.7553,5.7534,5.7601,0.0,0.0,0.0,0.0,5.7997,5.7997,5.7997,5.7997,5.7997,5.7997,5.7997,5.7997,5.7997,5.7997,5.7997,5.7997,5.7997,5.7997,5.7997,5.7997,5.7997,5.7997,0.0,0.0,0.0,5.9281,6.0401,6.0401,6.1722,0.0,6.2805,6.2805,6.2805,6.2805,6.2805,6.2805,6.2805,6.2805,6.3154,0.0,6.4824,6.5632,6.6439,6.7247,6.7687,6.7687,6.7687,6.7687,6.7687,6.7687,6.7687,6.7687,6.7687,6.7687,6.7687,6.7687,6.7687,6.7687,6.7687,6.7687,6.7687,6.7687,0.0,6.7687,6.7687,6.7687,6.7687,6.7687,6.7687,6.7687,6.7687,6.7687,6.7687,0.0,0.0,0.0,0.0,0.0,0.0,5.3206,5.3206,5.3206,5.3206,5.3206,5.3206,5.3206,5.3206,5.3206,0.0,0.0,0.0,0.0,0.0,0.0,0.0,0.0,0.0,0.0,0.0,0.0,5.629,5.6593,0.0,0.0,0.0,0.0,0.0,5.7649,5.7649,5.7697,5.7649,5.7649,0.0,0.0,5.7649,0.0,0.0,0.0,0.0,0.0,5.7997,5.7997,5.7997,5.7997,5.7997,5.7997,5.7997,5.7997,5.7997,5.7997,5.7997,5.7997,5.7997,5.7997,5.7997,5.7997,5.7997,5.7997,5.7997,0.0,5.7997,5.9281,6.0401,6.0401,6.1722,6.2805,0.0,6.2805,6.2805,6.2805,6.2805,6.2805,0.0,6.2805,0.0,6.4255,6.4934,0.0,6.6678,6.7338,6.7687,6.7687,6.7687,6.7687,6.7687,6.7687,6.7687,6.7687,6.7687,6.7687,6.7687,6.7687,6.7687,6.7687,6.7687,6.7687,6.7687,6.7687,0.0,6.7687,6.7687,6.7687,6.7687,6.7687,6.7687,6.7687,6.7687,6.7687,6.7687,0.0,0.0,0.0,0.0,0.0,0.0,5.3206,5.3206,5.3206,5.3206,5.3206,5.3206,5.3206,5.3206,5.3206,0.0,0.0,0.0,0.0,0.0,0.0,0.0,0.0,0.0,0.0,0.0,0.0,5.462,5.5953,0.0,0.0,0.0,0.0,0.0,0.0,5.7745,5.795,5.7697,0.0,0.0,0.0,0.0,0.0,0.0,0.0,0.0,0.0,5.7997,5.7997,0.0,0.0,5.7997,5.7997,5.7997,5.7997,5.7997,0.0,0.0,5.7997,5.7997,5.7997,5.7997,5.7997,5.7997,5.7997,0.0,5.7997,5.7997,5.9281,6.0401,6.0401,6.1722,6.2805,0.0,0.0,6.2805,6.2805,6.2805,6.2805,6.2805,0.0,0.0,6.5044,6.5264,6.5944,6.7467,6.765,6.7687,6.7687,6.7687,6.7687,6.7687,6.7687,6.7687,6.7687,6.7687,6.7687,6.7687,6.7687,6.7687,6.7687,6.7687,6.7687,6.7687,6.7687,0.0,0.0,6.7687,6.7687,6.7687,6.7687,6.7687,6.7687,6.7687,6.7687,6.7687,0.0,0.0,0.0,0.0,0.0,0.0,5.3206,5.3206,5.3206,5.3206,5.3206,5.3206,5.3206,5.3206,5.3206,5.3206,0.0,0.0,0.0,0.0,0.0,0.0,0.0,0.0,0.0,0.0,5.3922,5.4399,5.4998,0.0,0.0,0.0,0.0,0.0,0.0,5.7904,5.7997,5.7904,0.0,0.0,0.0,0.0,0.0,0.0,0.0,0.0,0.0,0.0,5.7997,5.7997,0.0,0.0,5.7997,5.7997,0.0,0.0,5.7997,5.7997,5.7997,5.7997,5.7997,5.7997,5.7997,5.7997,5.7997,0.0,5.7997,5.7997,5.9281,6.0401,6.0401,6.1722,6.2805,6.2805,6.2805,0.0,6.2805,6.2805,6.2805,6.2805,6.2805,0.0,0.0,0.0,6.598,6.7577,6.7687,6.7687,6.7687,6.7687,6.7687,6.7687,6.7687,6.7687,6.7687,6.7687,6.7687,6.7687,6.7687,6.7687,6.7687,6.7687,6.7687,6.7687,6.7687,0.0,0.0,6.7687,6.7687,6.7687,6.7687,6.7687,6.7687,6.7687,6.7687,6.7687,0.0,0.0,0.0,0.0,0.0,5.3206,5.3206,5.3206,5.3206,5.3206,5.3206,5.3206,5.3206,5.3206,5.3206,5.3206,5.3206,0.0,0.0,0.0,0.0,0.0,0.0,0.0,0.0,0.0,5.3482,5.4051,5.4289,5.4924,0.0,0.0,5.7052,5.7509,0.0,0.0,0.0,0.0,0.0,0.0,0.0,0.0,0.0,0.0,0.0,0.0,0.0,0.0,0.0,0.0,0.0,0.0,5.7997,5.7997,5.7997,5.7997,5.7997,5.7997,5.7997,5.7997,5.7997,5.7997,5.7997,5.7997,0.0,0.0,5.7997,5.7997,5.9281,6.0401,6.0401,6.1722,6.2805,6.2805,6.2805,6.2805,6.2805,6.2805,6.2755,6.2534,0.0,6.3429,0.0,6.56,6.6476,6.7595,6.7687,6.7687,6.7687,6.7687,6.7687,6.7687,6.7687,6.7687,6.7687,6.7687,6.7687,6.7687,6.7687,6.7687,6.7687,6.7687,6.7687,6.7687,6.7687,6.7687,0.0,6.7687,6.7687,6.7687,6.7687,6.7687,6.7687,6.7687,6.7687,6.7687,0.0,0.0,0.0,0.0,0.0,0.0,5.3206,5.3206,5.3206,5.3206,5.3206,5.3206,5.3206,5.3206,5.3206,5.3206,5.3206,0.0,0.0,0.0,0.0,0.0,0.0,0.0,0.0,0.0,5.3206,5.3225,5.4014,5.4418,5.4454,5.6051,5.6804,5.6859,0.0,0.0,0.0,0.0,0.0,0.0,0.0,0.0,0.0,0.0,0.0,0.0,0.0,0.0,0.0,0.0,0.0,0.0,0.0,5.7997,5.7997,5.7997,5.7997,5.7997,5.7997,5.7997,5.7997,5.7997,5.7997,5.7997,0.0,5.7997,5.7997,5.7997,5.9281,6.0401,6.0401,6.1722,6.2805,6.2805,6.2805,6.2805,6.2805,6.2805,6.2585,0.0,0.0,6.3363,6.4253,6.6336,6.7669,6.7687,6.7687,0.0,6.7687,6.7687,6.7687,6.7687,6.7687,6.7687,6.7687,6.7687,6.7687,6.7687,6.7687,6.7687,6.7687,6.7687,6.7687,6.7687,6.7687,6.7687,0.0,6.7687,6.7687,6.7687,6.7687,6.7687,6.7687,6.7687,6.7687,6.7687,0.0,0.0,0.0,0.0,0.0,0.0,5.3206,5.3206,5.3206,5.3206,5.3206,5.3206,5.3206,5.3206,5.3206,5.3206,5.3206,0.0,0.0,0.0,0.0,0.0,0.0,0.0,0.0,0.0,5.3206,5.3206,5.3463,5.3867,5.4418,5.4932,5.5445,5.6014,5.6777,5.7143,0.0,0.0,0.0,0.0,0.0,0.0,0.0,0.0,0.0,0.0,0.0,0.0,0.0,0.0,0.0,0.0,0.0,0.0,0.0,5.7997,5.7997,5.7997,5.7997,5.7997,5.7997,5.7997,5.7997,5.7997,5.7997,5.7997,5.7997,5.7997,5.9281,6.0401,6.0401,6.1722,6.2805,6.2805,6.2805,6.2805,0.0,0.0,0.0,6.2534,6.3294,6.4165,0.0,0.0,6.7192,6.7687,6.7687,6.7687,6.7687,6.7687,6.7687,6.7687,6.7687,6.7687,6.7687,6.7687,6.7687,6.7687,6.7687,6.7687,6.7687,6.7687,6.7687,6.7687,6.7687,6.7687,6.7687,6.7687,6.7687,6.7687,6.7687,6.7687,6.7687,6.7687,6.7687,6.7687,0.0,0.0,0.0,0.0,0.0,0.0,5.3206,5.3206,5.3206,5.3206,5.3206,5.3206,5.3206,5.3206,5.3206,5.3206,5.3206,0.0,0.0,0.0,0.0,0.0,0.0,0.0,5.3206,5.3206,5.3206,5.3206,5.3206,5.3463,5.3959,5.4252,5.4675,5.517,5.5996,5.6345,0.0,0.0,0.0,0.0,0.0,0.0,5.7556,0.0,0.0,0.0,0.0,0.0,0.0,0.0,0.0,0.0,0.0,0.0,0.0,0.0,5.7997,5.7997,5.7997,5.7997,5.7997,5.7997,5.7997,5.7997,5.7997,5.7997,5.7997,5.7997,5.9281,6.0401,6.0401,6.1722,6.2805,6.2805,6.2805,6.2805,0.0,0.0,0.0,6.2884,0.0,0.0,0.0,6.6051,6.687,6.7304,6.7561,6.7687,6.7687,6.7687,6.7687,6.7687,6.7687,6.7687,6.7687,6.7687,6.7687,6.7687,6.7687,6.7687,6.7687,6.7687,6.7687,6.7687,6.7687,6.7687,0.0,6.7687,6.7687,6.7687,6.7687,6.7687,6.7687,6.7687,6.7687,6.7687,0.0,0.0,0.0,0.0,0.0,0.0,0.0,5.3206,5.3206,5.3206,5.3206,5.3206,5.3206,5.3206,5.3206,5.3206,5.3206,0.0,0.0,0.0,0.0,0.0,0.0,0.0,5.3206,5.3206,5.3206,5.3206,5.3206,5.3206,5.3225,5.3959,5.4308,5.4344,5.5152,5.5537,0.0,0.0,0.0,0.0,5.5592,5.6051,0.0,0.0,0.0,0.0,0.0,0.0,0.0,0.0,0.0,0.0,0.0,0.0,0.0,0.0,0.0,0.0,0.0,5.7997,5.7997,5.7997,5.7997,5.7997,5.7997,5.7997,0.0,5.7997,5.9281,6.0401,6.0401,6.1722,6.2805,6.2805,6.2805,0.0,0.0,6.2805,0.0,0.0,6.3185,0.0,6.4439,6.5815,6.6677,6.6736,6.7378,6.7687,6.7687,6.7687,6.7687,6.7687,6.7687,6.7687,6.7687,6.7687,6.7687,6.7687,6.7687,6.7687,6.7687,6.7687,6.7687,0.0,6.7687,6.7687,6.7687,6.7687,6.7687,6.7687,6.7687,6.7687,6.7687,6.7687,6.7687,6.7687,0.0,0.0,0.0,0.0,0.0,0.0,0.0,0.0,0.0,0.0,5.3206,5.3206,5.3206,5.3206,5.3206,0.0,0.0,0.0,0.0,0.0,0.0,0.0,0.0,0.0,5.3206,5.3206,5.3206,5.3206,5.3206,5.3206,5.3206,5.339,5.3482,5.3537,5.4326,5.5023,0.0,0.0,0.0,0.0,5.5592,5.5702,0.0,0.0,0.0,0.0,5.7079,5.7483,0.0,0.0,0.0,0.0,0.0,0.0,0.0,0.0,5.7997,5.7997,5.7997,0.0,5.7997,5.7997,5.7997,5.7997,0.0,5.7997,0.0,0.0,0.0,6.0401,6.0401,6.1722,6.2805,6.2805,0.0,0.0,6.2805,0.0,0.0,0.0,6.3149,6.3956,6.5842,6.5935,6.6325,6.7359,6.7615,6.7687,6.7687,6.7687,6.7687,6.7687,6.7687,6.7687,6.7687,6.7687,6.7687,6.7687,6.7687,6.7687,6.7687,6.7687,6.7687,6.7687,6.7687,6.7687,6.7687,6.7687,6.7687,6.7687,6.7687,6.7687,6.7687,6.7687,6.7687,6.7687,0.0,0.0,0.0,0.0,0.0,0.0,0.0,0.0,0.0,0.0,5.3206,5.3206,5.3206,5.3206,5.3206,0.0,0.0,0.0,0.0,0.0,0.0,0.0,0.0,5.3206,5.3206,5.3206,5.3206,5.3206,5.3206,5.3206,5.3206,5.3206,5.3206,5.3225,5.3665,5.4087,0.0,0.0,0.0,0.0,5.4491,0.0,0.0,0.0,0.0,0.0,5.6675,5.7079,0.0,5.7886,5.7997,5.7997,0.0,0.0,0.0,0.0,5.7997,5.7997,5.7997,5.7997,5.7997,5.7997,5.7997,5.7997,5.7997,5.7997,0.0,0.0,0.0,6.0401,6.0401,6.1506,0.0,0.0,6.2585,0.0,0.0,0.0,6.2528,6.302,6.2928,6.3547,0.0,6.5597,6.6064,6.7174,6.7506,6.7687,6.7687,6.7687,6.7687,6.7687,6.7687,6.7687,6.7687,6.7687,6.7687,6.7687,6.7687,6.7687,6.7687,6.7687,6.7687,6.7687,6.7687,6.7687,6.7687,6.7687,6.7687,6.7687,6.7687,6.7687,6.7687,6.7687,6.7687,6.7687,0.0,0.0,0.0,0.0,0.0,0.0,0.0,0.0,0.0,0.0,0.0,0.0,0.0,0.0,0.0,0.0,0.0,0.0,0.0,0.0,0.0,0.0,5.3206,5.3206,5.3206,5.3206,5.3206,5.3206,5.3206,5.3206,5.3206,5.3206,5.3206,5.3206,5.3206,5.3206,0.0,0.0,0.0,0.0,5.3206,0.0,0.0,0.0,0.0,0.0,0.0,0.0,0.0,5.7721,5.7997,5.7997,5.7997,0.0,0.0,0.0,0.0,0.0,5.7997,5.7997,5.7997,5.7997,5.7997,5.7997,5.7997,5.7997,0.0,0.0,0.0,0.0,0.0,6.1284,0.0,0.0,0.0,0.0,6.2342,6.2131,6.2168,6.2828,6.2631,0.0,6.4411,6.5215,6.594,6.6618,6.7304,6.7687,6.7687,6.7687,6.7687,6.7687,6.7687,6.7687,6.7687,6.7687,6.7687,6.7687,6.7687,6.7687,6.7687,6.7687,6.7687,6.7687,0.0,0.0,6.7687,6.7687,6.7687,6.7687,6.7687,6.7687,6.7687,6.7687,6.7687,6.7687,0.0,0.0,0.0,0.0,0.0,0.0,0.0,0.0,0.0,0.0,0.0,0.0,0.0,0.0,0.0,0.0,0.0,0.0,0.0,0.0,0.0,5.3206,5.3206,5.3206,5.3206,5.3206,5.3206,5.3206,5.3206,5.3206,5.3206,5.3206,5.3206,5.3206,5.3206,5.3206,5.3206,5.3206,0.0,5.3206,5.3206,0.0,0.0,0.0,0.0,0.0,0.0,0.0,0.0,5.7721,5.7997,5.7997,5.7997,0.0,0.0,0.0,0.0,0.0,5.7997,5.7997,5.7997,5.7997,5.7997,5.7997,5.7997,5.7997,5.7997,0.0,0.0,0.0,0.0,6.1624,0.0,0.0,0.0,0.0,0.0,0.0,6.2011,6.2351,0.0,6.3654,6.5286,6.5536,6.594,6.6618,6.7304,6.7687,6.7687,6.7687,6.7687,6.7687,6.7687,6.7687,6.7687,6.7687,6.7687,6.7687,6.7687,6.7687,6.7687,6.7687,6.7687,6.7687,0.0,6.7687,6.7687,6.7687,6.7687,6.7687,6.7687,6.7687,6.7687,6.7687,6.7687,6.7687,0.0,0.0,0.0,0.0,0.0,0.0,0.0,0.0,0.0,0.0,0.0,0.0,0.0,0.0,0.0,0.0,0.0,0.0,0.0,0.0,5.3206,5.3206,5.3206,5.3206,5.3206,5.3206,5.3206,5.3206,5.3206,5.3206,5.3206,5.3206,5.3206,5.3206,5.3206,5.3206,5.3206,5.3206,5.3206,5.3206,0.0,0.0,0.0,0.0,0.0,0.0,0.0,0.0,0.0,0.0,5.7997,5.7997,5.7997,0.0,0.0,0.0,0.0,0.0,5.7997,5.7997,5.7997,5.7997,5.7997,5.7997,5.7997,5.7774,0.0,0.0,0.0,0.0,0.0,0.0,0.0,0.0,0.0,0.0,0.0,0.0,0.0,0.0,0.0,6.3707,6.4946,6.5752,6.6344,6.6677,6.7304,6.7687,6.7687,6.7687,6.7687,6.7687,6.7633,6.7579,6.7579,6.7579,6.7633,6.7687,6.7687,6.7687,6.7687,6.7687,6.7687,6.7687,0.0,6.7687,6.7687,6.7687,6.7687,6.7687,6.7687,6.7687,6.7687,6.7687,6.7687,6.7687,0.0,0.0,0.0,0.0,0.0,0.0,0.0,0.0,0.0,0.0,0.0,0.0,0.0,0.0,0.0,0.0,0.0,0.0,0.0,5.3206,5.3206,5.3206,5.3206,5.3206,5.3206,5.3206,5.3206,5.3206,5.3206,5.3206,5.3206,5.3206,5.3206,5.3206,5.3206,5.3206,5.3206,5.3206,5.3206,5.3206,0.0,0.0,0.0,0.0,0.0,0.0,0.0,0.0,0.0,0.0,0.0,0.0,0.0,0.0,0.0,5.7997,5.7997,5.7997,5.7997,5.7997,5.7997,5.7997,5.7997,5.7997,5.7997,5.7613,0.0,0.0,0.0,0.0,0.0,6.0972,0.0,0.0,0.0,0.0,0.0,0.0,0.0,0.0,6.274,6.3534,6.4253,6.5561,6.6404,6.6422,6.723,6.7687,6.7687,6.7687,6.7633,6.7633,6.7524,6.7414,6.7414,6.7414,6.7524,6.7633,6.7687,6.7687,6.7687,6.7687,6.7687,6.7687,6.7687,6.7687,6.7687,6.7687,6.7687,6.7687,6.7687,6.7687,6.7687,6.7687,6.7687,6.7687,0.0,0.0,0.0,0.0,0.0,0.0,0.0,0.0,0.0,0.0,0.0,0.0,0.0,0.0,0.0,0.0,0.0,0.0,0.0,5.3206,5.3206,5.3206,5.3206,5.3206,5.3206,5.3206,5.3206,5.3206,5.3206,5.3206,5.3206,5.3206,5.3206,5.3206,5.3206,5.3206,5.3206,5.3206,5.3206,5.3206,5.3206,0.0,0.0,0.0,0.0,0.0,0.0,0.0,0.0,0.0,0.0,0.0,0.0,0.0,5.7997,5.7997,5.7997,5.7997,5.7997,5.7997,5.7997,5.7997,5.7997,5.7997,5.7997,5.7886,0.0,5.8214,0.0,0.0,0.0,6.1777,0.0,6.1015,6.0897,6.0537,5.9299,0.0,6.1016,6.1293,6.2266,6.3128,6.3629,6.4702,6.5462,6.5671,6.6967,6.7687,6.7687,6.7579,6.7488,6.7488,6.7341,6.721,6.721,6.721,6.7341,6.7543,6.7633,6.7687,6.7687,6.7687,6.7687,6.7687,6.7687,6.7687,6.7687,6.7687,6.7687,6.7687,6.7687,6.7687,6.7687,6.7687,6.7687,6.7687,0.0,0.0,0.0,0.0,0.0,0.0,0.0,0.0,0.0,0.0,0.0,0.0,0.0,0.0,0.0,0.0,0.0,0.0,0.0,5.3206,5.3206,5.3206,5.3206,5.3206,5.3206,5.3206,5.3206,5.3206,5.3206,5.3206,5.3206,5.3206,5.3206,5.3206,5.3206,5.3206,5.3206,5.3206,5.3206,5.3206,5.3206,5.35,0.0,0.0,0.0,0.0,0.0,0.0,0.0,0.0,5.7997,5.7997,5.7997,5.7997,5.7997,5.7997,5.7997,5.7997,5.7997,5.7997,5.7997,5.7997,5.7997,0.0,0.0,5.7613,5.7637,5.8573,5.8806,0.0,0.0,0.0,6.1436,6.0956,6.0572,6.0174,5.9696,6.0388,6.1122,6.1841,6.286,6.3671,6.399,6.5088,6.5671,6.5285,6.6736,6.7524,6.7396,6.747,6.7414,6.7341,6.7172,6.7115,6.7115,6.7115,6.7172,6.7341,6.747,6.7633,6.7687,6.7687,6.7687,6.7687,6.7687,6.7687,6.7687,6.7687,6.7687,6.7687,6.7687,6.7687,6.7687,6.7687,6.7687,6.7687,0.0,0.0,0.0,0.0,0.0,0.0,0.0,0.0,0.0,0.0,0.0,0.0,0.0,0.0,0.0,0.0,0.0,0.0,5.3206,5.3206,5.3206,5.3206,5.3206,5.3206,5.3206,5.3206,5.3206,5.3206,5.3206,5.3206,5.3206,5.3206,5.3206,5.3206,5.3206,5.3206,5.3206,5.3206,5.3206,5.3225,5.3482,5.3922,0.0,0.0,0.0,0.0,0.0,0.0,0.0,0.0,5.7997,5.7997,5.7997,5.7997,5.7997,5.7997,5.7997,5.7997,5.7997,5.7997,5.7997,5.795,0.0,0.0,5.7792,5.7351,5.7373,5.8595,5.9078,0.0,0.0,0.0,0.0,0.0,6.0406,6.0019,6.0019,6.0511,6.1122,6.1841,6.3049,6.3841,6.3902,6.5154,6.5752,6.5189,6.6559,6.7341,6.721,6.7285,6.7303,6.7154,6.7001,6.6961,6.6961,6.6961,6.7001,6.7154,6.7303,6.747,6.7687,6.7687,6.7687,6.7687,6.7687,6.7687,6.7687,6.7687,6.7687,6.7687,6.7687,6.7687,6.7687,6.7687,6.7687,6.7687,0.0,0.0,0.0,0.0,0.0,0.0,0.0,0.0,5.3206,5.3206,5.3206,0.0,0.0,0.0,0.0,0.0,0.0,0.0,5.3206,5.3206,5.3206,5.3206,5.3206,5.3206,5.3206,5.3206,5.3206,5.3206,5.3206,5.3206,5.3206,5.3206,5.3206,5.3206,5.3206,5.3206,5.3206,5.3206,5.3206,5.3298,5.4087,5.4418,5.4509,0.0,0.0,0.0,0.0,0.0,0.0,0.0,5.7997,5.7997,5.7997,5.7997,5.7997,5.7997,5.7997,5.7997,5.7997,5.7997,5.795,0.0,0.0,0.0,5.7649,5.7252,5.7207,5.8274,0.0,6.0658,5.9821,0.0,0.0,0.0,6.0406,6.0019,6.0019,6.0511,6.0936,6.1045,6.2576,6.3499,6.3038,6.4788,6.5643,6.5123,6.6422,6.721,6.721,6.7058,6.7001,6.7001,6.6845,6.6804,6.6804,6.6804,6.6845,6.7001,6.7001,6.7229,6.7687,6.7687,6.7687,6.7687,6.7687,6.7687,6.7687,6.7687,6.7687,6.7687,6.7687,6.7687,6.7687,6.7687,6.7687,6.7687,0.0,0.0,0.0,0.0,0.0,0.0,0.0,0.0,5.3206,5.3206,5.3206,0.0,0.0,0.0,0.0,0.0,0.0,0.0,5.3206,5.3206,5.3206,5.3206,5.3206,5.3206,5.3206,5.3206,5.3206,5.3206,5.3206,5.3206,5.3206,5.3206,5.3206,5.3206,5.3206,5.3206,5.3206,5.3206,5.3537,5.4069,5.4308,5.5078,5.6124,0.0,0.0,0.0,0.0,0.0,0.0,0.0,0.0,0.0,5.7997,5.7997,5.7997,5.7997,5.7997,5.7997,5.7997,5.795,0.0,5.7792,0.0,0.0,0.0,5.7855,0.0,0.0,6.0101,6.059,6.0001,0.0,0.0,0.0,5.992,5.9334,5.9726,6.0326,6.1158,6.224,6.304,6.377,6.4201,6.5189,6.5468,6.4788,6.6179,6.7001,6.6903,6.6943,6.6961,6.6845,6.6804,6.6804,6.6804,6.6804,6.6845,6.7001,6.7001,6.719,6.7543,6.7543,6.7579,6.7687,6.7687,6.7687,6.7687,6.7687,6.7687,6.7687,6.7687,6.7687,6.7687,6.7687,6.7687,6.7687,0.0,0.0,0.0,0.0,0.0,0.0,0.0,0.0,5.3206,5.3206,5.3206,5.3206,0.0,0.0,0.0,0.0,0.0,0.0,0.0,5.3206,5.3206,5.3206,5.3206,5.3206,5.3206,5.3206,5.3206,5.3206,5.3206,5.3206,5.3206,5.3206,5.3206,5.3206,5.3206,5.339,5.3683,5.3683,5.4142,5.4895,5.5225,5.5941,5.684,0.0,0.0,0.0,0.0,0.0,0.0,0.0,0.0,0.0,5.7997,5.7997,5.7997,5.7997,5.7997,5.7997,5.7997,5.7886,0.0,5.7792,5.7302,5.6919,5.7353,0.0,0.0,0.0,0.0,6.0772,5.9613,5.945,0.0,6.0309,5.9415,5.8944,5.9596,5.9949,6.0597,6.1735,6.2862,6.3725,6.4172,6.5143,6.5551,6.5074,6.5949,6.6554,6.6804,6.6845,6.6903,6.6804,6.6804,6.6804,6.6804,6.6804,6.6863,6.6903,6.6903,6.7076,6.7303,6.7433,6.7579,6.7687,6.7687,6.7687,6.7687,6.7687,6.7687,6.7687,6.7633,6.7633,6.7633,6.7633,6.7633,6.7633,0.0,0.0,5.3206,5.3206,0.0,0.0,0.0,0.0,5.3206,5.3206,5.3206,5.3206,0.0,0.0,0.0,0.0,0.0,0.0,0.0,5.3206,5.3206,5.3206,5.3206,5.3206,5.3206,5.3206,5.3206,5.3206,5.3206,5.3206,5.3206,5.3206,5.3206,5.3206,5.3298,5.372,5.4399,5.4473,5.4968,5.5757,5.651,5.684,5.6987,5.7721,0.0,0.0,0.0,0.0,0.0,0.0,0.0,0.0,5.7997,5.7997,5.7997,5.7997,5.7997,5.7997,5.7997,5.7886,0.0,5.7697,5.7206,0.0,5.7992,5.8516,5.8703,5.8619,0.0,6.101,5.8978,5.9613,6.0299,5.9726,5.9046,5.8789,5.9464,5.9429,5.9641,6.0323,6.2192,6.3458,6.3383,6.4699,6.5564,6.5572,6.5635,6.602,6.6727,6.6804,6.6804,6.6804,6.6804,6.6804,6.6804,6.6804,6.6804,6.6804,6.6804,6.6809,6.6892,6.7266,6.7543,6.7687,6.7687,6.7687,6.7687,6.7687,6.7633,6.7633,6.7543,6.7488,6.7488,6.7488,6.7543,6.7543,0.0,0.0,5.3206,5.3206,0.0,0.0,0.0,0.0,0.0,5.3206,0.0,0.0,0.0,0.0,0.0,0.0,0.0,0.0,0.0,5.3206,5.3206,5.3206,5.3206,5.3206,5.3206,5.3206,5.3206,5.3206,5.3206,5.3206,5.3206,5.3206,5.3206,5.3243,5.3867,5.4234,5.4436,5.506,5.5812,5.6565,5.673,5.7189,5.7758,5.7923,5.7997,0.0,0.0,0.0,0.0,0.0,0.0,0.0,5.7997,5.7997,5.7997,5.7997,5.7997,5.7997,5.7886,5.7745,0.0,0.0,5.6976,5.7091,5.7447,5.8745,6.0003,6.0182,6.0484,6.0485,5.9499,5.9937,6.0129,5.8927,5.9012,5.9062,5.8562,5.8944,5.9659,6.0858,6.1858,6.2717,6.3253,6.4154,6.4693,6.4733,6.5298,6.5999,6.6768,6.6804,6.6804,6.6804,6.6804,6.6804,6.6804,6.6804,6.6804,6.6804,6.6804,6.6519,6.6074,6.6881,6.7451,6.7687,6.7597,6.7543,6.7543,6.7396,6.7322,6.7322,6.747,6.7488,6.7488,6.7652,6.7633,6.7633,0.0,0.0,0.0,0.0,0.0,0.0,0.0,0.0,0.0,0.0,0.0,0.0,0.0,0.0,0.0,0.0,0.0,0.0,0.0,0.0,5.3206,5.3206,5.3206,5.3206,5.3206,5.3206,5.3206,5.3206,5.3592,5.3592,5.3225,5.3592,5.3775,5.3812,5.462,5.5188,5.5592,5.5996,5.6638,5.7373,5.7373,5.7629,5.7997,5.7997,5.7997,5.7997,5.7997,0.0,0.0,0.0,0.0,0.0,0.0,0.0,5.7997,5.7997,5.7997,5.7997,5.7857,5.7697,0.0,5.633,0.0,5.6493,5.6612,5.8031,5.9451,6.0291,6.0909,6.0909,5.9596,6.0093,6.0237,5.8597,5.8806,5.8909,5.8314,5.8439,5.9081,6.0463,6.1298,6.2124,6.3131,6.3644,6.404,6.4393,6.4489,6.4806,6.5627,6.5645,6.5645,6.5645,6.5645,6.5645,6.5645,6.5645,6.5645,6.5645,6.5645,6.5467,6.522,6.5806,6.6153,6.628,6.6244,6.619,6.6172,6.6099,6.6043,6.6043,6.608,6.6135,6.6208,6.6299,6.6591,6.6993,0.0,0.0,0.0,0.0,0.0,0.0,0.0,0.0,0.0,0.0,0.0,0.0,0.0,0.0,0.0,0.0,0.0,0.0,0.0,0.0,0.0,5.3206,5.3206,5.3206,5.3206,5.3353,5.3427,5.3427,5.4216,5.4271,5.3628,5.4308,5.4601,5.4638,5.5445,5.618,5.6822,5.695,5.7391,5.7997,5.7997,5.7997,5.7997,5.7997,0.0,5.7997,5.7997,5.7997,5.7997,5.7997,0.0,0.0,0.0,0.0,5.7997,5.7997,5.7997,5.7997,5.7857,5.7534,5.6982,5.5601,5.5672,0.0,5.5996,5.7325,5.8875,5.9998,6.1068,6.1318,5.9644,6.0282,6.0406,5.8439,5.8668,5.8909,5.8243,5.8027,5.8351,5.9644,6.0546,6.1441,6.2723,6.301,6.34,6.4122,6.3603,6.3597,6.4378,6.4396,6.4396,6.4396,6.4396,6.4396,6.4396,6.4396,6.4396,6.4396,6.4251,6.4235,6.4384,6.433,6.4512,6.4767,6.4785,6.4785,6.4785,6.4731,6.4731,6.4731,6.4639,6.4694,6.4803,6.4876,6.5404,6.6096,0.0,0.0,0.0,0.0,0.0,0.0,0.0,0.0,0.0,0.0,5.3206,5.3206,0.0,5.3206,5.3206,5.3206,5.3206,5.3206,5.3206,0.0,0.0,5.3206,5.3206,5.3206,5.3206,5.3885,5.4234,5.4234,5.5042,5.5372,5.5262,5.5372,5.5427,5.5464,5.629,5.6712,5.6859,5.7538,5.7905,5.7997,5.7997,5.7997,5.7997,0.0,0.0,0.0,0.0,5.7997,5.7997,5.7997,5.7997,0.0,0.0,0.0,5.7997,5.7997,5.7997,5.7997,5.7857,5.6964,5.5794,0.0,5.6152,5.7376,0.0,0.0,6.0527,0.0,6.0309,6.0326,5.9966,6.059,6.0432,5.828,5.9095,5.9561,5.8154,5.7881,5.8209,5.8977,5.9731,6.0441,6.1206,6.1813,6.2492,6.3291,6.3289,6.3579,6.4359,6.4396,6.4396,6.4396,6.4396,6.4396,6.4396,6.4396,6.4396,6.4378,6.3689,6.3345,6.3383,6.2694,6.3276,6.4767,6.4694,6.4639,6.4639,6.449,6.4434,6.449,6.4713,6.4803,6.4822,6.5126,6.5304,6.5506,0.0,0.0,0.0,0.0,0.0,0.0,0.0,0.0,0.0,0.0,0.0,5.3206,5.3206,5.3206,5.3206,5.3206,5.3206,5.339,5.3849,5.4289,5.4546,5.4546,5.4546,5.4546,5.4546,5.4876,5.506,5.506,5.5886,5.6271,0.0,5.673,5.6693,5.6308,5.7116,5.7464,5.7501,5.785,5.7997,5.7997,5.7997,5.795,5.7904,0.0,0.0,0.0,0.0,0.0,0.0,0.0,5.7997,5.7997,5.7997,0.0,0.0,0.0,5.7997,5.7886,5.7351,5.6403,5.5519,5.5098,5.616,5.7114,5.6541,5.855,6.0344,6.0156,6.0093,6.0093,6.003,6.0909,6.0968,5.8772,5.9674,6.0139,5.8651,5.8458,5.8581,5.8892,5.9163,5.9821,6.0909,6.1239,6.1762,6.2439,6.253,6.2693,6.3056,6.3074,6.3074,6.3074,6.3074,6.3074,6.3074,6.3074,6.3074,6.3056,6.2712,6.253,6.253,6.2168,6.244,6.3257,6.3148,6.3148,6.3166,6.3056,6.3111,6.3148,6.3312,6.3454,6.356,6.3734,6.4149,6.4677,0.0,0.0,0.0,0.0,0.0,0.0,0.0,0.0,0.0,0.0,0.0,5.3206,5.3206,0.0,0.0,0.0,5.3702,5.4069,5.4675,5.5262,5.5592,5.5592,5.5592,5.5592,5.5592,5.575,5.5841,5.5886,5.6667,0.0,5.7134,5.7721,5.7685,0.0,5.7721,5.7997,5.7997,0.0,0.0,0.0,0.0,0.0,0.0,0.0,0.0,0.0,0.0,0.0,0.0,0.0,0.0,0.0,0.0,0.0,0.0,0.0,0.0,5.7745,5.6879,5.624,5.5782,5.5577,5.6356,5.7183,0.0,0.0,6.0048,0.0,6.0093,5.9966,5.9966,6.0927,6.1104,5.9212,6.0076,6.059,5.9363,5.9163,5.9163,5.9163,5.9346,5.9867,6.0909,6.1163,6.143,6.195,6.2023,6.2023,6.2023,6.2023,6.2023,6.2023,6.2023,6.2023,6.2023,6.2023,6.2023,6.2023,6.2023,6.2023,6.2023,6.2023,6.2023,6.2023,6.2023,6.2023,6.2023,6.2023,6.206,6.2203,6.2257,6.2397,6.2603,6.2654,6.3108,6.3796,0.0,0.0,0.0,0.0,0.0,0.0,0.0,0.0,0.0,0.0,0.0,5.3206,5.3206,5.3885,5.4344,5.4344,5.5023,5.5482,5.5519,5.5574,5.5592,5.5592,5.5592,0.0,5.5592,5.6209,5.6594,5.6748,0.0,0.0,5.7941,5.7978,5.7978,5.7941,5.7978,5.7997,5.7997,0.0,0.0,0.0,0.0,0.0,0.0,0.0,0.0,0.0,0.0,0.0,0.0,0.0,0.0,0.0,0.0,0.0,0.0,0.0,0.0,0.0,5.6722,5.6546,5.6436,5.5702,5.7087,5.8479,5.7863,0.0,6.0156,6.0789,6.0406,5.9966,5.9966,6.0608,6.059,5.9145,6.0076,6.0747,6.003,5.9966,5.9966,5.9966,6.0529,6.0909,6.0968,6.1561,6.195,6.2023,6.2023,6.2023,6.2023,6.2023,6.2023,6.2023,6.2023,6.2023,6.2023,6.2023,6.2023,6.2023,6.2023,6.2023,6.2023,6.2023,6.2023,6.2023,6.2023,6.2023,6.2023,6.2023,6.206,6.2203,6.2362,6.2467,6.2603,6.2755,6.2842,6.3007,0.0,0.0,0.0,0.0,0.0,0.0,0.0,0.0,0.0,0.0,0.0,0.0,0.0,5.4693,5.517,5.517,5.5904,5.6363,5.6363,5.684,5.7134,5.7134,5.7043,5.7024,5.7024,5.7271,5.7371,5.7324,0.0,5.7904,5.7886,5.7886,5.7904,5.7997,5.7997,5.795,5.7904,5.795,0.0,0.0,0.0,0.0,0.0,0.0,0.0,0.0,0.0,0.0,0.0,0.0,0.0,0.0,0.0,0.0,0.0,0.0,0.0,5.7631,5.6827,5.7029,5.7406,5.7043,5.7912,5.8827,5.9114,5.9238,5.9495,6.0219,6.0174,5.9966,5.9966,6.0547,6.0529,5.9145,6.0076,6.0747,6.0093,6.0344,6.0468,6.003,6.0219,6.0547,6.0986,6.1239,6.1561,6.195,6.2023,6.2023,6.2023,6.2023,6.2023,6.2023,6.2023,6.2023,6.2023,6.2023,6.2023,6.2023,6.2023,6.2023,6.2023,6.2023,6.2023,6.2023,6.2023,6.2023,6.2023,6.2023,6.206,6.2203,6.2257,6.2344,6.2467,6.2519,6.2603,6.2691,0.0,0.0,0.0,0.0,0.0,5.3206,5.3206,5.3445,5.361,5.361,0.0,0.0,0.0,0.0,5.6106,5.6363,5.6895,5.7207,5.7207,5.7703,5.7997,5.7997,5.7886,5.7857,5.7792,5.747,5.7423,5.7601,5.747,5.7517,5.7745,5.7792,5.7839,5.7857,5.795,5.795,0.0,0.0,0.0,5.7649,0.0,0.0,5.6546,0.0,0.0,0.0,0.0,0.0,0.0,0.0,0.0,0.0,0.0,0.0,0.0,0.0,0.0,0.0,5.7051,0.0,0.0,5.8076,5.8757,5.9614,6.0229,5.9949,5.9739,6.0219,6.0362,6.0299,6.003,6.0547,6.0711,5.9739,6.059,6.118,6.0729,6.1045,6.118,6.0729,6.0669,6.0867,6.1297,6.1372,6.1505,6.1969,6.2023,0.0,6.2023,6.2023,6.2023,6.2023,6.2023,6.2023,6.2023,6.2023,6.2023,6.2023,6.2023,6.2023,6.2023,6.2023,6.2023,6.2023,6.2023,6.2023,6.2023,6.2023,6.206,6.2203,6.2203,6.2257,6.2415,6.2467,6.25,6.2603,0.0,0.0,5.3243,5.3243,5.328,5.328,5.328,5.394,5.4436,5.4436,0.0,0.0,0.0,0.0,0.0,5.7923,5.7997,5.7997,5.7997,5.7997,5.7997,5.7997,5.7997,5.7904,5.7792,5.6883,5.6799,5.7601,5.6703,5.6721,5.7601,5.7745,5.7697,5.7601,5.7839,5.7997,5.7997,0.0,5.7745,5.7821,0.0,5.6039,5.6686,0.0,0.0,0.0,5.5454,5.5454,0.0,0.0,0.0,0.0,0.0,0.0,0.0,0.0,0.0,0.0,0.0,0.0,0.0,5.8677,5.9743,6.0865,6.1002,6.0986,6.0986,6.0986,6.0986,6.0789,6.0156,6.0608,6.1045,6.1045,6.1561,6.195,6.195,6.2023,6.2023,6.2023,6.2023,6.2023,6.2023,6.2023,6.2023,6.2023,6.2023,6.2023,6.2023,6.2023,6.2023,6.2023,6.2023,6.2023,6.2023,6.2023,6.2023,6.2023,6.2023,6.2023,6.2023,6.2023,6.2023,6.2023,6.2023,6.2023,6.2023,6.2023,6.206,6.2203,6.2203,6.2257,6.2415,6.2552,6.2603,6.2603,0.0,5.3683,5.4069,5.4069,5.4546,5.4932,5.4932,5.5115,5.5262,0.0,0.0,0.0,0.0,0.0,5.7601,5.7839,5.7857,5.7857,5.7857,5.7857,5.7792,5.7697,5.7601,5.7553,5.7486,5.7286,5.717,5.7289,5.7219,5.7286,5.7455,5.7486,5.7534,5.7583,5.7486,5.7553,5.7697,5.7839,0.0,0.0,5.6132,5.5702,0.0,0.0,0.0,0.0,0.0,5.4059,0.0,0.0,5.4774,5.4896,0.0,0.0,0.0,0.0,0.0,0.0,5.7338,0.0,0.0,0.0,0.0,0.0,6.1582,6.0986,6.0406,6.0909,6.0986,6.0909,6.0747,6.1257,6.1692,6.1692,6.1487,6.1297,6.1297,6.1692,6.2023,6.2023,6.2023,6.2023,6.2023,6.2023,6.2023,0.0,6.2023,6.2023,6.2023,6.2023,6.2023,6.2023,6.2023,6.2023,6.2023,6.2023,6.2023,6.2023,6.2023,6.2023,6.2023,6.2023,6.2023,6.2023,6.2023,6.2023,6.2023,6.2023,6.2005,6.206,6.215,6.2203,6.2257,6.2415,6.25,6.2603,5.4005,5.4389,5.4745,5.4745,5.5129,5.544,5.5485,5.5778,5.5998,0.0,0.0,0.0,0.0,0.0,0.0,5.7792,5.7745,5.7697,5.7697,5.7697,5.7697,5.7601,5.7553,5.7455,5.7388,5.6844,5.6743,5.7188,5.6794,5.6794,5.7307,5.7388,5.7388,5.7437,5.7406,5.7388,0.0,0.0,0.0,0.0,5.6039,0.0,0.0,5.4425,5.4059,0.0,0.0,0.0,5.3898,5.4011,5.3994,0.0,0.0,0.0,0.0,0.0,0.0,0.0,0.0,0.0,0.0,0.0,0.0,0.0,6.1487,6.0986,6.0344,6.0139,6.059,6.0909,6.0626,6.139,6.2023,6.2023,6.1692,6.143,6.143,6.1748,6.2023,6.2023,6.2023,6.2023,6.2023,6.2023,6.2023,6.2023,6.2023,6.2023,6.2023,6.2023,6.2023,6.2023,6.2023,6.2023,6.2023,6.2023,6.2023,6.2023,6.2023,6.2023,6.2023,6.2023,6.2023,6.2023,6.2023,6.2023,6.2005,6.206,6.206,6.2005,6.215,6.2203,6.2203,6.2397,6.2552,6.2603,0.0,5.5267,5.534,5.534,5.5413,5.5514,5.5624,5.6227,5.6703,0.0,5.7306,0.0,0.0,0.0,0.0,0.0,5.7649,5.7601,5.7601,5.7601,5.7601,5.7553,5.7553,5.7504,5.7388,5.6142,5.6021,0.0,0.0,0.0,0.0,0.0,0.0,0.0,5.7437,5.7437,5.7206,0.0,0.0,5.732,5.589,5.5833,0.0,0.0,5.473,0.0,5.4562,5.4281,5.4218,5.3668,5.3551,0.0,0.0,0.0,0.0,0.0,5.5957,0.0,0.0,0.0,0.0,0.0,0.0,0.0,6.1104,6.1104,6.0789,5.9478,6.0264,6.0927,6.0344,6.1198,6.2023,6.2023,6.2023,6.2023,6.2023,6.2023,6.2023,6.2023,6.2023,6.2023,6.2023,6.2023,6.2023,6.2023,6.2023,6.2023,6.2023,6.2023,6.2023,6.2023,6.2023,6.2023,6.2023,6.2023,6.2023,6.2023,6.2023,6.2023,6.2023,6.2023,6.2023,6.2023,6.2023,6.2023,6.2005,6.215,6.2096,6.2005,6.2203,6.2238,6.231,6.2552,6.2603,6.2654,5.5212,5.5723,5.6179,5.6179,5.6708,5.7127,5.7175,5.7302,5.7412,5.7412,5.754,0.0,0.0,0.0,0.0,0.0,5.7437,5.7455,5.7455,5.7455,5.7388,5.7289,5.7289,5.7257,5.7239,5.6975,5.6701,5.6474,0.0,0.0,0.0,0.0,0.0,0.0,5.7018,5.7257,5.7188,0.0,0.0,5.6456,5.5777,0.0,5.5484,5.4205,5.3783,5.3898,5.3734,5.3668,5.3668,0.0,5.3832,5.4218,0.0,0.0,0.0,0.0,0.0,0.0,0.0,0.0,0.0,0.0,0.0,0.0,6.1692,6.1822,6.171,6.143,6.1618,6.1748,6.1636,6.1822,6.2023,6.2023,6.2023,6.2023,6.2023,6.2023,6.2023,6.2023,6.2023,6.2023,6.2023,6.2023,6.2023,6.2023,6.2023,6.2023,6.2023,6.2023,6.2023,6.2023,6.2023,6.2023,6.2023,6.2023,6.2023,6.2023,6.2023,6.2023,6.2023,6.2023,6.2023,6.2023,6.2023,6.206,6.215,6.2203,6.2203,6.2203,6.2449,6.25,6.2552,6.2705,6.2755,6.2755,5.6207,5.6534,5.6806,5.6806,5.7133,5.7437,5.7486,5.7504,5.7504,5.7504,5.7437,0.0,0.0,0.0,0.0,0.0,0.0,0.0,0.0,5.7018,5.6793,5.6758,5.6456,5.6294,5.6294,5.5981,5.5812,5.5848,0.0,0.0,0.0,0.0,0.0,0.0,0.0,5.6863,0.0,0.0,5.6863,5.6257,5.5698,0.0,5.4782,5.3849,5.3501,5.3501,5.3501,5.3501,5.3501,5.3501,5.3972,0.0,0.0,5.462,5.5462,0.0,5.574,5.6255,0.0,0.0,0.0,5.9994,0.0,0.0,0.0,6.1505,6.143,6.1063,6.1257,6.1505,6.1505,6.1748,6.2023,6.2023,6.2023,6.2023,6.2023,6.2023,6.2023,6.2023,6.2023,6.2023,6.2023,6.2023,6.2023,6.2023,6.2023,6.2023,6.2023,6.2023,6.2023,6.2023,6.2023,6.2023,6.2023,6.2023,6.2023,6.2023,6.2023,6.2023,6.2023,6.2023,6.2023,6.2005,6.206,6.2168,6.2203,6.2344,6.2397,6.2397,6.2552,6.2603,6.2603,6.2755,6.2805,6.2805,5.7188,5.7188,5.7188,5.7188,5.7188,5.7257,5.7338,5.7338,5.7338,5.7338,0.0,0.0,0.0,0.0,0.0,0.0,0.0,0.0,0.0,0.0,5.6146,5.6146,5.5676,5.5385,5.5385,5.4887,5.4765,5.5207,5.5207,0.0,0.0,0.0,0.0,0.0,0.0,0.0,0.0,0.0,0.0,5.5887,0.0,5.4948,5.4499,5.3783,5.3501,5.3501,5.3501,5.3501,5.3518,5.367,0.0,5.4515,5.4076,5.4599,0.0,0.0,0.0,0.0,0.0,0.0,0.0,0.0,0.0,6.0174,0.0,0.0,0.0,6.0485,6.0807,6.1163,6.1163,6.1618,6.2023,6.2023,6.2023,0.0,0.0,6.2023,0.0,6.2023,6.2023,6.2023,6.2023,6.2023,6.2023,6.2023,6.2023,6.2023,6.2023,6.2023,6.2023,6.2023,6.2023,6.2023,6.2023,6.2023,6.2023,6.2023,6.2023,6.2023,6.2023,6.2023,6.2005,6.206,6.215,6.2257,6.2291,6.25,6.2603,6.2654,6.2654,6.2654,6.2654,6.2755,6.2805,6.2805,5.7188,5.7188,5.7188,5.7188,5.7188,5.7206,5.7188,5.7239,5.7239,0.0,0.0,0.0,0.0,0.0,0.0,0.0,0.0,0.0,5.5618,0.0,0.0,5.5502,5.5443,5.5385,5.5385,5.5325,5.5009,5.4516,5.4516,5.4299,0.0,0.0,0.0,0.0,5.5308,0.0,0.0,0.0,5.5249,0.0,5.4516,5.4791,0.0,5.3963,5.3501,5.3501,5.3501,5.3501,5.3602,0.0,5.4515,5.4685,0.0,5.5126,5.489,0.0,0.0,0.0,0.0,0.0,0.0,0.0,5.9561,0.0,0.0,0.0,6.1877,6.1766,0.0,6.1895,0.0,0.0,0.0,0.0,0.0,6.2023,6.2023,6.2023,6.2023,6.2023,6.2023,6.2023,6.2023,6.2023,6.2023,6.2023,6.2023,6.2023,6.2023,6.2023,6.2023,6.2023,6.2023,6.2023,6.2023,6.2023,6.2023,6.2023,6.2023,6.2023,6.2023,6.2023,6.206,6.2203,6.2203,6.2344,6.2552,6.2603,6.2654,6.2773,6.2773,6.2773,6.2755,6.2805,6.2805,6.2805,5.7188,5.7188,5.7188,5.7188,5.7188,5.7188,5.7188,5.7188,5.7188,0.0,0.0,0.0,0.0,0.0,0.0,0.0,0.0,5.5385,0.0,0.0,0.0,0.0,5.4826,0.0,5.4333,5.4269,5.4141,5.3898,5.4218,5.4281,5.4059,0.0,0.0,0.0,5.5087,0.0,5.4333,0.0,5.5009,0.0,0.0,0.0,0.0,5.3849,5.3501,5.3501,5.3501,5.3501,5.3551,0.0,5.4532,0.0,0.0,0.0,0.0,0.0,0.0,0.0,0.0,0.0,0.0,0.0,0.0,0.0,6.0849,0.0,6.2023,0.0,0.0,0.0,0.0,0.0,0.0,0.0,6.2023,6.2023,0.0,0.0,6.2023,6.2023,0.0,0.0,6.2023,6.2023,6.2023,6.2023,6.2023,6.2023,6.2023,6.2023,6.2023,6.2023,6.2023,6.2023,6.2023,6.2023,6.2023,6.2023,6.2023,6.2023,6.2005,6.206,6.215,6.2203,6.2344,6.25,6.2603,6.2705,6.2755,6.2805,6.2805,6.2805,6.2805,6.2805,6.2805,6.2805,5.7188,0.0,5.7188,5.7188,5.7188,5.7188,5.7188,5.7188,0.0,0.0,0.0,0.0,5.6966,5.6239,0.0,0.0,0.0,5.4861,0.0,0.0,5.4676,0.0,0.0,0.0,0.0,0.0,5.3501,5.3501,5.3946,5.4171,0.0,0.0,0.0,0.0,0.0,5.4397,5.3568,0.0,0.0,5.4171,5.4171,5.4171,5.4124,5.3668,5.3501,5.3501,5.3501,5.3501,5.3534,5.3737,5.4515,0.0,5.4397,0.0,0.0,0.0,0.0,0.0,5.7695,0.0,0.0,0.0,0.0,0.0,0.0,0.0,0.0,0.0,0.0,0.0,0.0,0.0,0.0,0.0,0.0,6.2023,0.0,6.2023,0.0,0.0,0.0,0.0,0.0,6.2023,6.2023,6.2023,6.2023,6.2023,6.2023,6.2023,6.1915,6.1697,6.1679,6.1589,6.1353,6.1353,6.1353,6.1353,6.1353,6.1407,6.1407,6.1549,6.1602,6.1636,6.1843,6.1945,6.1995,6.2095,6.2144,6.2144,6.2144,6.2144,6.2218,6.2658,6.2805,6.2805,5.7188,5.7188,0.0,0.0,0.0,5.7188,5.7188,5.7188,0.0,0.0,0.0,0.0,0.0,0.0,0.0,0.0,0.0,5.3568,5.3568,0.0,5.3568,0.0,0.0,0.0,0.0,0.0,0.0,5.3501,5.3501,0.0,0.0,0.0,0.0,0.0,0.0,5.3568,5.3501,5.3568,5.3568,5.3501,5.3501,5.3501,5.3501,0.0,5.3501,5.3501,5.3501,0.0,0.0,5.4313,5.4583,0.0,0.0,0.0,0.0,0.0,0.0,0.0,0.0,0.0,0.0,5.8703,0.0,0.0,0.0,0.0,6.2023,0.0,0.0,0.0,0.0,0.0,0.0,0.0,0.0,0.0,0.0,0.0,0.0,0.0,0.0,0.0,0.0,6.2023,6.2023,0.0,6.2023,6.2023,6.2023,6.2023,6.1661,6.0883,6.0846,6.0466,5.9687,5.9687,5.9687,5.9687,5.9792,5.9895,5.9895,5.9998,6.0131,6.0262,6.028,6.0329,6.0474,6.0493,6.0493,6.0493,6.0493,6.0493,6.0676,6.2236,6.2805,6.2805,5.7188,0.0,0.0,0.0,0.0,0.0,0.0,5.6863,0.0,0.0,0.0,0.0,0.0,0.0,5.4391,0.0,0.0,5.3501,5.3501,5.3898,0.0,0.0,0.0,5.3898,0.0,0.0,0.0,0.0,0.0,0.0,0.0,0.0,0.0,0.0,0.0,5.3501,0.0,0.0,0.0,0.0,0.0,5.3501,5.3501,0.0,5.3501,5.3501,5.3501,5.3501,0.0,5.3788,5.4194,5.4634,5.4888,5.5649,5.6478,5.6731,5.7154,0.0,0.0,0.0,5.7954,5.8209,0.0,0.0,0.0,0.0,0.0,0.0,0.0,0.0,0.0,0.0,0.0,0.0,0.0,0.0,0.0,0.0,6.043,0.0,0.0,0.0,0.0,0.0,0.0,0.0,6.043,0.0,6.043,6.043,6.0303,6.0013,6.0013,5.9887,5.9615,5.9615,5.9649,5.9701,5.9719,5.9701,5.9805,5.9856,5.9889,5.9939,6.0139,6.0256,6.0237,6.0353,6.0401,6.0401,6.0401,6.0401,6.0529,6.1612,6.2016,6.2089,5.6863,0.0,0.0,0.0,0.0,0.0,0.0,0.0,0.0,0.0,5.5791,0.0,5.5385,0.0,5.4391,0.0,5.3832,5.3501,5.3501,5.3832,0.0,5.3501,5.3898,0.0,0.0,0.0,0.0,0.0,0.0,5.3501,0.0,0.0,0.0,0.0,0.0,5.3501,5.3501,0.0,5.3501,0.0,0.0,5.3501,0.0,0.0,5.3501,5.3501,0.0,5.3501,5.3501,5.3501,5.3991,5.4583,5.4583,5.5615,5.6799,5.6799,5.7306,5.7881,5.7881,5.7881,0.0,5.8209,5.8581,0.0,5.9838,0.0,0.0,0.0,0.0,0.0,0.0,0.0,0.0,0.0,0.0,0.0,0.0,5.9941,0.0,0.0,0.0,0.0,0.0,0.0,0.0,0.0,0.0,0.0,0.0,5.9615,5.947,5.918,5.918,5.9035,5.8746,5.8746,5.8797,5.8849,5.8849,5.8849,5.8951,5.9051,5.9083,5.9083,5.9347,5.9395,5.9443,5.9491,5.9557,5.9557,5.9557,5.9557,5.9685,6.0768,6.1355,6.1722,5.6201,5.5848,0.0,0.0,5.7188,0.0,0.0,0.0,5.6257,0.0,5.5676,5.5343,5.5343,5.4703,5.4345,5.4345,5.3832,0.0,5.3501,5.3501,0.0,0.0,5.3501,5.3501,5.3501,0.0,0.0,0.0,0.0,0.0,0.0,0.0,0.0,0.0,5.3501,0.0,5.3501,5.3501,5.3501,5.3501,5.3501,5.3501,5.3501,5.3501,5.3501,5.3501,5.3501,5.3501,5.3518,5.3551,5.4008,5.46,5.4685,5.5666,5.6816,5.685,5.734,5.7881,5.7881,5.7881,5.8082,5.8703,5.8823,0.0,0.0,0.0,5.9914,0.0,0.0,0.0,0.0,0.0,0.0,0.0,0.0,0.0,0.0,0.0,0.0,0.0,0.0,0.0,0.0,0.0,0.0,0.0,0.0,0.0,0.0,5.9488,5.9126,5.8365,5.8347,5.7967,5.7206,5.7188,5.7188,5.7188,5.7338,5.7388,5.7406,5.7649,5.7792,5.7792,5.795,5.7997,5.7997,5.7997,5.7997,5.7997,5.7997,5.7997,5.818,5.9758,6.0878,6.1704,5.674,5.6474,5.6146,0.0,5.6915,5.7036,0.0,0.0,0.0,0.0,5.4362,5.398,5.398,5.3849,5.3734,5.3734,5.3618,0.0,0.0,0.0,0.0,5.3501,5.3501,5.3501,5.3501,5.3501,0.0,5.3501,0.0,0.0,5.3501,0.0,0.0,0.0,0.0,0.0,5.3501,5.3501,5.3501,5.3501,5.3501,5.3501,5.3501,0.0,5.3501,5.3501,5.3501,5.3501,5.3585,5.4126,5.4431,5.4786,5.5886,5.6494,5.6917,5.7459,5.7746,5.7881,5.7881,5.7881,5.7954,5.8137,5.8137,5.8334,0.0,0.0,0.0,0.0,0.0,0.0,0.0,0.0,0.0,0.0,0.0,0.0,0.0,0.0,0.0,5.7532,0.0,0.0,0.0,0.0,0.0,0.0,0.0,0.0,5.7822,5.7822,5.7713,5.7514,5.7514,5.7406,5.7188,5.7188,5.7239,5.7356,5.7289,5.7289,5.7388,5.7486,5.7486,5.7504,5.7745,5.7839,5.7839,5.795,5.7997,5.7997,5.7997,5.7997,5.8125,5.9153,6.0401,6.163,5.5794,0.0,0.0,5.5601,0.0,0.0,5.5943,0.0,0.0,5.4903,5.4103,0.0,5.394,5.3974,5.3974,5.3974,5.4279,0.0,0.0,0.0,0.0,5.3974,5.367,5.3501,5.3501,5.3501,0.0,5.3501,0.0,0.0,5.3501,0.0,0.0,0.0,0.0,5.3501,5.3501,5.3501,5.3501,5.3501,5.3501,5.3501,0.0,5.3501,5.3704,5.3974,5.3974,5.3974,5.4042,5.4448,5.5023,5.57,5.6545,5.6799,5.6884,5.7289,5.7188,5.6934,5.6934,5.6934,5.6934,5.6934,5.6934,5.7077,5.7431,5.7175,5.7004,0.0,5.7092,0.0,0.0,0.0,0.0,0.0,0.0,0.0,0.0,0.0,0.0,0.0,5.7188,0.0,0.0,0.0,0.0,0.0,0.0,0.0,0.0,5.7188,5.7188,5.7188,5.7188,5.7188,5.7188,5.7188,5.7257,5.7289,5.7257,5.7289,5.7388,5.7455,5.7504,5.7601,5.7792,5.7904,5.7886,5.795,5.7997,5.7997,5.7997,5.7997,5.8052,5.851,5.9483,6.0603,0.0,0.0,0.0,0.0,0.0,0.0,0.0,5.4894,0.0,5.5331,0.0,5.4025,5.4668,5.4735,5.4735,5.4735,0.0,5.5716,5.5716,5.5108,5.4735,5.4735,5.4126,5.3788,5.3788,5.3687,0.0,0.0,0.0,0.0,5.3501,5.3501,0.0,0.0,0.0,0.0,0.0,5.3501,5.3501,5.3501,5.3501,5.3568,5.3653,5.3653,5.4093,5.4735,5.4735,5.4735,5.4735,5.4735,5.5598,5.6664,5.6664,5.6664,5.6664,5.6664,5.6207,5.5716,5.5716,5.5716,5.5716,5.5716,5.5716,5.5716,5.5716,5.5649,5.5581,5.5581,5.5497,5.5429,0.0,0.0,0.0,0.0,0.0,0.0,0.0,0.0,0.0,0.0,0.0,0.0,0.0,0.0,0.0,0.0,0.0,0.0,0.0,0.0,5.7188,5.7188,5.7188,5.7188,5.7188,5.7188,5.7206,5.7257,5.7206,5.7289,5.7437,5.7553,5.7697,5.7792,5.795,5.7997,5.7997,5.7997,5.7997,5.7997,5.7997,5.7997,5.7997,5.7997,5.8437,5.9171,0.0,0.0,0.0,0.0,0.0,5.5091,5.5519,5.5444,5.5214,5.4822,5.5075,5.5378,5.5497,5.553,5.553,5.553,5.5649,0.0,0.0,0.0,0.0,5.553,5.5395,5.5327,5.5327,5.4718,5.4397,0.0,5.3805,5.3501,5.3501,5.3501,0.0,0.0,0.0,0.0,5.3501,5.3501,0.0,5.3501,5.3501,5.3856,5.4397,5.4397,5.4871,5.553,5.553,5.553,5.553,5.553,5.57,5.5902,5.5902,5.5902,5.5902,5.5902,5.5818,5.5716,5.5716,5.5716,5.5716,5.5716,5.5716,5.5716,5.5716,5.5243,5.4786,5.4786,5.4313,5.4058,5.4565,0.0,0.0,0.0,0.0,0.0,0.0,0.0,0.0,0.0,0.0,5.7188,0.0,0.0,0.0,0.0,0.0,5.7188,5.7188,0.0,5.7188,0.0,5.7188,5.7188,0.0,0.0,5.7257,5.7338,5.7239,5.7356,5.7553,5.7601,5.7697,5.7792,5.795,5.7997,5.7997,5.7997,5.7997,5.7997,5.7997,5.7997,5.7997,5.7997,5.8088,5.8327,0.0,0.0,0.0,0.0,0.0,0.0,0.0,5.5961,0.0,5.5803,5.5733,5.5869,5.6241,5.6275,5.6275,5.6275,5.663,5.685,5.685,5.6494,5.6275,5.6275,5.5919,0.0,5.5716,5.5361,5.5175,5.5175,5.482,5.4448,0.0,0.0,0.0,5.3501,0.0,5.3721,0.0,0.0,0.0,5.4651,5.4651,5.4854,5.5175,5.5175,5.5632,5.6275,5.6275,5.6275,5.6224,5.5852,5.5716,5.5716,5.5716,5.5446,5.5141,5.5141,5.4871,5.4566,5.4566,5.4566,5.4566,5.4566,5.4566,5.4566,5.4566,5.4279,5.4025,5.4025,5.3754,5.3668,5.4281,5.4948,0.0,0.0,0.0,0.0,0.0,0.0,0.0,0.0,0.0,0.0,0.0,0.0,0.0,0.0,0.0,5.7188,5.7188,5.7188,5.7188,0.0,0.0,0.0,5.7188,0.0,5.7257,5.7388,5.7338,5.7437,5.7697,5.7697,5.7792,5.7904,5.7997,5.7997,5.7997,5.7997,5.7997,5.7997,5.7997,5.7997,5.7997,5.7997,5.8142,5.8356,0.0,5.6048,0.0,0.0,5.6355,0.0,5.621,5.6664,5.6985,5.6816,5.6444,5.6393,5.6968,5.7036,5.7036,5.7036,5.756,5.7881,5.7881,5.7357,5.7036,5.7036,5.6478,5.619,5.619,5.6021,5.5953,0.0,5.5801,5.5327,0.0,0.0,0.0,0.0,0.0,0.0,0.0,0.0,5.5175,5.5716,5.5716,5.5801,5.5953,5.5953,5.6393,5.7019,5.6867,5.6714,5.6461,5.5716,5.548,5.5446,5.5294,5.4837,5.4363,5.4363,5.3957,5.3501,5.3501,5.3501,5.3501,5.3501,5.3501,5.3501,5.3501,5.3501,5.3501,5.3501,5.3501,5.3668,5.4281,5.472,0.0,0.0,0.0,0.0,0.0,0.0,0.0,0.0,0.0,0.0,5.7188,0.0,0.0,0.0,5.7188,5.7188,5.7188,5.7188,5.7188,5.7188,0.0,5.7188,5.7188,0.0,5.7307,5.7437,5.7437,5.7601,5.7839,5.7792,5.7886,5.7997,5.7997,5.7997,5.7997,5.7997,5.7997,5.7997,5.7997,5.7997,5.7997,5.7997,5.8186,5.8521,0.0,0.0,0.0,0.0,0.0,0.0,5.7577,5.7746,5.7543,5.6884,5.7306,5.7712,5.778,5.778,5.778,5.778,5.7848,5.7881,5.7881,5.7831,5.778,5.778,5.7729,5.7679,5.7679,5.7036,5.6697,0.0,0.0,5.5327,0.0,0.0,0.0,0.0,0.0,0.0,0.0,5.5615,5.5649,5.5716,5.5716,5.6105,5.6697,5.6697,5.7154,5.7695,5.7036,5.6376,5.57,5.4955,5.4702,5.4583,5.3923,5.367,5.3602,5.3602,5.3551,5.3501,5.3501,5.3501,5.3501,5.3501,5.3501,5.3501,5.3501,5.3501,5.3501,5.3501,5.3501,5.3668,5.4281,5.4011,5.4045,0.0,0.0,0.0,0.0,0.0,0.0,0.0,0.0,0.0,0.0,5.7188,0.0,0.0,5.7188,5.7188,5.7188,5.7188,5.7188,5.7188,5.7188,5.7188,5.7188,5.7289,5.7455,5.7601,5.7601,5.7697,5.7997,5.7857,5.7886,5.7997,5.7997,5.7997,5.7997,5.7997,5.7997,5.7997,5.7997,5.7997,5.7997,5.7997,5.8042,5.8142,0.0,0.0,0.0,0.0,0.0,0.0,0.0,5.7881,5.778,5.7492,5.7712,5.7881,5.7881,5.7881,5.7881,5.7881,5.7881,5.7881,5.7881,5.7881,5.7881,5.7881,5.7881,5.7881,5.7881,5.7594,5.7459,0.0,0.0,0.0,0.0,0.0,0.0,0.0,0.0,5.5953,5.6376,5.6376,5.663,5.7019,5.7019,5.7205,5.7459,5.7459,5.7628,5.7797,5.7053,5.6342,5.5598,5.4854,5.4296,5.389,5.3602,5.3501,5.3501,5.3501,5.3501,5.3501,5.3501,5.3501,5.3501,5.3501,5.3501,5.3501,5.3501,5.3501,5.3501,5.3501,5.3501,5.3551,5.3849,5.3946,5.4059,5.4205,0.0,0.0,0.0,0.0,0.0,0.0,0.0,0.0,0.0,5.7188,0.0,0.0,0.0,5.7188,5.7188,5.7188,5.7188,5.7188,0.0,5.7188,5.7188,5.7338,5.7455,5.7601,5.7697,5.7792,5.7997,5.795,5.795,5.7997,5.7997,5.7997,5.7997,5.7997,5.7997,5.7997,5.7997,5.7997,5.8042,5.8257,5.8521,5.8791,5.7881,0.0,5.7881,0.0,5.7881,5.7881,5.7881,5.7881,5.7881,5.7881,5.7881,5.7881,5.7881,5.7881,5.7881,5.7881,5.7881,5.7881,5.7881,5.7881,5.7881,5.7881,5.7881,0.0,5.7881,5.7881,5.7881,5.7881,5.7881,0.0,0.0,0.0,0.0,0.0,5.6359,5.6647,5.712,5.712,5.7408,5.7881,5.7881,5.7881,5.7881,5.7881,5.7881,5.7763,5.6816,5.6156,5.5564,5.46,5.3923,5.3501,5.3501,5.3501,5.3501,5.3501,5.3501,5.3501,5.3501,5.3501,5.3501,5.3501,5.3501,5.3501,5.3501,5.3501,5.3501,5.3501,5.3501,5.3501,5.3501,5.3832,5.4059,5.3783,0.0,0.0,0.0,0.0,0.0,0.0,5.7188,5.7188,5.7188,5.7188,0.0,0.0,0.0,5.7188,5.7188,5.7188,5.7188,0.0,0.0,0.0,5.7188,5.7338,5.7455,5.7601,5.7745,5.7886,5.7997,5.7997,5.7997,5.7997,5.7997,5.7997,5.7997,5.7997,5.7997,5.7997,5.7997,5.7997,5.8024,5.8437,5.8791,5.9084,5.7881,5.7881,5.7881,5.7881,5.7881,5.7881,5.7881,5.7881,5.7881,5.7881,5.7881,5.7881,5.7881,5.7881,5.7881,5.7881,5.7881,5.7881,5.7881,5.7881,5.7881,0.0,0.0,5.7881,5.7881,5.7881,5.7881,5.7881,0.0,0.0,5.6799,0.0,5.7171,5.7865,5.7865,5.7865,5.7881,5.7881,5.7881,5.7881,5.7881,5.7881,5.7881,5.7881,5.7881,5.7695,5.6241,5.5733,5.5497,5.4025,5.3518,5.3501,5.3501,5.3501,5.3501,5.3501,5.3501,5.3501,5.3501,5.3501,5.3501,5.3501,5.3501,5.3501,5.3501,5.3501,5.3501,5.3501,5.3501,5.3501,5.3501,5.3501,5.3734,5.4281,0.0,0.0,0.0,0.0,0.0,5.7138,5.7188,5.7188,5.7188,5.7188,0.0,0.0,0.0,0.0,0.0,0.0,0.0,5.7188,5.7188,0.0,5.7188,5.7338,5.7455,5.7601,5.7745,5.7886,5.7997,5.7997,5.7997,5.7997,5.7997,5.7997,5.7997,5.7997,5.7997,5.7997,5.7997,5.7997,5.8024,5.8437,5.8586,5.871,5.7881,5.7881,5.7881,5.7881,5.7881,5.7881,5.7881,5.7881,5.7881,5.7881,5.7881,5.7881,5.7881,5.7881,5.7881,0.0,5.7881,5.7881,0.0,5.7881,5.7881,5.7881,5.7881,5.7881,5.7881,5.7881,5.7881,5.7881,0.0,0.0,0.0,5.7543,5.7679,5.7881,5.7881,5.7881,5.7881,5.7881,5.7881,5.7881,5.7881,5.7881,5.7881,5.7881,5.7881,5.7695,5.6241,5.5716,5.5497,5.4008,5.3501,5.3501,5.3501,5.3501,5.3501,5.3501,5.3501,5.3501,5.3501,5.3501,5.3501,5.3501,5.3501,5.3501,5.3501,5.3501,5.3501,5.3501,5.3501,5.3501,5.3501,5.3501,5.3551,5.3783,5.4106,0.0,5.556,0.0,0.0,5.7138,5.7188,5.7188,5.7188,5.7188,0.0,0.0,0.0,0.0,0.0,0.0,0.0,0.0,5.7188,0.0,5.7188,5.7437,5.7553,5.7601,5.7839,5.795,5.7997,5.7997,5.7997,5.7997,5.7997,5.7997,5.7997,5.7997,5.7997,5.8042,5.8282,5.8412,5.8479,5.9159,5.9413,5.9484,5.7881,5.7881,5.7881,5.7881,5.7881,5.7881,5.7881,5.7881,5.7881,5.7881,5.7881,5.7881,5.7881,5.7881,0.0,5.7881,5.7881,5.7881,5.7881,5.7881,5.7881,5.7881,5.7881,5.7881,5.7881,5.7881,0.0,5.7881,5.7881,5.7881,5.7881,5.7881,5.7881,5.7881,5.7881,5.7881,5.7881,5.7881,5.7881,5.7881,5.7881,5.7881,5.7881,5.7881,5.7881,5.7695,5.6241,5.5716,5.5497,5.4008,5.3501,5.3501,5.3501,5.3501,5.3501,5.3501,5.3501,5.3501,5.3501,5.3501,5.3501,5.3501,5.3501,5.3501,5.3501,5.3501,5.3501,5.3501,5.3501,5.3501,5.3501,5.3501,5.3501,5.3501,5.4171,5.487,5.5325,0.0,5.6758,0.0,0.0,0.0,0.0,5.7188,5.7188,0.0,0.0,0.0,0.0,0.0,0.0,5.7188,5.7188,5.7188,5.7188,5.7356,5.7504,5.7601,5.7886,5.7997,5.7997,5.7997,5.7997,5.7997,5.7997,5.7997,5.7997,5.7997,5.807,5.8257,5.8521,5.871,5.8891,5.9571,5.9791,5.9874,5.7881,5.7881,5.7881,0.0,5.7881,5.7881,5.7881,5.7881,5.7881,5.7881,5.7881,5.7881,5.7881,5.7881,5.7881,5.7881,0.0,0.0,5.7881,5.7881,5.7881,5.7881,5.7881,5.7881,5.7881,5.7881,5.7881,5.7881,5.7881,5.7881,5.7881,5.7881,5.7881,5.7881,5.7881,5.7881,5.7881,5.7881,5.7881,5.7881,5.7881,5.7881,5.7881,5.7881,5.7881,5.7695,5.6241,5.5716,5.5497,5.4008,5.3501,5.3501,5.3501,5.3501,5.3501,5.3501,5.3501,5.3501,5.3501,5.3501,5.3501,5.3501,5.3501,5.3501,5.3501,5.3501,5.3501,5.3501,5.3501,5.3501,5.3501,5.3501,5.3501,5.3501,5.4534,5.5332,5.5385,5.6456,5.7188,0.0,0.0,0.0,5.7188,5.7188,5.7188,0.0,0.0,0.0,0.0,0.0,5.7188,5.7188,5.7188,5.7188,5.7188,5.7188,5.7338,5.7649,5.7904,5.7997,5.7997,5.7997,5.7997,5.7997,5.7997,5.7997,5.7997,5.8042,5.8257,5.8586,5.8669,5.8891,5.927,5.9692,5.9842,5.9906,0.0,0.0,5.7881,5.7881,5.7881,5.7881,5.7881,5.7881,5.7881,5.7881,5.7881,5.7881,5.7881,5.7881,5.7881,5.7881,5.7881,5.7881,5.7881,5.7881,5.7881,5.7881,5.7881,5.7881,5.7881,5.7881,5.7881,5.7881,5.7881,5.7881,5.7881,5.7881,5.7881,5.7881,5.7881,5.7881,5.7881,5.7881,5.7881,5.7881,5.7881,5.7881,5.7881,5.7881,5.7881,5.7695,5.6241,5.5716,5.5497,5.4008,5.3501,5.3501,5.3501,5.3501,5.3501,5.3501,5.3501,5.3501,5.3501,5.3501,5.3501,5.3501,5.3501,5.3501,5.3501,5.3501,5.3501,5.3501,5.3501,5.3501,5.3501,5.3501,5.3501,5.3501,5.4568,5.5367,5.5385,5.6456,5.7188,0.0,5.7188,5.7188,5.7188,5.7188,5.7188,0.0,0.0,0.0,5.7188,5.7188,5.7188,5.7188,5.7188,5.7188,5.7188,5.7388,5.7649,5.7904,5.795,5.7997,5.7997,5.7997,5.7997,5.7997,5.7997,5.7997,5.8042,5.8326,5.8503,5.8669,5.927,5.9571,5.9725,6.0099,6.0256,6.0285,5.7881,5.7881,5.7881,5.7881,5.7881,5.7881,5.7881,5.7881,5.7881,5.7881,5.7881,5.7881,5.7881,5.7881,5.7881,5.7881,5.7881,5.7881,5.7881,5.7881,5.7881,5.7881,5.7881,5.7881,5.7881,5.7881,5.7881,5.7881,5.7881,5.7881,5.7881,5.7881,5.7881,5.7881,5.7881,5.7881,5.7881,5.7881,5.7881,5.7881,5.7881,5.7881,5.7881,5.7881,5.7881,5.7695,5.6241,5.5716,5.5497,5.4008,5.3501,5.3501,5.3501,5.3501,5.3501,5.3501,5.3501,5.3501,5.3501,5.3501,5.3501,5.3501,5.3501,5.3501,5.3501,5.3501,5.3501,5.3501,5.3501,5.3501,5.3501,5.3501,5.3501,5.3501,5.4568,5.5385,5.5385,5.6456,5.7188,5.7188,5.7188,5.7188,5.7188,5.7188,5.7188,5.7188,5.7188,0.0,5.7188,5.7188,5.7188,5.7188,5.7188,5.7188,5.7188,5.7455,5.7697,5.7792,5.795,5.7997,5.7997,5.7997,5.7997,5.7997,5.7997,5.7997,5.8042,5.8213,5.8563,5.893,5.9361,5.9758,6.0099,6.0313,6.0389,6.0389,5.7881,5.7881,5.7881,5.7881,5.7881,5.7881,5.7881,5.7881,5.7881,5.7881,5.7881,5.7881,5.7881,5.7881,5.7881,5.7881,5.7881,5.7881,5.7881,5.7881,5.7881,5.7881,5.7881,5.7881,5.7881,5.7881,5.7881,5.7881,5.7881,5.7881,5.7881,5.7881,5.7881,5.7881,5.7881,5.7881,5.7881,5.7881,5.7881,5.7881,5.7881,5.7881,5.7881,5.7881,5.7881,5.7695,5.6241,5.5716,5.5497,5.4008,5.3501,5.3501,5.3501,5.3501,5.3501,5.3501,5.3501,5.3501,5.3501,5.3501,5.3501,5.3501,5.3501,5.3501,5.3501,5.3501,5.3501,5.3501,5.3501,5.3501,5.3501,5.3501,5.3501,5.3618,5.4614,5.5443,5.5502,0.0,5.7188,5.7188,5.7188,5.7188,5.7188,5.7188,5.7188,5.7188,5.7188,5.7188,5.7188,5.7188,5.7188,5.7188,5.7188,5.7206,5.7257,5.7504,5.7601,5.7649,5.7904,5.7997,5.7997,5.7997,5.7997,5.7997,5.7997,5.7997,5.7997,5.807,5.8521,5.9215,5.9289,5.9758,6.0389,6.0389,6.0389,6.0389,5.7881,5.7881,5.7881,5.7881,5.7881,5.7881,5.7881,5.7881,5.7881,5.7881,5.7881,5.7881,5.7881,5.7881,5.7881,5.7881,5.7881,5.7881,5.7881,5.7881,5.7881,5.7881,5.7881,5.7881,5.7881,5.7881,5.7881,5.7881,5.7881,5.7881,5.7881,5.7881,5.7881,5.7881,5.7881,5.7881,5.7881,5.7881,5.7881,5.7881,5.7881,5.7881,5.7881,5.7881,5.7881,5.7695,5.6241,5.5716,5.5497,5.4008,5.3501,5.3501,5.3501,5.3501,5.3501,5.3501,5.3501,5.3501,5.3501,5.3501,5.3501,5.3501,5.3501,5.3501,5.3501,5.3501,5.3501,5.3501,5.3501,5.3501,5.3501,5.3501,5.3668,5.4171,5.4905,5.556,5.609,0.0,5.7188,5.7188,5.7188,5.7188,5.7188,5.7188,5.7188,5.7188,5.7188,5.7188,5.7188,5.7188,5.7188,5.7188,5.7188,5.7239,5.7356,5.7534,5.7649,5.7792,5.795,5.7997,5.7997,5.7997,5.7997,5.7997,5.7997,5.7997,5.8042,5.8369,5.8791,5.9233,5.9571,5.9988,6.0389,6.0389,6.0389,6.0389,5.7881,5.7881,5.7881,5.7881,5.7881,5.7881,5.7881,5.7881,5.7881,5.7881,5.7881,5.7881,5.7881,5.7881,5.7881,5.7881,5.7881,5.7881,5.7881,5.7881,5.7881,5.7881,5.7881,5.7881,5.7881,5.7881,5.7881,5.7881,5.7881,5.7881,5.7881,5.7881,5.7881,5.7881,5.7881,5.7881,5.7881,5.7881,5.7881,5.7881,5.7881,5.7881,5.7881,5.7881,5.7881,5.7695,5.6241,5.5716,5.5497,5.4008,5.3501,5.3501,5.3501,5.3501,5.3501,5.3501,5.3501,5.3501,5.3501,5.3501,5.3501,5.3501,5.3501,5.3501,5.3501,5.3501,5.3501,5.3501,5.3501,5.3501,5.3501,5.3501,5.3618,5.3898,5.4425,0.0,5.5733,5.6348,5.6811,5.7138,5.7188,5.7188,5.7188,5.7188,5.7188,5.7188,5.7188,5.7188,5.7188,5.7188,5.7188,5.7188,5.7188,5.7257,5.7289,5.7504,5.7649,5.7697,5.7904,5.7997,5.7997,5.7997,5.7997,5.7997,5.7997,5.8097,5.8326,5.8503,5.8969,5.9537,5.9725,6.0049,6.0389,6.0389,6.0389,6.0389,5.7881,5.7881,5.7881,5.7881,5.7881,5.7881,5.7881,5.7881,5.7881,5.7881,5.7881,5.7881,5.7881,5.7881,5.7881,5.7881,5.7881,5.7881,5.7881,5.7881,5.7881,5.7881,5.7881,5.7881,5.7881,5.7881,5.7881,5.7881,5.7881,5.7881,5.7881,5.7881,5.7881,5.7881,5.7881,5.7881,5.7881,5.7881,5.7881,5.7881,5.7881,5.7881,5.7881,5.7881,5.7881,5.7695,5.6241,5.5716,5.5497,5.4008,5.3501,5.3501,5.3501,5.3501,5.3501,5.3501,5.3501,5.3501,5.3501,5.3501,5.3501,5.3501,5.3501,5.3501,5.3501,5.3501,5.3501,5.3501,5.3501,5.3501,5.3501,5.3501,5.3568,5.3668,0.0,5.4703,5.5502,5.6035,5.6528,5.7138,5.7188,5.7188,5.7188,5.7188,5.7188,5.7188,5.7188,5.7188,5.7188,5.7188,5.7188,5.7188,5.7188,5.7188,5.7188,5.7455,5.7601,5.7601,5.7886,5.7997,5.7997,5.7997,5.7997,5.7997,5.7997,5.8213,5.8586,5.8586,5.9084,5.9791,5.9791,6.0049,6.0389,6.0389,6.0389,6.0389,5.7881,5.7881,5.7881,5.7881,5.7881,5.7881,5.7881,5.7881,5.7881,5.7881,5.7881,5.7881,5.7881,5.7881,5.7881,5.7881,5.7881,5.7881,5.7881,5.7881,5.7881,5.7881,5.7881,5.7881,5.7881,5.7881,5.7881,5.7881,5.7881,5.7881,5.7881,5.7881,5.7881,5.7881,5.7881,5.7881,5.7881,5.7881,5.7881,5.7881,5.7881,5.7881,5.7881,5.7881,5.7881,5.7695,5.6241,5.5716,5.5497,5.4008,5.3501,5.3501,5.3501,5.3501,5.3501,5.3501,5.3501,5.3501,5.3501,5.3501,5.3501,5.3501,5.3501,5.3501,5.3501,5.3501,5.3501,5.3501,5.3501,5.3501,5.3501,5.3501,5.3668,5.4218,0.0,0.0,5.6073,5.6257,5.6528,5.7138,5.7188,5.7188,5.7188,5.7188,5.7188,5.7188,5.7188,5.7188,5.7188,5.7188,5.7188,5.7188,5.7188,5.7188,5.7188,5.7455,5.7601,5.7601,5.7886,5.7997,5.7997,5.7997,5.7997,5.7997,5.7997,5.8213,5.8586,5.8586,5.9084,5.9791,5.9791,6.0049,6.0389,6.0389,6.0389,6.0389,5.7881,5.7881,5.7881,5.7881,5.7881,5.7881,5.7881,5.7881,5.7881,5.7881,5.7881,5.7881,5.7881,5.7881,5.7881,5.7881,5.7881,5.7881,5.7881,5.7881,5.7881,5.7881,5.7881,5.7881,5.7881,5.7881,5.7881,5.7881,5.7881,5.7881,5.7881,5.7881,5.7881,5.7881,5.7881,5.7881,5.7881,5.7881,5.7881,5.7881,5.7881,5.7881,5.7881,5.7881,5.7881,5.7695,5.6241,5.5716,5.5497,5.4008,5.3501,5.3501,5.3501,5.3501,5.3501,5.3501,5.3501,5.3501,5.3501,5.3501,5.3501,5.3501,5.3501,5.3501,5.3501,5.3501,5.3501,5.3501,5.3501,5.3501,5.3501,5.3501,5.3551,5.3766,0.0,5.4686,5.5618,5.6073,5.6528,5.7138,5.7188,5.7188,5.7188,5.7188,5.7188,5.7188,5.7188,5.7188,5.7188,5.7188,5.7188,5.7188,5.7188,5.7188,5.7188,5.7455,5.7601,5.7601,5.7886,5.7997,5.7997,5.7997,5.7997,5.7997,5.8257,5.8586,5.8969,5.9233,5.9673,6.0159,6.0159,6.0285,6.0389,6.0389,6.0389,6.0389,5.7881,5.7881,5.7881,5.7881,5.7881,5.7881,5.7881,5.7881,5.7881,5.7881,5.7881,5.7881,5.7881,5.7881,5.7881,5.7881,5.7881,5.7881,5.7881,5.7881,5.7881,5.7881,5.7881,5.7881,5.7881,5.7881,5.7881,5.7881,5.7881,5.7881,5.7881,5.7881,5.7881,5.7881,5.7881,5.7881,5.7881,5.7881,5.7881,5.7881,5.7881,5.7881,5.7881,5.7881,5.7881,5.7695,5.6241,5.5716,5.5497,5.4008,5.3501,5.3501,5.3501,5.3501,5.3501,5.3501,5.3501,5.3501,5.3501,5.3501,5.3501,5.3501,5.3501,5.3501,5.3501,5.3501,5.3501,5.3501,5.3501,5.3501,5.3501,5.3501,5.3501,5.3501,5.4011,5.4641,5.5308,5.5904,5.6528,5.7138,5.7188,5.7188,5.7188,5.7188,5.7188,5.7188,5.7188,5.7188,5.7188,5.7188,5.7188,5.7188,5.7188,5.7188,5.7188,5.7455,5.7601,5.7601,5.7886,5.7997,5.7997,5.7997,5.7997,5.8042,5.8455,5.8831,5.9233,5.9639,6.0019,6.0389,6.0389,6.0389,6.0389,6.0389,6.0389,6.0389,5.7881,5.7881,5.7881,5.7881,5.7881,5.7881,5.7881,5.7881,5.7881,5.7881,5.7881,5.7881,5.7881,5.7881,5.7881,5.7881,5.7881,5.7881,5.7881,5.7881,5.7881,5.7881,5.7881,5.7881,5.7881,5.7881,5.7881,5.7881,5.7881,5.7881,5.7881,5.7881,5.7881,5.7881,5.7881,5.7881,5.7881,5.7881,5.7881,5.7881,5.7881,5.7881,5.7881,5.7881,5.7881,5.7695,5.6241,5.5716,5.5497,5.4008,5.3501,5.3501,5.3501,5.3501,5.3501,5.3501,5.3501,5.3501,5.3501,5.3501,5.3501,5.3501,5.3501,5.3501,5.3501,5.3501,5.3501,5.3501,5.3501,5.3501,5.3501,5.3501,5.3501,5.3501,5.4011,5.4624,5.5196,5.5869,5.6528,5.7138,5.7188,5.7188,5.7188,5.7188,5.7188,5.7188,5.7188,5.7188,5.7188,5.7188,5.7188,5.7188,5.7188,5.7188,5.7188,5.7437,5.7601,5.7601,5.7857,5.7997,5.7997,5.7997,5.7997,5.8042,5.8437,5.8812,5.9252,5.9639,6.0049,6.0389,6.0389,6.0389,6.0389,6.0389,6.0389,6.0389,5.7881,5.7881,5.7881,5.7881,5.7881,5.7881,5.7881,5.7881,5.7881,5.7881,5.7881,5.7881,5.7881,5.7881,5.7881,5.7881,5.7881,5.7881,5.7881,5.7881,5.7881,5.7881,5.7881,5.7881,5.7881,5.7881,5.7881,5.7881,5.7881,5.7881,5.7881,5.7881,5.7881,5.7881,5.7881,5.7881,5.7881,5.7881,5.7881,5.7881,5.7881,5.7881,5.7881,5.7881,5.7881,5.7695,5.6241,5.5716,5.5497,5.4008,5.3501,5.3501,5.3501,5.3501,5.3501,5.3501,5.3501,5.3501,5.3501,5.3501,5.3501,5.3501,5.3501,5.3501,5.3501,5.3501,5.3501,5.3501,5.3501,5.3501,5.3501,5.3501,5.3501,5.3501,5.4379,5.5129,5.5367,5.6276,5.6984,5.7188,5.7188,5.7188,5.7188,5.7188,5.7188,5.7188,5.7188,5.7188,5.7188,5.7188,5.7188,5.7188,5.7188,5.7188,5.7188,5.7388,5.7455,5.7455,5.7649,5.7745,5.7839,5.7839,5.8051,5.8437,5.887,5.9233,5.9639,6.0068,6.0285,6.0389,6.0389,6.0389,6.0389,6.0389,6.0389,6.0389,5.7881,5.7881,5.7881,5.7881,5.7881,5.7881,5.7881,5.7881,5.7881,5.7881,5.7881,5.7881,5.7881,5.7881,5.7881,5.7881,5.7881,5.7881,5.7881,5.7881,5.7881,5.7881,5.7881,5.7881,5.7881,5.7881,5.7881,5.7881,5.7881,5.7881,5.7881,5.7881,5.7881,5.7881,5.7881,5.7881,5.7881,5.7881,5.7881,5.7881,5.7881,5.7881,5.7881,5.7881,5.7881,5.7746,5.6562,5.597,5.553,5.4329,5.3737,5.3501,5.3501,5.3501,5.3501,5.3501,5.3501,5.3501,5.3501,5.3501,5.3501,5.3501,5.3501,5.3501,5.3501,5.3501,5.3501,5.3501,5.3501,5.3501,5.3501,5.3501,5.3501,5.3501,5.4568,5.5385,5.5385,5.6456,5.7188,5.7188,5.7188,5.7188,5.7188,5.7188,5.7188,5.7188,5.7188,5.7188,5.7188,5.7188,5.7188,5.7188,5.7188,5.7188,5.7188,5.7289,5.7356,5.7388,5.7553,5.7649,5.7745,5.7792,5.806,5.8545,5.9008,5.9432,5.9842,6.0237,6.0389,6.0389,6.0389,6.0389,6.0389,6.0389,6.0389,6.0389,5.7881,5.7881,5.7881,5.7881,5.7881,5.7881,5.7881,5.7881,5.7881,5.7881,5.7881,5.7881,5.7881,5.7881,5.7881,5.7881,5.7881,5.7881,5.7881,5.7881,5.7881,5.7881,5.7881,5.7881,5.7881,5.7881,5.7881,5.7881,5.7881,5.7881,5.7881,5.7881,5.7881,5.7881,5.7881,5.7881,5.7881,5.7881,5.7881,5.7881,5.7881,5.7881,5.7881,5.7881,5.7881,5.7797,5.7053,5.6376,5.57,5.4871,5.411,5.3501,5.3501,5.3501,5.3501,5.3501,5.3501,5.3501,5.3501,5.3501,5.3501,5.3501,5.3501,5.3501,5.3501,5.3501,5.3501,5.3501,5.3501,5.3501,5.3501,5.3501,5.3501,5.3501,5.4568,5.5385,5.5385,5.6456,5.7188,5.7188,5.7188,5.7188,5.7188,5.7188,5.7188,5.7188,5.7188,5.7188,5.7188,5.7188,5.7188,5.7188,5.7188,5.7188,5.7188,5.7188,5.7239,5.7388,5.7504,5.7601,5.7601,5.7697,5.8015,5.8466,5.9008,5.9467,5.9874,6.0237,6.0389,6.0389,6.0389,6.0389,6.0389,6.0389,6.0389,6.0389,5.7881,5.7881,5.7881,5.7881,5.7881,5.7881,5.7881,5.7881,5.7881,5.7881,5.7881,5.7881,5.7881,5.7881,5.7881,5.7881,5.7881,5.7881,5.7881,5.7881,5.7881,5.7881,5.7881,5.7881,5.7881,5.7881,5.7881,5.7881,5.7881,5.7881,5.7881,5.7881,5.7881,5.7881,5.7881,5.7881,5.7881,5.7881,5.7881,5.7881,5.7881,5.7881,5.7881,5.7881,5.7881,5.7797,5.7053,5.6697,5.6359,5.504,5.411,5.3501,5.3501,5.3501,5.3501,5.3501,5.3501,5.3501,5.3501,5.3501,5.3501,5.3501,5.3501,5.3501,5.3501,5.3501,5.3501,5.3501,5.3501,5.3501,5.3501,5.3501,5.3501,5.3501,5.4568,5.5385,5.5385,5.6456,5.7188,5.7188,5.7188,5.7188,5.7188,5.7188,5.7188,5.7188,5.7188,5.7188,5.7188,5.7188,5.7188,5.7188,5.7188,5.7188,5.7188,5.7188,5.7188,5.7239,5.7289,5.7338,5.7455,5.7601,5.8068,5.8893,5.9103,5.9624,6.0285,6.0361,6.0389,6.0389,6.0389,6.0389,6.0389,6.0389,6.0389,6.0389,5.7881,5.7881,5.7881,5.7881,5.7881,5.7881,5.7881,5.7881,5.7881,5.7881,5.7881,5.7881,5.7881,5.7881,5.7881,5.7881,5.7881,5.7881,5.7881,5.7881,5.7881,5.7881,5.7881,5.7881,5.7881,5.7881,5.7881,5.7881,5.7881,5.7881,5.7881,5.7881,5.7881,5.7881,5.7881,5.7881,5.7881,5.7881,5.7881,5.7881,5.7881,5.7881,5.7881,5.7881,5.7881,5.7831,5.7459,5.7103,5.6579,5.5091,5.4329,5.3957,5.3619,5.3501,5.3501,5.3501,5.3501,5.3501,5.3501,5.3501,5.3501,5.3501,5.3501,5.3501,5.3501,5.3501,5.3501,5.3501,5.3501,5.3501,5.3501,5.3501,5.3618,5.3898,5.4738,5.5502,5.5791,5.6635,5.7188,5.7188,5.7188,5.7188,5.7188,5.7188,5.7188,5.7188,5.7188,5.7188,5.7188,5.7188,5.7188,5.7188,5.7188,5.7188,5.7188,5.7188,5.7188,5.7188,5.7188,5.7257,5.7289,5.769,5.8252,5.8913,5.9323,5.9823,6.0389,6.0389,6.0389,6.0389,6.0389,6.0389,6.0389,6.0389,6.0389,6.0389,5.7881,5.7808,5.7718,5.7881,5.7881,5.7881,5.7718,5.7645,5.7645,5.748,5.748,5.748,5.748,5.748,5.7497,5.7645,5.7645,5.7718,5.7881,5.7881,5.7881,5.7881,5.7881,5.7881,5.7881,5.7881,5.7881,5.7881,5.7881,5.7881,5.7881,5.7881,5.7881,5.7881,5.7881,5.7881,5.7881,5.7881,5.7881,5.7881,5.7881,5.7881,5.7881,5.7881,5.7881,5.7881,5.7881,5.7425,5.6596,5.5243,5.4702,5.4465,5.3737,5.3501,5.3501,5.3501,5.3501,5.3501,5.3501,5.3501,5.3501,5.3501,5.3501,5.3501,5.3501,5.3501,5.3501,5.3501,5.3501,5.3501,5.3501,5.3501,5.3668,5.4281,5.4948,5.5618,5.6201,5.6811,5.7188,5.7188,5.7188,5.7188,5.7188,5.7188,5.7188,5.7188,5.7188,5.7188,5.7188,5.7188,5.7188,5.7188,5.7188,5.7188,5.7188,5.7188,5.7188,5.7188,5.7188,5.7188,5.7239,5.7868,5.8429,5.8855,5.9499,6.0019,6.0389,6.0389,6.0389,6.0389,6.0389,6.0389,6.0389,6.0389,6.0389,6.0389,5.7735,5.7331,5.7013,5.7808,5.7881,5.7645,5.6861,5.6784,5.652,5.578,5.5619,5.5619,5.5619,5.5619,5.5955,5.6691,5.6784,5.7089,5.7881,5.7881,5.7881,5.7881,5.7881,5.7881,5.7881,5.7881,5.7881,5.7881,5.7881,5.7881,5.7881,5.7881,5.7881,5.7881,5.7881,5.7881,5.7881,5.7881,5.7881,5.7881,5.7881,5.7881,5.7881,5.7881,5.7881,5.7881,5.7881,5.7425,5.6681,5.5835,5.5141,5.4465,5.3737,5.3501,5.3501,5.3501,5.3501,5.3501,5.3501,5.3501,5.3501,5.3501,5.3501,5.3501,5.3501,5.3501,5.3501,5.3501,5.3501,5.3501,5.3501,5.3501,5.3668,5.4281,5.4948,5.5618,5.6201,5.6811,5.7188,5.7188,5.7188,5.7188,5.7188,5.7188,5.7188,5.7188,5.7188,5.7188,5.7188,5.7188,5.7188,5.7188,5.7188,5.7188,5.7188,5.7188,5.7188,5.7188,5.7188,5.7188,5.7239,5.7895,5.8429,5.8855,5.9499,6.0019,6.0389,6.0389,6.0389,6.0389,6.0389,6.0389,6.0389,6.0389,6.0389,6.0389,5.6426,5.6113,5.6113,5.7013,5.6768,5.652,5.6614,5.6034,5.5539,5.5296,5.5198,5.5117,5.5296,5.5296,5.5636,5.6536,5.6614,5.6937,5.7808,5.7881,5.7881,5.7881,5.7881,5.7881,5.7881,5.7881,5.7881,5.7881,5.7881,5.7881,5.7881,5.7881,5.7881,5.7881,5.7881,5.7881,5.7881,5.7881,5.7881,5.7881,5.7881,5.7881,5.7881,5.7881,5.7881,5.7881,5.7881,5.7679,5.7289,5.6562,5.5835,5.5091,5.4346,5.3822,5.3501,5.3501,5.3501,5.3501,5.3501,5.3501,5.3501,5.3501,5.3501,5.3501,5.3501,5.3501,5.3501,5.3501,5.3501,5.3501,5.3501,5.3501,5.38,5.4782,5.5207,5.5733,5.6688,5.7036,5.7188,5.7188,5.7188,5.7188,5.7188,5.7188,5.7188,5.7188,5.7188,5.7188,5.7188,5.7188,5.7188,5.7188,5.7188,5.7188,5.7188,5.7188,5.7188,5.7188,5.7188,5.7188,5.7239,5.805,5.8508,5.8735,5.9521,6.0007,6.0237,6.0237,6.0285,6.0389,6.0389,6.0389,6.0389,6.0389,6.0389,6.0389]},{"header":{"parameterUnit":"m.s-1","parameterCategory":1,"la1":30.6,"la2":28.766,"lo1":-90.7593,"lo2":-88.6598,"dy":0.0162,"dx":0.0183,"nx":116,"ny":114,"refTime":"2024-04-17T06:00:00:Z","depth":0,"parameterNumber":3,"parameterNumberName":"V-component_of_WINDS"},"data":[0.0,0.0,0.0,0.0,0.0,0.0,0.0,0.0,0.0,0.0,0.0,0.0,0.0,0.0,0.0,0.0,0.0,0.0,0.0,0.0,0.0,0.0,0.0,0.0,0.0,0.0,0.0,0.0,0.0,0.0,0.0,0.0,0.0,0.0,0.0,0.0,0.0,0.0,0.0,0.0,0.0,0.0,0.0,0.0,0.0,0.0,0.0,0.0,0.0,0.0,0.0,0.0,0.0,0.0,0.0,0.0,0.0,0.0,0.0,0.0,0.0,0.0,0.0,0.0,0.0,0.0,0.0,0.0,0.0,0.0,0.0,0.0,0.0,0.0,0.0,0.0,0.0,0.0,0.0,0.0,0.0,0.0,0.0,0.0,0.0,0.0,0.0,0.0,0.0,0.0,0.0,0.0,0.0,0.0,0.0,0.0,0.0,0.0,0.0,0.0,0.0,0.0,0.0,0.0,0.0,0.0,0.0,0.0,0.0,0.0,0.0,0.0,0.0,0.0,0.0,0.0,0.0,0.0,0.0,0.0,0.0,0.0,0.0,0.0,0.0,0.0,0.0,0.0,0.0,0.0,0.0,0.0,0.0,0.0,0.0,0.0,0.0,0.0,0.0,0.0,0.0,0.0,0.0,0.0,0.0,0.0,0.0,0.0,0.0,0.0,0.0,0.0,0.0,0.0,0.0,0.0,0.0,0.0,0.0,0.0,0.0,0.0,0.0,0.0,0.0,0.0,0.0,0.0,0.0,0.0,0.0,0.0,0.0,0.0,0.0,0.0,0.0,0.0,0.0,0.0,0.0,0.0,0.0,0.0,0.0,0.0,0.0,0.0,0.0,0.0,0.0,0.0,0.0,0.0,0.0,0.0,0.0,0.0,0.0,0.0,0.0,0.0,0.0,0.0,0.0,0.0,0.0,0.0,0.0,0.0,0.0,0.0,0.0,0.0,0.0,0.0,0.0,0.0,0.0,0.0,0.0,0.0,0.0,0.0,0.0,0.0,0.0,0.0,0.0,0.0,0.0,0.0,0.0,0.0,0.0,0.0,0.0,0.0,0.0,0.0,0.0,0.0,0.0,0.0,0.0,0.0,0.0,0.0,0.0,0.0,0.0,0.0,0.0,0.0,0.0,0.0,0.0,0.0,0.0,0.0,0.0,0.0,0.0,0.0,0.0,0.0,0.0,0.0,0.0,0.0,0.0,0.0,0.0,0.0,0.0,0.0,0.0,0.0,0.0,0.0,0.0,0.0,0.0,0.0,0.0,0.0,0.0,0.0,0.0,0.0,0.0,0.0,0.0,0.0,0.0,0.0,0.0,0.0,0.0,0.0,0.0,0.0,0.0,0.0,0.0,0.0,0.0,0.0,0.0,0.0,0.0,0.0,0.0,0.0,0.0,0.0,0.0,0.0,0.0,0.0,0.0,0.0,0.0,0.0,0.0,0.0,0.0,0.0,0.0,0.0,0.0,0.0,0.0,0.0,0.0,0.0,0.0,0.0,0.0,0.0,0.0,0.0,0.0,0.0,0.0,0.0,0.0,0.0,0.0,0.0,0.0,0.0,0.0,0.0,0.0,0.0,0.0,0.0,0.0,0.0,0.0,0.0,0.0,0.0,0.0,0.0,0.0,0.0,0.0,0.0,0.0,0.0,0.0,0.0,0.0,0.0,0.0,0.0,0.0,0.0,0.0,0.0,0.0,0.0,0.0,0.0,0.0,0.0,0.0,0.0,0.0,0.0,0.0,0.0,0.0,0.0,0.0,0.0,0.0,0.0,0.0,0.0,0.0,0.0,0.0,0.0,0.0,0.0,0.0,0.0,0.0,0.0,0.0,0.0,0.0,0.0,0.0,0.0,0.0,0.0,0.0,0.0,0.0,0.0,0.0,0.0,0.0,0.0,0.0,0.0,0.0,0.0,0.0,0.0,0.0,0.0,0.0,0.0,0.0,0.0,0.0,0.0,0.0,0.0,0.0,0.0,0.0,0.0,0.0,0.0,0.0,0.0,0.0,0.0,0.0,0.0,0.0,0.0,0.0,0.0,0.0,0.0,0.0,0.0,0.0,0.0,0.0,0.0,0.0,0.0,0.0,0.0,0.0,0.0,0.0,0.0,0.0,0.0,0.0,0.0,0.0,0.0,0.0,0.0,0.0,0.0,0.0,0.0,0.0,0.0,0.0,0.0,0.0,0.0,0.0,0.0,0.0,0.0,0.0,0.0,0.0,0.0,0.0,0.0,0.0,0.0,0.0,0.0,0.0,0.0,0.0,0.0,0.0,0.0,0.0,0.0,0.0,0.0,0.0,0.0,0.0,0.0,0.0,0.0,0.0,0.0,0.0,0.0,0.0,0.0,0.0,0.0,0.0,0.0,0.0,0.0,0.0,0.0,0.0,0.0,0.0,0.0,0.0,0.0,0.0,0.0,0.0,0.0,0.0,0.0,0.0,0.0,0.0,0.0,0.0,0.0,0.0,0.0,0.0,0.0,0.0,0.0,0.0,0.0,0.0,0.0,0.0,0.0,0.0,0.0,0.0,0.0,0.0,0.0,0.0,0.0,0.0,0.0,0.0,0.0,0.0,0.0,0.0,0.0,0.0,0.0,0.0,0.0,0.0,0.0,0.0,0.0,0.0,0.0,0.0,0.0,0.0,0.0,0.0,0.0,0.0,0.0,0.0,0.0,0.0,0.0,0.0,0.0,0.0,0.0,0.0,0.0,0.0,0.0,0.0,0.0,0.0,0.0,0.0,0.0,0.0,0.0,0.0,0.0,0.0,0.0,0.0,0.0,0.0,0.0,0.0,0.0,0.0,0.0,0.0,0.0,0.0,0.0,0.0,0.0,0.0,0.0,0.0,0.0,0.0,0.0,0.0,0.0,0.0,0.0,0.0,0.0,0.0,0.0,0.0,0.0,0.0,0.0,0.0,0.0,0.0,0.0,0.0,0.0,0.0,0.0,0.0,0.0,0.0,0.0,0.0,0.0,0.0,0.0,0.0,0.0,0.0,0.0,0.0,0.0,0.0,0.0,0.0,0.0,0.0,0.0,0.0,0.0,0.0,0.0,0.0,0.0,0.0,0.0,0.0,0.0,0.0,0.0,0.0,0.0,0.0,0.0,0.0,0.0,0.0,0.0,0.0,0.0,0.0,0.0,0.0,0.0,0.0,0.0,0.0,0.0,0.0,0.0,0.0,0.0,0.0,0.0,0.0,0.0,0.0,0.0,0.0,0.0,0.0,0.0,0.0,0.0,0.0,0.0,0.0,0.0,0.0,0.0,0.0,0.0,0.0,0.0,0.0,0.0,0.0,0.0,0.0,0.0,0.0,0.0,0.0,0.0,0.0,0.0,0.0,0.0,0.0,0.0,0.0,0.0,0.0,0.0,0.0,0.0,0.0,0.0,0.0,0.0,0.0,0.0,0.0,0.0,0.0,0.0,0.0,0.0,0.0,0.0,0.0,0.0,0.0,0.0,0.0,0.0,0.0,0.0,0.0,0.0,0.0,0.0,0.0,0.0,0.0,0.0,0.0,0.0,0.0,0.0,0.0,0.0,0.0,0.0,0.0,0.0,0.0,0.0,0.0,0.0,0.0,0.0,0.0,0.0,0.0,0.0,0.0,0.0,0.0,0.0,0.0,0.0,0.0,0.0,0.0,0.0,0.0,0.0,0.0,0.0,0.0,0.0,0.0,0.0,0.0,0.0,0.0,0.0,0.0,0.0,0.0,0.0,0.0,0.0,0.0,0.0,0.0,0.0,0.0,0.0,0.0,0.0,0.0,0.0,0.0,0.0,0.0,0.0,0.0,0.0,0.0,0.0,0.0,0.0,0.0,0.0,0.0,0.0,0.0,0.0,0.0,0.0,0.0,0.0,0.0,0.0,0.0,0.0,0.0,0.0,0.0,0.0,0.0,0.0,0.0,0.0,0.0,0.0,0.0,0.0,0.0,0.0,0.0,0.0,0.0,0.0,0.0,0.0,0.0,0.0,0.0,0.0,0.0,0.0,0.0,0.0,0.0,0.0,0.0,0.0,0.0,0.0,0.0,0.0,0.0,0.0,0.0,0.0,0.0,0.0,0.0,0.0,0.0,0.0,0.0,0.0,0.0,0.0,0.0,0.0,0.0,0.0,0.0,0.0,0.0,0.0,0.0,0.0,0.0,0.0,0.0,0.0,0.0,0.0,0.0,0.0,0.0,0.0,0.0,0.0,0.0,0.0,0.0,0.0,0.0,0.0,0.0,0.0,0.0,0.0,0.0,0.0,0.0,0.0,0.0,0.0,0.0,0.0,0.0,0.0,0.0,0.0,0.0,0.0,0.0,0.0,0.0,0.0,0.0,0.0,0.0,0.0,0.0,0.0,0.0,0.0,0.0,0.0,0.0,0.0,0.0,0.0,0.0,0.0,0.0,0.0,0.0,0.0,0.0,0.0,0.0,0.0,0.0,0.0,0.0,0.0,0.0,0.0,0.0,0.0,0.0,0.0,0.0,0.0,0.0,0.0,0.0,0.0,0.0,0.0,0.0,0.0,0.0,0.0,0.0,0.0,0.0,0.0,0.0,0.0,0.0,0.0,0.0,0.0,0.0,0.0,0.0,0.0,0.0,0.0,0.0,0.0,0.0,0.0,0.0,0.0,0.0,0.0,0.0,0.0,0.0,0.0,0.0,0.0,0.0,0.0,0.0,0.0,0.0,0.0,0.0,0.0,0.0,0.0,0.0,0.0,0.0,0.0,0.0,0.0,0.0,0.0,0.0,0.0,0.0,0.0,0.0,0.0,0.0,0.0,0.0,0.0,0.0,0.0,0.0,0.0,0.0,0.0,0.0,0.0,0.0,0.0,0.0,0.0,0.0,0.0,0.0,0.0,0.0,0.0,0.0,0.0,0.0,0.0,0.0,0.0,0.0,0.0,0.0,0.0,0.0,0.0,0.0,0.0,0.0,0.0,0.0,0.0,0.0,0.0,0.0,0.0,0.0,0.0,0.0,0.0,0.0,0.0,0.0,0.0,0.0,0.0,0.0,0.0,0.0,0.0,0.0,0.0,0.0,0.0,0.0,0.0,0.0,0.0,0.0,0.0,0.0,0.0,0.0,0.0,0.0,0.0,0.0,0.0,0.0,0.0,0.0,0.0,0.0,0.0,0.0,0.0,0.0,0.0,0.0,0.0,0.0,0.0,0.0,0.0,0.0,0.0,0.0,0.0,0.0,0.0,0.0,0.0,0.0,0.0,0.0,0.0,0.0,0.0,0.0,0.0,0.0,0.0,0.0,0.0,0.0,0.0,0.0,0.0,0.0,0.0,0.0,0.0,0.0,0.0,0.0,0.0,0.0,0.0,0.0,0.0,0.0,0.0,0.0,0.0,0.0,0.0,0.0,0.0,0.0,0.0,0.0,0.0,0.0,0.0,0.0,0.0,0.0,0.0,0.0,0.0,0.0,0.0,0.0,0.0,0.0,0.0,0.0,0.0,0.0,0.0,0.0,0.0,0.0,0.0,0.0,0.0,0.0,0.0,0.0,0.0,0.0,0.0,0.0,0.0,0.0,0.0,0.0,0.0,0.0,0.0,0.0,0.0,0.0,0.0,0.0,0.0,0.0,0.0,0.0,0.0,0.0,0.0,0.0,0.0,0.0,0.0,0.0,0.0,0.0,0.0,0.0,0.0,0.0,0.0,0.0,0.0,0.0,0.0,0.0,0.0,0.0,0.0,0.0,0.0,0.0,0.0,0.0,0.0,0.0,0.0,0.0,0.0,0.0,0.0,0.0,0.0,0.0,0.0,0.0,0.0,0.0,0.0,0.0,0.0,0.0,0.0,0.0,0.0,0.0,0.0,0.0,0.0,0.0,0.0,0.0,0.0,0.0,0.0,0.0,0.0,0.0,0.0,0.0,0.0,0.0,0.0,0.0,0.0,0.0,0.0,0.0,0.0,0.0,0.0,0.0,0.0,0.0,0.0,0.0,0.0,0.0,0.0,0.0,0.0,0.0,0.0,0.0,0.0,0.0,0.0,0.0,0.0,0.0,0.0,0.0,0.0,0.0,0.0,0.0,0.0,0.0,0.0,0.0,0.0,0.0,0.0,0.0,0.0,0.0,0.0,0.0,0.0,0.0,0.0,0.0,0.0,1.8964,0.0,0.0,0.0,0.0,0.0,0.0,0.0,0.0,0.0,0.0,0.0,0.0,0.0,0.0,0.0,0.0,0.0,0.0,0.0,0.0,0.0,0.0,0.0,0.0,1.1776,1.1776,1.1776,1.1776,1.1776,1.1776,0.0,0.0,0.0,0.0,0.0,0.0,0.0,1.6166,1.7467,1.7467,1.7467,1.7467,1.8771,1.9366,1.9366,0.0,0.0,0.0,0.0,0.0,0.0,0.0,0.0,0.0,0.0,0.0,0.0,0.0,0.0,0.0,0.0,0.0,0.0,0.0,0.0,0.0,0.0,0.0,0.0,0.0,0.0,0.0,0.0,0.0,0.0,0.0,0.0,0.0,0.0,0.0,0.0,0.0,0.0,0.0,0.0,0.0,0.0,0.0,0.0,0.0,0.0,0.0,0.0,0.0,0.0,0.0,0.0,0.0,0.0,0.0,0.0,0.0,0.0,0.0,0.0,0.0,0.0,0.0,0.0,0.0,0.0,0.0,0.0,0.0,0.0,0.0,1.9418,0.0,0.0,0.0,0.0,0.0,0.0,0.0,0.0,0.0,0.0,0.0,0.0,0.0,0.0,0.0,0.0,0.0,0.0,0.0,0.0,0.0,1.1893,1.213,1.2134,1.2251,1.2492,1.2492,1.2371,1.213,1.2371,0.0,0.0,0.0,1.3794,1.5924,1.6166,1.7349,1.9366,1.9366,1.9366,1.9366,1.9366,1.9366,1.9366,1.9366,0.0,0.0,0.0,0.0,0.0,0.0,0.0,0.0,0.0,0.0,0.0,0.0,0.0,0.0,0.0,0.0,0.0,0.0,0.0,0.0,0.0,0.0,0.0,0.0,0.0,0.0,0.0,0.0,0.0,0.0,0.0,0.0,0.0,0.0,0.0,0.0,0.0,0.0,0.0,0.0,0.0,0.0,0.0,0.0,0.0,0.0,0.0,0.0,0.0,0.0,0.0,0.0,0.0,0.0,0.0,0.0,0.0,0.0,0.0,0.0,0.0,0.0,0.0,2.0234,2.0234,2.0234,2.0234,2.0482,2.0609,2.0354,2.0234,2.0234,1.9839,0.0,0.0,0.0,0.0,0.0,0.0,0.0,0.0,0.0,0.0,0.0,0.0,0.0,0.0,0.0,0.0,0.0,0.0,0.0,1.2251,1.3315,1.343,1.3909,1.4981,1.51,1.4624,1.355,1.4505,1.4619,1.355,1.5564,1.6862,1.722,1.8292,1.901,1.9366,1.9366,1.9366,1.9366,1.9366,1.9366,1.9366,1.9366,1.9366,1.9366,0.0,0.0,0.0,0.0,0.0,0.0,0.0,0.0,0.0,0.0,0.0,0.0,0.0,0.0,0.0,0.0,0.0,0.0,0.0,0.0,0.0,0.0,0.0,0.0,0.0,0.0,0.0,0.0,0.0,0.0,0.0,0.0,0.0,0.0,0.0,0.0,0.0,0.0,0.0,0.0,0.0,1.9459,1.9713,0.0,0.0,0.0,0.0,0.0,0.0,0.0,0.0,0.0,0.0,0.0,0.0,0.0,2.0762,2.0923,2.0929,2.0949,2.0982,2.0982,2.0982,2.0982,2.0982,2.0982,2.0982,2.0982,0.0,2.0482,2.0482,0.0,0.0,0.0,0.0,0.0,0.0,0.0,0.0,0.0,0.0,0.0,0.0,0.0,0.0,0.0,0.0,0.0,0.0,0.0,0.0,0.0,1.4381,1.4976,1.5569,1.5575,1.5332,1.4857,1.5332,1.5337,1.4738,1.5806,1.675,1.7449,1.8052,1.8648,1.9366,1.9366,1.9366,1.9366,1.9366,1.9366,1.9366,1.9366,1.9366,1.9366,1.9366,0.0,0.0,0.0,0.0,0.0,0.0,0.0,0.0,0.0,0.0,0.0,0.0,0.0,0.0,0.0,0.0,0.0,0.0,0.0,0.0,0.0,0.0,0.0,0.0,0.0,0.0,0.0,0.0,0.0,0.0,0.0,0.0,0.0,0.0,0.0,0.0,0.0,0.0,0.0,1.9606,1.972,2.0007,2.004,2.0094,0.0,0.0,0.0,0.0,0.0,0.0,0.0,0.0,0.0,2.0915,2.0915,2.0982,2.1109,2.1109,2.1109,2.1109,2.1109,2.1109,2.1109,2.1109,2.1109,2.1109,2.1109,2.0982,2.0856,2.0736,2.0482,2.0094,0.0,0.0,0.0,0.0,1.9717,1.9839,0.0,0.0,0.0,0.0,0.0,0.0,0.0,0.0,0.0,0.0,0.0,0.0,1.4614,1.5564,1.6161,1.652,1.652,1.6397,1.6161,1.6402,1.6402,1.6042,1.6397,1.6991,1.7929,1.8046,1.8409,1.9366,1.9366,1.9366,1.9366,1.9366,1.9366,1.9366,1.9366,1.9366,1.9366,1.9366,1.9366,1.9366,0.0,0.0,0.0,0.0,0.0,0.0,0.0,0.0,0.0,0.0,0.0,0.0,0.0,0.0,0.0,0.0,0.0,0.0,0.0,0.0,0.0,0.0,0.0,0.0,0.0,0.0,0.0,0.0,0.0,0.0,0.0,0.0,0.0,0.0,0.0,0.0,0.0,1.9913,2.002,2.0307,2.0347,2.0374,0.0,0.0,0.0,0.0,0.0,0.0,2.0788,2.0989,2.1109,2.1109,2.1109,2.1109,2.1109,2.1109,2.1109,2.1109,2.1109,2.1109,2.1109,2.1109,2.1109,2.1109,2.1109,2.1109,2.1109,2.0862,2.0736,2.0609,2.0361,2.0234,2.0106,2.0106,2.0106,2.0234,0.0,0.0,0.0,0.0,0.0,0.0,0.0,0.0,0.0,0.0,0.0,1.5924,1.722,1.7337,1.7929,1.9127,1.9249,1.8648,1.7455,1.8532,1.8648,1.7455,1.8532,1.9249,1.9249,1.9249,1.9366,1.9366,1.9366,1.9366,1.9366,1.9366,1.9366,1.9366,1.9366,1.9366,1.9366,1.9366,1.9366,1.9366,1.9366,0.0,0.0,0.0,0.0,0.0,0.0,0.0,0.0,0.0,0.0,0.0,0.0,0.0,0.0,0.0,0.0,0.0,0.0,0.0,0.0,0.0,0.0,0.0,0.0,0.0,0.0,0.0,0.0,0.0,0.0,0.0,0.0,0.0,0.0,0.0,0.0,0.0,0.0,2.0621,2.0655,0.0,0.0,0.0,0.0,2.1062,2.1082,2.1089,2.1089,2.1102,2.1109,2.1109,2.1109,2.1109,2.1109,2.1109,2.1109,2.1109,2.1109,2.1109,2.1109,2.1109,2.1109,2.1109,2.1109,2.1109,2.1109,2.1109,2.0862,2.0609,2.0609,2.0361,2.0106,2.0106,2.0361,2.0609,0.0,0.0,0.0,0.0,0.0,1.4619,1.3784,1.3665,1.3904,1.4262,1.5095,1.6042,1.7331,1.8286,1.8887,1.9366,1.9366,1.9243,1.8765,1.9127,1.9243,1.8765,1.9127,1.9366,1.9366,1.9553,1.9646,1.9646,1.9833,1.992,1.992,1.992,1.992,1.992,1.992,1.992,1.99,1.9526,1.9366,1.9366,1.9366,1.9366,0.0,0.0,0.0,0.0,0.0,0.0,0.0,0.0,0.0,0.0,0.0,0.0,0.0,0.0,0.0,0.0,0.0,0.0,0.0,0.0,0.0,0.0,0.0,0.0,0.0,0.0,0.0,0.0,0.0,0.0,0.0,0.0,0.0,0.0,0.0,0.0,0.0,2.0922,2.0955,0.0,2.1096,2.1109,2.1109,2.1109,2.1109,2.1109,2.1109,2.1109,2.1109,2.1109,2.1109,2.1109,2.1109,2.1109,2.1109,2.1109,2.1109,2.1109,2.1109,2.1109,2.1109,2.1109,2.1109,2.1109,2.1109,2.1109,2.0982,2.0856,2.0856,2.0856,2.0729,2.0729,2.0856,2.0856,0.0,0.0,0.0,0.0,0.0,1.4857,1.4381,1.4381,1.4495,1.4971,1.6042,1.7226,1.8052,1.8887,1.9366,1.9366,1.9366,1.9366,1.9366,1.9366,1.9366,1.9366,1.9459,1.9512,1.9512,1.98,1.9947,1.9947,2.014,2.0234,2.0234,2.0234,2.0234,2.0234,2.0234,2.0234,2.0207,1.982,1.9659,1.9659,1.9659,1.9659,1.9659,0.0,0.0,0.0,0.0,0.0,0.0,0.0,0.0,0.0,0.0,0.0,0.0,0.0,0.0,0.0,0.0,0.0,0.0,0.0,0.0,0.0,0.0,0.0,0.0,0.0,0.0,0.0,0.0,0.0,0.0,0.0,0.0,0.0,0.0,0.0,2.0895,2.1089,2.1109,2.1109,2.1109,2.1109,2.1109,2.1109,2.1109,2.1109,2.1109,2.1109,2.1109,2.1109,2.1109,2.1109,2.1109,2.1109,2.1162,2.1256,2.1256,2.1309,2.1403,2.1303,2.1256,2.1256,2.1156,2.1109,2.1109,2.1109,2.1109,2.1109,2.1109,2.1109,2.1109,2.1109,2.1109,2.1109,0.0,0.0,0.0,0.0,0.0,1.4262,1.5451,1.5575,1.6042,1.7337,1.8532,1.9366,1.9366,1.9366,1.9366,1.9366,1.9366,1.9366,1.9366,1.9366,1.9372,1.9379,1.9646,1.9806,1.9813,2.01,2.0247,2.0247,2.0254,2.0261,2.0261,2.0261,2.0261,2.0261,2.0261,2.0261,2.0261,2.0261,2.0261,2.0261,2.0241,2.0234,2.0234,0.0,0.0,0.0,0.0,0.0,0.0,0.0,0.0,0.0,0.0,0.0,0.0,0.0,0.0,0.0,0.0,0.0,0.0,0.0,0.0,0.0,0.0,0.0,0.0,0.0,0.0,0.0,0.0,0.0,0.0,0.0,0.0,0.0,2.1109,2.1109,2.1109,2.1109,2.1109,2.1109,2.1109,2.1109,2.1109,2.1109,2.1109,2.1109,2.1109,2.1116,2.1122,2.1122,2.1129,2.1136,2.1136,2.1136,2.1283,2.157,2.157,2.1717,2.1977,2.1697,2.157,2.155,2.1263,2.1136,2.1136,2.1136,2.1136,2.1136,2.1116,2.1109,2.1109,2.1109,2.1109,2.1109,0.0,0.0,0.0,1.6626,1.6503,1.6626,1.6862,1.6161,1.6042,1.7337,1.7812,1.8409,1.9249,1.9366,1.9366,1.9366,1.9366,1.9366,1.9366,1.9366,1.9459,1.9673,1.976,1.99,2.0107,2.0401,2.0555,2.0555,2.0762,2.0869,2.0869,2.0869,2.0869,2.0869,2.0869,2.0869,2.0869,2.0869,2.0869,2.0828,2.0408,2.0234,2.0234,0.0,0.0,0.0,0.0,0.0,0.0,0.0,0.0,0.0,0.0,0.0,0.0,0.0,0.0,0.0,0.0,0.0,0.0,0.0,0.0,0.0,0.0,0.0,0.0,0.0,0.0,0.0,0.0,0.0,0.0,0.0,2.1109,2.1109,2.1109,2.1109,2.1109,2.1109,2.1109,2.1109,2.1109,2.1109,2.1109,2.1109,2.1109,2.1109,2.1109,2.1309,2.143,2.143,2.1637,2.1744,2.1744,2.1744,2.1784,2.1864,2.1864,2.1911,2.1984,2.1904,2.1864,2.1864,2.1784,2.1744,2.1744,2.1744,2.1744,2.1704,2.1276,2.1109,2.1109,2.1109,2.1109,2.1109,0.0,0.0,0.0,1.7689,1.7103,1.6862,1.7455,1.6397,1.6042,1.7337,1.7929,1.8532,1.9366,1.9366,1.9366,1.9366,1.9366,1.9366,1.9366,1.9486,1.9626,1.9793,2.004,2.0247,2.0414,2.0708,2.0855,2.0855,2.1029,2.1109,2.1109,2.1109,2.1109,2.1109,2.1109,2.1109,2.1109,2.1109,2.1109,2.1082,2.0735,2.0601,2.0601,2.0601,2.0601,2.0601,2.0601,2.0521,2.0421,2.0421,0.0,0.0,0.0,0.0,0.0,0.0,0.0,0.0,0.0,0.0,0.0,0.0,0.0,0.0,0.0,0.0,0.0,0.0,0.0,0.0,0.0,0.0,0.0,0.0,2.1109,2.1109,2.1109,2.1109,2.1109,2.1109,2.1109,2.1109,2.1109,2.1109,2.1109,2.1109,2.1223,2.1296,2.1296,2.1577,2.1737,2.1737,2.1897,2.1984,2.1984,2.1984,2.2044,2.2164,2.2164,2.2231,2.2345,2.2225,2.2164,2.2158,2.2038,2.1984,2.1984,2.1984,2.1984,0.0,0.0,0.0,0.0,0.0,2.1476,2.1476,0.0,0.0,0.0,1.7929,1.6632,1.6279,1.7572,1.6632,1.6279,1.7578,1.8648,1.9366,1.9366,1.9366,1.9366,1.9366,1.9366,1.9366,1.9366,1.9639,1.9813,1.9846,2.0381,2.0688,2.0722,2.0975,2.1109,2.1109,2.1109,2.1109,2.1109,2.1109,2.1109,2.1109,2.1109,2.1109,2.1109,2.1109,2.1109,2.1109,2.1109,2.1109,2.1109,2.1109,2.1109,2.1109,2.1109,2.0942,2.0728,2.0728,0.0,0.0,0.0,0.0,0.0,0.0,0.0,0.0,0.0,0.0,0.0,0.0,0.0,0.0,0.0,0.0,0.0,0.0,0.0,0.0,0.0,0.0,0.0,0.0,2.1109,2.1109,2.1109,2.1109,2.1109,2.1109,2.1109,2.1109,2.1109,2.1136,2.1162,2.1162,2.1436,2.1603,2.1603,0.0,0.0,0.0,0.0,2.2104,2.2138,2.2138,2.2285,2.2572,2.2572,2.2706,2.2953,2.2659,2.2519,2.2505,2.2211,2.2084,2.2084,2.2084,2.2084,2.2078,2.2011,2.1984,2.1984,2.1984,2.1984,2.1984,0.0,0.0,1.9366,1.9127,1.7935,1.7578,1.8887,1.7935,1.7578,1.8887,1.9249,1.9366,1.9366,1.9366,1.9366,1.9366,1.9366,1.9366,1.9366,1.9639,1.9907,2.014,2.0488,2.0782,2.1022,2.1082,2.1109,2.1109,2.1109,2.1109,2.1109,2.1109,2.1109,2.1109,2.1109,2.1109,2.1109,2.1109,2.1109,2.1109,2.1109,2.1109,2.1109,2.1109,2.1109,2.1109,2.1109,2.1076,2.1029,2.1029,2.0989,2.0942,2.0942,2.0942,0.0,0.0,0.0,0.0,0.0,0.0,0.0,0.0,0.0,0.0,0.0,0.0,0.0,0.0,0.0,0.0,0.0,0.0,0.0,2.1109,2.1109,2.1109,2.1109,2.1109,2.1109,2.1109,2.1109,2.1109,2.1109,2.1329,2.147,2.147,2.1737,2.1904,2.1904,2.2178,2.2338,2.2338,2.2565,2.2812,2.3066,2.3066,2.322,2.3507,0.0,0.0,2.3587,2.3287,2.3153,2.3133,2.2826,2.2692,2.2692,2.2692,2.2692,2.2645,2.2171,2.1984,2.1984,2.1984,2.1984,2.1984,0.0,1.9004,1.9366,1.9366,1.8409,1.7929,1.9243,1.8286,1.7929,1.9243,1.9366,1.9366,1.9366,1.9366,1.9366,1.9366,1.9366,1.9366,1.9366,1.9773,2.008,2.0227,2.0655,2.0962,2.1109,2.1109,2.1109,2.1109,2.1109,2.1109,2.1109,2.1109,2.1109,2.1109,2.1109,2.1109,2.1109,2.1109,2.1235,2.1362,2.1109,2.1235,2.1362,2.1109,2.1109,2.1109,2.1109,2.1109,2.1109,2.1109,2.1109,2.1109,2.1109,2.1109,2.1109,0.0,0.0,0.0,0.0,0.0,0.0,0.0,0.0,0.0,0.0,0.0,0.0,0.0,0.0,2.1109,2.1109,0.0,2.1109,2.1109,2.1109,2.1109,2.1109,2.1109,2.1109,2.1109,2.1109,2.1169,2.1316,2.1463,2.1617,2.1757,2.2038,2.2205,2.2205,2.2632,2.2873,2.2873,2.316,2.3394,2.3547,2.3547,2.3621,2.3774,2.3774,2.3774,2.3768,2.3614,2.3547,2.3541,2.3387,2.3233,2.3086,2.2926,2.2859,2.2832,2.2539,2.2425,2.2425,2.2425,2.2425,2.2425,0.0,0.0,1.9366,1.9366,1.8525,1.8169,1.9243,1.8525,1.8292,1.9249,1.9366,1.9366,1.9366,1.9366,1.9366,1.9366,1.9366,1.9366,1.9366,1.9913,2.0234,2.0234,2.0795,2.1109,2.1109,2.1109,2.1109,2.1109,2.1109,2.1109,2.1109,2.1109,2.1109,2.1109,2.1109,2.1109,2.1109,2.1109,2.1362,2.1607,2.1362,2.1355,2.1607,2.1362,2.1109,2.1109,2.1109,2.1109,2.1109,2.1109,2.1109,2.1109,2.1109,2.1109,2.1109,2.1109,2.1109,0.0,0.0,0.0,0.0,0.0,0.0,0.0,0.0,0.0,2.1109,2.1109,2.1109,2.1109,2.1109,2.1109,2.1109,2.1109,2.1109,2.1109,2.1109,2.1109,2.1129,2.1189,2.1196,2.1289,2.153,2.1657,2.1817,2.2051,2.2338,2.2532,2.2592,2.306,2.3354,2.3414,2.3647,2.3801,2.3855,2.3855,2.3881,2.3941,2.3941,2.3941,2.3935,2.3881,2.3855,2.3848,2.3794,2.3634,2.3394,2.3146,2.3006,2.2953,2.2953,2.2919,2.2859,2.2859,2.2859,2.2859,0.0,0.0,0.0,1.9366,1.9249,1.9243,1.9366,1.9249,1.9243,1.9366,1.9366,1.9366,1.9366,1.9366,1.9366,1.9366,1.9366,1.9366,1.9366,1.9913,2.0234,2.0234,2.0795,2.1109,2.1109,2.1109,2.1109,2.1109,2.1109,2.1109,2.1109,2.1109,2.1109,2.1109,2.1109,2.1109,2.1109,2.1355,2.1607,2.1607,2.1859,2.1859,2.1607,2.1607,2.1362,2.1109,2.1109,2.1109,2.1109,2.1109,2.1109,2.1109,2.1109,2.1109,2.1109,2.1109,0.0,2.1109,2.1109,2.1109,2.1109,2.1109,2.1109,2.1109,0.0,0.0,2.1109,2.1109,2.1109,2.1109,2.1109,2.1109,2.1109,2.1109,2.1109,2.1109,2.1109,2.1109,2.1209,2.147,2.1503,2.1516,2.155,2.2017,2.2338,2.2365,2.2645,2.2933,2.3213,2.3293,2.3447,2.3714,2.3754,2.3895,2.4155,2.4155,2.4282,2.4536,2.4536,2.4536,2.4529,2.4269,2.4155,2.4142,2.3881,2.3754,2.3721,2.3681,2.3514,2.3273,2.3273,2.3106,2.2859,2.2859,2.2859,2.2859,0.0,0.0,0.0,1.9366,1.9366,1.9366,1.9366,1.9366,1.9366,1.9366,1.9366,1.9366,1.9366,1.9366,1.9366,1.9366,1.9366,1.9366,1.9366,1.9753,2.0054,2.0227,2.0635,2.0935,2.1109,2.1109,2.1109,2.1109,2.1109,2.1109,2.1109,2.1109,2.1109,2.1109,2.1109,2.1235,2.1362,2.1481,2.1859,2.2237,2.2111,2.2111,2.2111,2.1734,2.1481,2.1355,2.1109,2.1109,0.0,2.1109,2.1109,2.1109,2.1109,2.1109,2.1109,2.1109,2.1109,0.0,2.1109,2.1109,0.0,0.0,2.1109,2.1109,2.1109,2.1109,2.1109,2.1109,2.1109,2.1109,2.1109,2.1109,2.1109,0.0,2.1109,2.1169,2.1343,2.137,2.1476,2.177,2.1951,2.2058,2.2058,2.2278,2.2492,2.2665,2.2959,2.3193,2.332,2.3654,2.3895,2.4022,2.4182,2.4335,2.4456,2.4456,2.4516,2.4636,2.4636,2.4636,2.4636,2.4509,2.4456,2.4436,2.4148,2.4022,2.4008,2.3841,2.3694,2.3587,2.3587,2.34,2.3113,2.2933,2.2859,2.2859,0.0,0.0,0.0,1.9366,1.9366,1.9366,1.9366,1.9366,1.9366,1.9366,1.9366,1.9366,1.9366,1.9366,1.9366,1.9366,1.9366,1.9366,1.9366,1.9639,1.9927,2.0221,2.0514,2.0815,2.1102,2.1109,2.1109,2.1109,2.1109,2.1109,2.1109,2.1109,2.1109,2.1109,2.1109,2.1235,2.1481,2.1607,2.1985,2.2487,2.2362,2.2362,2.2362,2.1859,2.1607,2.1488,2.1235,2.1109,2.1109,2.1109,2.1109,2.1109,2.1109,2.1109,2.1109,2.1109,2.1109,2.1109,2.1109,0.0,0.0,2.1109,2.1109,2.1109,2.1109,2.1109,2.1109,2.1109,2.1109,2.1109,2.1109,2.1109,2.1136,2.1216,2.1229,2.1336,2.163,2.167,2.1777,2.2071,2.2291,2.2452,2.2532,2.2539,2.2665,2.2966,2.32,2.3394,2.3561,2.3975,2.4242,2.4322,2.4529,2.4636,2.4636,2.4636,2.4636,2.4636,2.4636,2.4636,2.4636,2.4636,2.4636,2.4623,2.4409,2.4322,2.4309,2.4095,2.3961,2.3888,2.3888,2.3708,2.3414,2.3106,2.2939,2.2859,0.0,0.0,0.0,0.0,1.9366,1.9366,1.9366,1.9366,1.9366,1.9366,1.9366,1.9366,1.9366,1.9366,1.9366,1.9366,1.9366,1.9366,1.9366,1.9639,1.9927,2.0221,2.0514,2.0815,2.1102,2.1109,2.1109,2.1109,2.1109,2.1109,2.1109,2.1109,2.1109,2.1109,2.1109,2.1109,2.1109,2.1859,2.2111,2.2111,2.2863,2.2738,2.2104,2.2111,2.1734,2.1109,2.1109,2.1109,2.1109,2.1109,2.1109,2.1109,2.1109,2.1109,0.0,2.1109,2.1109,2.1109,0.0,0.0,2.1109,2.1109,2.1109,2.1109,2.1109,2.1109,2.1109,2.1109,2.1109,2.1109,2.1109,2.1109,2.1203,2.1496,2.1537,2.1637,2.1931,2.1971,2.2078,2.2372,2.2412,2.2532,0.0,2.2846,2.2979,2.3293,2.3327,2.3574,2.4142,2.4195,2.4335,2.4616,2.4636,2.4636,2.4636,2.4636,2.4636,2.4636,2.4636,2.4636,2.4636,2.4636,2.4636,2.4636,2.4623,2.4623,2.4623,2.4616,2.4442,2.4189,2.4189,2.4015,2.3721,2.342,2.312,2.2859,0.0,0.0,0.0,0.0,0.0,1.9366,1.9366,1.9366,1.9366,1.9366,1.9366,0.0,0.0,0.0,0.0,0.0,1.9366,1.9366,1.9366,1.9459,1.9639,1.9933,2.0227,2.0521,2.0815,2.1009,2.1109,2.1109,2.1109,2.1109,2.1109,2.1109,2.1109,2.1109,2.1109,2.1235,2.1488,2.1859,2.2237,2.248,2.2856,2.2981,2.2731,2.2237,2.1985,2.1734,0.0,2.1109,2.1109,2.1109,2.1109,2.1109,2.1109,2.1109,2.1109,2.1109,2.1109,2.1109,2.1109,0.0,2.1109,2.1109,2.1109,2.1109,2.1109,2.1109,2.1109,2.1109,2.1109,2.1169,2.137,2.1403,2.1503,2.1797,2.1844,2.1944,2.2231,2.2271,2.2378,2.2679,2.2712,0.0,0.0,0.0,0.0,2.33,2.3507,2.3794,2.4182,2.4389,2.4536,2.4636,2.4636,2.4636,2.4636,2.4636,2.4636,2.4636,2.4636,2.4636,2.4636,2.4636,2.4636,2.4636,2.4636,2.4636,2.4636,2.4636,2.4576,2.4489,2.4489,2.4309,2.4042,2.3948,2.3594,2.314,0.0,0.0,0.0,0.0,0.0,0.0,0.0,0.0,0.0,0.0,0.0,0.0,0.0,0.0,0.0,0.0,0.0,1.9366,1.9366,1.9366,1.9546,1.994,2.0134,2.0421,2.0822,2.1015,2.1109,2.1109,2.1109,2.1109,2.1109,2.1109,2.1109,2.1109,2.1109,2.1235,2.1607,2.1985,2.223,2.2613,2.2981,2.2988,2.2863,2.2362,2.1985,0.0,2.1362,2.1109,2.1109,2.1109,2.1109,2.1109,2.1109,2.1109,2.1109,2.1109,2.1109,2.1109,2.1109,2.1109,2.1109,2.1109,2.1109,2.1109,2.1109,2.1109,2.1109,2.1109,2.1196,2.1329,2.1516,2.1637,2.1804,2.2091,2.2138,2.2245,2.2539,2.2579,2.2645,2.2839,2.2859,2.2859,0.0,0.0,0.0,2.3467,2.3761,2.4055,2.4342,2.4536,2.4636,2.4636,2.4636,2.4636,2.4636,2.4636,2.4636,2.4636,2.4636,2.4636,2.4636,2.4636,2.4636,2.4636,2.4636,2.4636,2.4636,2.4636,2.4636,2.4636,2.4636,2.4523,2.4342,2.4242,2.3968,2.3581,0.0,0.0,0.0,0.0,0.0,0.0,0.0,0.0,0.0,0.0,0.0,0.0,0.0,0.0,0.0,0.0,0.0,0.0,1.9366,1.9366,1.9613,2.0167,2.0221,2.0494,2.1049,2.1096,2.1109,2.1109,2.1109,2.1109,2.1109,2.1109,2.1109,2.1109,2.1109,2.1362,2.1607,2.1985,2.2362,2.2613,2.2981,2.2856,2.2606,2.2237,2.1859,2.1607,2.1235,2.1109,2.1109,2.1109,2.1109,2.1109,2.1109,2.1109,2.1109,2.1109,2.1109,2.1109,2.1109,2.1109,2.1109,2.1109,2.1109,2.1109,2.1109,2.1109,2.1109,2.1109,2.1349,2.1557,0.0,0.0,2.2104,2.2392,2.2438,2.2539,2.2819,2.2859,2.2859,0.0,0.0,0.0,0.0,0.0,0.0,2.3748,0.0,2.4329,2.4623,2.4636,2.4636,2.4636,2.4636,2.4636,2.4636,2.4636,2.4636,2.4636,2.4636,2.4636,2.4636,2.4636,2.4636,2.4636,2.4636,2.4636,2.4636,2.4636,2.4636,2.4636,2.4636,2.4636,2.4603,2.4329,2.4215,2.4122,0.0,0.0,0.0,0.0,0.0,0.0,0.0,0.0,0.0,0.0,0.0,0.0,0.0,0.0,0.0,0.0,0.0,0.0,1.9366,1.9366,1.9432,1.9579,2.0,2.0301,2.0454,2.0889,2.1109,2.1109,2.1362,2.1481,2.1481,2.1481,2.1481,2.1481,2.1481,2.1481,2.1607,2.2237,2.248,2.2613,2.2981,2.2856,2.2606,2.2237,2.1859,2.1607,2.1235,2.1109,2.1109,2.1109,2.1109,2.1109,2.1109,2.1109,2.1109,2.1109,2.1109,2.1109,2.1109,2.1109,2.1109,2.1109,2.1109,2.1109,2.1109,2.1109,2.1109,2.1109,2.1349,2.1617,0.0,0.0,0.0,2.2699,2.2746,0.0,2.2853,2.2859,0.0,2.2859,0.0,2.2859,2.2859,2.3347,0.0,0.0,2.4042,2.4329,2.4623,2.4636,2.4636,2.4636,2.4636,2.4636,2.4636,2.4636,2.4636,2.4636,2.4636,2.4636,2.4636,2.4636,2.4636,2.4636,2.4636,2.4636,2.4636,2.4636,2.4636,2.4636,2.4636,2.4636,2.4629,2.4556,2.4389,2.4182,0.0,0.0,0.0,0.0,0.0,0.0,0.0,0.0,0.0,0.0,0.0,0.0,0.0,0.0,0.0,0.0,0.0,0.0,0.0,1.9366,1.9426,1.9553,1.9867,2.016,2.0421,2.0748,2.0982,2.1109,2.1229,2.1362,2.1362,2.1481,2.1607,2.1607,2.1734,2.1859,2.2104,2.248,2.2738,0.0,0.0,2.2988,2.2731,2.2237,2.1985,2.1734,2.1235,2.1109,2.1109,0.0,0.0,2.1109,2.1109,2.1109,2.1109,2.1109,0.0,2.1109,2.1109,2.1109,2.1109,2.1109,2.1109,2.1109,2.1109,2.1109,2.1109,2.1109,2.145,0.0,2.1957,2.2331,0.0,0.0,0.0,0.0,2.2859,2.2859,2.2859,0.0,2.2859,0.0,2.2859,2.3414,2.3774,0.0,2.4155,2.4462,2.4629,2.4636,2.4636,2.4636,2.4636,2.4636,2.4636,2.4636,2.4636,2.4636,2.4636,2.4636,2.4636,2.4636,2.4636,2.4636,0.0,2.4636,2.4636,2.4636,2.4636,2.4636,2.4636,2.4636,2.4636,2.4636,2.4529,2.4376,0.0,0.0,0.0,0.0,0.0,0.0,0.0,0.0,0.0,0.0,1.9366,1.9366,0.0,0.0,0.0,0.0,0.0,0.0,0.0,0.0,1.9479,1.9733,1.978,2.004,2.0548,2.0635,2.0802,2.1049,2.1215,2.1235,2.1109,2.1488,2.1607,2.1607,2.1985,2.2237,2.248,2.2613,2.2731,2.2981,2.2981,2.2988,2.2856,0.0,2.2111,2.1985,2.1362,2.1109,2.1109,2.1109,2.1109,2.1109,2.1109,2.1109,2.1109,2.1109,2.1109,2.1109,2.1109,2.1109,2.1109,2.1109,2.1109,2.1109,2.1109,2.1109,2.1109,2.1109,0.0,2.1984,2.1984,2.2465,2.2859,2.2859,0.0,2.2859,2.2859,2.2859,2.2859,2.2859,2.2859,2.2879,2.2919,2.3434,2.3788,2.3828,2.4329,2.4636,2.4636,2.4636,2.4636,2.4636,2.4636,2.4636,2.4636,2.4636,2.4636,2.4636,2.4636,2.4636,2.4636,2.4636,2.4636,2.4636,2.4636,2.4636,2.4636,2.4636,2.4636,2.4636,2.4636,2.4636,2.4636,2.4636,2.4636,2.4603,0.0,0.0,0.0,0.0,0.0,0.0,0.0,0.0,0.0,0.0,1.9366,1.9366,0.0,0.0,0.0,0.0,0.0,0.0,0.0,0.0,0.0,1.9439,1.9673,1.9846,1.9947,2.0428,2.0702,2.0755,2.1491,2.1734,2.1481,2.1859,2.1859,2.1607,2.1985,2.1985,2.1859,2.2355,2.248,2.2362,2.2613,2.248,2.2237,2.2111,0.0,0.0,2.1235,2.1109,2.1109,2.1109,2.1109,2.1109,2.1109,2.1109,2.1109,2.1109,2.1109,2.1109,2.1109,2.1109,2.1109,2.1109,2.1109,2.1109,2.1109,2.1109,0.0,0.0,2.1577,2.1984,2.1984,2.2465,2.2859,2.2859,2.2859,2.2859,2.2859,2.2859,2.2859,0.0,2.2859,2.2966,0.0,0.0,0.0,0.0,2.4442,2.4636,2.4636,2.4636,2.4636,2.4636,2.4636,2.4636,2.4636,2.4636,2.4636,2.4636,2.4636,2.4636,2.4636,2.4636,2.4636,2.4636,2.4636,0.0,2.4636,2.4636,2.4636,2.4636,2.4636,2.4636,2.4636,2.4636,2.4636,2.4629,0.0,0.0,0.0,0.0,0.0,0.0,0.0,1.9366,1.9366,1.9366,1.9366,1.9366,1.9366,1.9366,1.9366,0.0,0.0,0.0,0.0,0.0,0.0,0.0,1.9499,1.9646,1.98,2.008,2.0368,2.0675,0.0,2.1457,2.1607,2.1734,2.1859,2.1859,2.1985,2.1985,2.1859,2.2237,2.2237,2.2104,2.2237,2.223,2.2111,0.0,0.0,0.0,0.0,2.1109,2.1109,2.1109,2.1109,2.1109,2.1109,2.1109,2.1109,2.1109,2.1109,2.1109,2.1109,2.1109,2.1109,2.1109,2.1109,2.1109,2.1109,0.0,0.0,0.0,2.1577,2.1984,2.1984,2.2465,0.0,2.2859,2.2859,2.2859,2.2859,2.2859,2.2859,2.2859,2.2859,2.2986,0.0,2.3594,2.3888,2.4182,2.4476,2.4636,2.4636,2.4636,2.4636,2.4636,2.4636,2.4636,2.4636,2.4636,2.4636,2.4636,2.4636,2.4636,2.4636,2.4636,2.4636,2.4636,2.4636,0.0,2.4636,2.4636,2.4636,2.4636,2.4636,2.4636,2.4636,2.4636,2.4636,2.4636,0.0,0.0,0.0,0.0,0.0,0.0,1.9366,1.9366,1.9366,1.9366,1.9366,1.9366,1.9366,1.9366,1.9366,0.0,0.0,0.0,0.0,0.0,0.0,0.0,0.0,0.0,0.0,0.0,0.0,2.0488,2.0738,0.0,0.0,0.0,0.0,0.0,2.1985,2.1985,2.1859,2.1985,2.1985,0.0,0.0,2.1985,0.0,0.0,0.0,0.0,0.0,2.1109,2.1109,2.1109,2.1109,2.1109,2.1109,2.1109,2.1109,2.1109,2.1109,2.1109,2.1109,2.1109,2.1109,2.1109,2.1109,2.1109,2.1109,2.1109,0.0,2.1109,2.1577,2.1984,2.1984,2.2465,2.2859,0.0,2.2859,2.2859,2.2859,2.2859,2.2859,0.0,2.2859,0.0,2.3387,2.3634,0.0,2.4269,2.4509,2.4636,2.4636,2.4636,2.4636,2.4636,2.4636,2.4636,2.4636,2.4636,2.4636,2.4636,2.4636,2.4636,2.4636,2.4636,2.4636,2.4636,2.4636,0.0,2.4636,2.4636,2.4636,2.4636,2.4636,2.4636,2.4636,2.4636,2.4636,2.4636,0.0,0.0,0.0,0.0,0.0,0.0,1.9366,1.9366,1.9366,1.9366,1.9366,1.9366,1.9366,1.9366,1.9366,0.0,0.0,0.0,0.0,0.0,0.0,0.0,0.0,0.0,0.0,0.0,0.0,1.988,2.0781,0.0,0.0,0.0,0.0,0.0,0.0,2.1734,2.1235,2.1859,0.0,0.0,0.0,0.0,0.0,0.0,0.0,0.0,0.0,2.1109,2.1109,0.0,0.0,2.1109,2.1109,2.1109,2.1109,2.1109,0.0,0.0,2.1109,2.1109,2.1109,2.1109,2.1109,2.1109,2.1109,0.0,2.1109,2.1109,2.1577,2.1984,2.1984,2.2465,2.2859,0.0,0.0,2.2859,2.2859,2.2859,2.2859,2.2859,0.0,0.0,2.3674,2.3754,2.4001,2.4556,2.4623,2.4636,2.4636,2.4636,2.4636,2.4636,2.4636,2.4636,2.4636,2.4636,2.4636,2.4636,2.4636,2.4636,2.4636,2.4636,2.4636,2.4636,2.4636,0.0,0.0,2.4636,2.4636,2.4636,2.4636,2.4636,2.4636,2.4636,2.4636,2.4636,0.0,0.0,0.0,0.0,0.0,0.0,1.9366,1.9366,1.9366,1.9366,1.9366,1.9366,1.9366,1.9366,1.9366,1.9366,0.0,0.0,0.0,0.0,0.0,0.0,0.0,0.0,0.0,0.0,1.9626,1.98,2.0154,0.0,0.0,0.0,0.0,0.0,0.0,2.1362,2.1109,2.1362,0.0,0.0,0.0,0.0,0.0,0.0,0.0,0.0,0.0,0.0,2.1109,2.1109,0.0,0.0,2.1109,2.1109,0.0,0.0,2.1109,2.1109,2.1109,2.1109,2.1109,2.1109,2.1109,2.1109,2.1109,0.0,2.1109,2.1109,2.1577,2.1984,2.1984,2.2465,2.2859,2.2859,2.2859,0.0,2.2859,2.2859,2.2859,2.2859,2.2859,0.0,0.0,0.0,2.4015,2.4596,2.4636,2.4636,2.4636,2.4636,2.4636,2.4636,2.4636,2.4636,2.4636,2.4636,2.4636,2.4636,2.4636,2.4636,2.4636,2.4636,2.4636,2.4636,2.4636,0.0,0.0,2.4636,2.4636,2.4636,2.4636,2.4636,2.4636,2.4636,2.4636,2.4636,0.0,0.0,0.0,0.0,0.0,1.9366,1.9366,1.9366,1.9366,1.9366,1.9366,1.9366,1.9366,1.9366,1.9366,1.9366,1.9366,0.0,0.0,0.0,0.0,0.0,0.0,0.0,0.0,0.0,1.9466,1.9673,1.976,2.0127,0.0,0.0,2.0906,2.1359,0.0,0.0,0.0,0.0,0.0,0.0,0.0,0.0,0.0,0.0,0.0,0.0,0.0,0.0,0.0,0.0,0.0,0.0,2.1109,2.1109,2.1109,2.1109,2.1109,2.1109,2.1109,2.1109,2.1109,2.1109,2.1109,2.1109,0.0,0.0,2.1109,2.1109,2.1577,2.1984,2.1984,2.2465,2.2859,2.2859,2.2859,2.2859,2.2859,2.2859,2.2996,2.3536,0.0,2.3873,0.0,2.4201,2.4195,2.4603,2.4636,2.4636,2.4636,2.4636,2.4636,2.4636,2.4636,2.4636,2.4636,2.4636,2.4636,2.4636,2.4636,2.4636,2.4636,2.4636,2.4636,2.4636,2.4636,2.4636,0.0,2.4636,2.4636,2.4636,2.4636,2.4636,2.4636,2.4636,2.4636,2.4636,0.0,0.0,0.0,0.0,0.0,0.0,1.9366,1.9366,1.9366,1.9366,1.9366,1.9366,1.9366,1.9366,1.9366,1.9366,1.9366,0.0,0.0,0.0,0.0,0.0,0.0,0.0,0.0,0.0,1.9366,1.9372,1.9659,1.9806,1.982,2.0401,2.0675,2.0695,0.0,0.0,0.0,0.0,0.0,0.0,0.0,0.0,0.0,0.0,0.0,0.0,0.0,0.0,0.0,0.0,0.0,0.0,0.0,2.1109,2.1109,2.1109,2.1109,2.1109,2.1109,2.1109,2.1109,2.1109,2.1109,2.1109,0.0,2.1109,2.1109,2.1109,2.1577,2.1984,2.1984,2.2465,2.2859,2.2859,2.2859,2.2859,2.2859,2.2859,2.34,0.0,0.0,2.56,2.5797,2.5132,2.4629,2.4636,2.4636,0.0,2.4636,2.4636,2.4636,2.4636,2.4636,2.4636,2.4636,2.4636,2.4636,2.4636,2.4636,2.4636,2.4636,2.4636,2.4636,2.4636,2.4636,2.4636,0.0,2.4636,2.4636,2.4636,2.4636,2.4636,2.4636,2.4636,2.4636,2.4636,0.0,0.0,0.0,0.0,0.0,0.0,1.9366,1.9366,1.9366,1.9366,1.9366,1.9366,1.9366,1.9366,1.9366,1.9366,1.9366,0.0,0.0,0.0,0.0,0.0,0.0,0.0,0.0,0.0,1.9366,1.9366,1.9459,1.9606,1.9806,1.9993,2.018,2.0388,2.0805,2.094,0.0,0.0,0.0,0.0,0.0,0.0,0.0,0.0,0.0,0.0,0.0,0.0,0.0,0.0,0.0,0.0,0.0,0.0,0.0,2.1109,2.1109,2.1109,2.1109,2.1109,2.1109,2.1109,2.1109,2.1109,2.1109,2.1109,2.1109,2.1109,2.1577,2.1984,2.1984,2.2465,2.2859,2.2859,2.2859,2.2859,0.0,0.0,0.0,2.3536,2.4932,2.5437,0.0,0.0,2.5793,2.4636,2.4636,2.4636,2.4636,2.4636,2.4636,2.4636,2.4636,2.4636,2.4636,2.4636,2.4636,2.4636,2.4636,2.4636,2.4636,2.4636,2.4636,2.4636,2.4636,2.4636,2.4636,2.4636,2.4636,2.4636,2.4636,2.4636,2.4636,2.4636,2.4636,2.4636,0.0,0.0,0.0,0.0,0.0,0.0,1.9366,1.9366,1.9366,1.9366,1.9366,1.9366,1.9366,1.9366,1.9366,1.9366,1.9366,0.0,0.0,0.0,0.0,0.0,0.0,0.0,1.9366,1.9366,1.9366,1.9366,1.9366,1.9459,1.9639,1.9746,1.99,2.008,2.0381,2.0508,0.0,0.0,0.0,0.0,0.0,0.0,2.0949,0.0,0.0,0.0,0.0,0.0,0.0,0.0,0.0,0.0,0.0,0.0,0.0,0.0,2.1109,2.1109,2.1109,2.1109,2.1109,2.1109,2.1109,2.1109,2.1109,2.1109,2.1109,2.1109,2.1577,2.1984,2.1984,2.2465,2.2859,2.2859,2.2859,2.2859,0.0,0.0,0.0,2.3825,0.0,0.0,0.0,2.6351,2.651,2.5499,2.4924,2.4636,2.4636,2.4636,2.4636,2.4636,2.4636,2.4636,2.4636,2.4636,2.4636,2.4636,2.4636,2.4636,2.4636,2.4636,2.4636,2.4636,2.4636,2.4636,0.0,2.4636,2.4636,2.4636,2.4636,2.4636,2.4636,2.4636,2.4636,2.4636,0.0,0.0,0.0,0.0,0.0,0.0,0.0,1.9366,1.9366,1.9366,1.9366,1.9366,1.9366,1.9366,1.9366,1.9366,1.9366,0.0,0.0,0.0,0.0,0.0,0.0,0.0,1.9366,1.9366,1.9366,1.9366,1.9366,1.9366,1.9372,1.9639,1.9766,1.978,2.0074,2.0214,0.0,0.0,0.0,0.0,2.0234,2.0401,0.0,0.0,0.0,0.0,0.0,0.0,0.0,0.0,0.0,0.0,0.0,0.0,0.0,0.0,0.0,0.0,0.0,2.1109,2.1109,2.1109,2.1109,2.1109,2.1109,2.1109,0.0,2.1109,2.1577,2.1984,2.1984,2.2465,2.2859,2.2859,2.2859,0.0,0.0,2.2859,0.0,0.0,2.7146,0.0,2.8522,2.7598,2.6939,2.6794,2.5359,2.4636,2.4636,2.4636,2.4636,2.4636,2.4636,2.4636,2.4636,2.4636,2.4636,2.4636,2.4636,2.4636,2.4636,2.4636,2.4636,0.0,2.4636,2.4636,2.4636,2.4636,2.4636,2.4636,2.4636,2.4636,2.4636,2.4636,2.4636,2.4636,0.0,0.0,0.0,0.0,0.0,0.0,0.0,0.0,0.0,0.0,1.9366,1.9366,1.9366,1.9366,1.9366,0.0,0.0,0.0,0.0,0.0,0.0,0.0,0.0,0.0,1.9366,1.9366,1.9366,1.9366,1.9366,1.9366,1.9366,1.9432,1.9466,1.9486,1.9773,2.0027,0.0,0.0,0.0,0.0,2.0234,2.0274,0.0,0.0,0.0,0.0,2.0775,2.0922,0.0,0.0,0.0,0.0,0.0,0.0,0.0,0.0,2.1109,2.1109,2.1109,0.0,2.1109,2.1109,2.1109,2.1109,0.0,2.1109,0.0,0.0,0.0,2.1984,2.1984,2.2465,2.2859,2.2859,0.0,0.0,2.2859,0.0,0.0,0.0,2.7131,2.7478,2.5439,2.7311,2.7643,2.5352,2.4777,2.4636,2.4636,2.4636,2.4636,2.4636,2.4636,2.4636,2.4636,2.4636,2.4636,2.4636,2.4636,2.4636,2.4636,2.4636,2.4636,2.4636,2.4636,2.4636,2.4636,2.4636,2.4636,2.4636,2.4636,2.4636,2.4636,2.4636,2.4636,2.4636,0.0,0.0,0.0,0.0,0.0,0.0,0.0,0.0,0.0,0.0,1.9366,1.9366,1.9366,1.9366,1.9366,0.0,0.0,0.0,0.0,0.0,0.0,0.0,0.0,1.9366,1.9366,1.9366,1.9366,1.9366,1.9366,1.9366,1.9366,1.9366,1.9366,1.9372,1.9533,1.9686,0.0,0.0,0.0,0.0,1.9833,0.0,0.0,0.0,0.0,0.0,2.0628,2.0775,0.0,2.1069,2.1109,2.1109,0.0,0.0,0.0,0.0,2.1109,2.1109,2.1109,2.1109,2.1109,2.1109,2.1109,2.1109,2.1109,2.1109,0.0,0.0,0.0,2.1984,2.1984,2.2996,0.0,0.0,2.34,0.0,0.0,0.0,2.4316,2.5302,2.7689,2.8459,0.0,2.8013,2.8213,2.5786,2.5072,2.4636,2.4636,2.4636,2.4636,2.4636,2.4636,2.4636,2.4636,2.4636,2.4636,2.4636,2.4636,2.4636,2.4636,2.4636,2.4636,2.4636,2.4636,2.4636,2.4636,2.4636,2.4636,2.4636,2.4636,2.4636,2.4636,2.4636,2.4636,2.4636,0.0,0.0,0.0,0.0,0.0,0.0,0.0,0.0,0.0,0.0,0.0,0.0,0.0,0.0,0.0,0.0,0.0,0.0,0.0,0.0,0.0,0.0,1.9366,1.9366,1.9366,1.9366,1.9366,1.9366,1.9366,1.9366,1.9366,1.9366,1.9366,1.9366,1.9366,1.9366,0.0,0.0,0.0,0.0,1.9366,0.0,0.0,0.0,0.0,0.0,0.0,0.0,0.0,2.1009,2.1109,2.1109,2.1109,0.0,0.0,0.0,0.0,0.0,2.1109,2.1109,2.1109,2.1109,2.1109,2.1109,2.1109,2.1109,0.0,0.0,0.0,0.0,0.0,2.3525,0.0,0.0,0.0,0.0,2.3931,2.4474,2.5275,2.6185,2.8542,0.0,2.9015,2.9036,2.8501,2.7085,2.5499,2.4636,2.4636,2.4636,2.4636,2.4636,2.4636,2.4636,2.4636,2.4636,2.4636,2.4636,2.4636,2.4636,2.4636,2.4636,2.4636,2.4636,0.0,0.0,2.4636,2.4636,2.4636,2.4636,2.4636,2.4636,2.4636,2.4636,2.4636,2.4636,0.0,0.0,0.0,0.0,0.0,0.0,0.0,0.0,0.0,0.0,0.0,0.0,0.0,0.0,0.0,0.0,0.0,0.0,0.0,0.0,0.0,1.9366,1.9366,1.9366,1.9366,1.9366,1.9366,1.9366,1.9366,1.9366,1.9366,1.9366,1.9366,1.9366,1.9366,1.9366,1.9366,1.9366,0.0,1.9366,1.9366,0.0,0.0,0.0,0.0,0.0,0.0,0.0,0.0,2.1009,2.1109,2.1109,2.1109,0.0,0.0,0.0,0.0,0.0,2.1109,2.1109,2.1109,2.1109,2.1109,2.1109,2.1109,2.1109,2.1109,0.0,0.0,0.0,0.0,2.2734,0.0,0.0,0.0,0.0,0.0,0.0,2.6163,2.9241,0.0,2.8841,2.9067,2.9179,2.8501,2.7085,2.5499,2.4636,2.4636,2.4636,2.4636,2.4636,2.4636,2.4636,2.4636,2.4636,2.4636,2.4636,2.4636,2.4636,2.4636,2.4636,2.4636,2.4636,0.0,2.4636,2.4636,2.4636,2.4636,2.4636,2.4636,2.4636,2.4636,2.4636,2.4636,2.4636,0.0,0.0,0.0,0.0,0.0,0.0,0.0,0.0,0.0,0.0,0.0,0.0,0.0,0.0,0.0,0.0,0.0,0.0,0.0,0.0,1.9366,1.9366,1.9366,1.9366,1.9366,1.9366,1.9366,1.9366,1.9366,1.9366,1.9366,1.9366,1.9366,1.9366,1.9366,1.9366,1.9366,1.9366,1.9366,1.9366,0.0,0.0,0.0,0.0,0.0,0.0,0.0,0.0,0.0,0.0,2.1109,2.1109,2.1109,0.0,0.0,0.0,0.0,0.0,2.1109,2.1109,2.1109,2.1109,2.1109,2.1109,2.1109,2.1601,0.0,0.0,0.0,0.0,0.0,0.0,0.0,0.0,0.0,0.0,0.0,0.0,0.0,0.0,0.0,2.8865,3.0285,2.8932,2.765,2.6939,2.5499,2.4636,2.4636,2.4636,2.4636,2.4636,2.4784,2.4931,2.4931,2.4931,2.4784,2.4636,2.4636,2.4636,2.4636,2.4636,2.4636,2.4636,0.0,2.4636,2.4636,2.4636,2.4636,2.4636,2.4636,2.4636,2.4636,2.4636,2.4636,2.4636,0.0,0.0,0.0,0.0,0.0,0.0,0.0,0.0,0.0,0.0,0.0,0.0,0.0,0.0,0.0,0.0,0.0,0.0,0.0,1.9366,1.9366,1.9366,1.9366,1.9366,1.9366,1.9366,1.9366,1.9366,1.9366,1.9366,1.9366,1.9366,1.9366,1.9366,1.9366,1.9366,1.9366,1.9366,1.9366,1.9366,0.0,0.0,0.0,0.0,0.0,0.0,0.0,0.0,0.0,0.0,0.0,0.0,0.0,0.0,0.0,2.1109,2.1109,2.1109,2.1109,2.1109,2.1109,2.1109,2.1109,2.1109,2.1109,2.1971,0.0,0.0,0.0,0.0,0.0,2.448,0.0,0.0,0.0,0.0,0.0,0.0,0.0,0.0,2.9423,2.929,3.1861,2.9361,2.7505,2.7513,2.5639,2.4636,2.4636,2.4636,2.4784,2.4784,2.5079,2.5373,2.5373,2.5373,2.5079,2.4784,2.4636,2.4636,2.4636,2.4636,2.4636,2.4636,2.4636,2.4636,2.4636,2.4636,2.4636,2.4636,2.4636,2.4636,2.4636,2.4636,2.4636,2.4636,0.0,0.0,0.0,0.0,0.0,0.0,0.0,0.0,0.0,0.0,0.0,0.0,0.0,0.0,0.0,0.0,0.0,0.0,0.0,1.9366,1.9366,1.9366,1.9366,1.9366,1.9366,1.9366,1.9366,1.9366,1.9366,1.9366,1.9366,1.9366,1.9366,1.9366,1.9366,1.9366,1.9366,1.9366,1.9366,1.9366,1.9366,0.0,0.0,0.0,0.0,0.0,0.0,0.0,0.0,0.0,0.0,0.0,0.0,0.0,2.1109,2.1109,2.1109,2.1109,2.1109,2.1109,2.1109,2.1109,2.1109,2.1109,2.1109,2.1355,0.0,2.3225,0.0,0.0,0.0,2.3714,0.0,2.6847,2.7113,2.7908,3.0705,0.0,2.8452,3.2077,3.0369,3.011,3.33,3.1209,2.9488,2.9067,2.621,2.4636,2.4636,2.4931,2.5233,2.5233,2.5513,2.58,2.58,2.58,2.5513,2.5085,2.4784,2.4636,2.4636,2.4636,2.4636,2.4636,2.4636,2.4636,2.4636,2.4636,2.4636,2.4636,2.4636,2.4636,2.4636,2.4636,2.4636,2.4636,0.0,0.0,0.0,0.0,0.0,0.0,0.0,0.0,0.0,0.0,0.0,0.0,0.0,0.0,0.0,0.0,0.0,0.0,0.0,1.9366,1.9366,1.9366,1.9366,1.9366,1.9366,1.9366,1.9366,1.9366,1.9366,1.9366,1.9366,1.9366,1.9366,1.9366,1.9366,1.9366,1.9366,1.9366,1.9366,1.9366,1.9366,1.9472,0.0,0.0,0.0,0.0,0.0,0.0,0.0,0.0,2.1109,2.1109,2.1109,2.1109,2.1109,2.1109,2.1109,2.1109,2.1109,2.1109,2.1109,2.1109,2.1109,0.0,0.0,2.1971,2.2559,2.2631,2.4208,0.0,0.0,0.0,2.592,2.698,2.7924,2.8863,2.9926,2.832,2.8178,3.0833,2.8979,2.8849,3.2429,3.0351,2.9067,2.9924,2.6794,2.5079,2.5366,2.5226,2.5373,2.5513,2.5953,2.61,2.61,2.61,2.5953,2.5513,2.5226,2.4784,2.4636,2.4636,2.4636,2.4636,2.4636,2.4636,2.4636,2.4636,2.4636,2.4636,2.4636,2.4636,2.4636,2.4636,2.4636,2.4636,0.0,0.0,0.0,0.0,0.0,0.0,0.0,0.0,0.0,0.0,0.0,0.0,0.0,0.0,0.0,0.0,0.0,0.0,1.9366,1.9366,1.9366,1.9366,1.9366,1.9366,1.9366,1.9366,1.9366,1.9366,1.9366,1.9366,1.9366,1.9366,1.9366,1.9366,1.9366,1.9366,1.9366,1.9366,1.9366,1.9372,1.9466,1.9626,0.0,0.0,0.0,0.0,0.0,0.0,0.0,0.0,2.1109,2.1109,2.1109,2.1109,2.1109,2.1109,2.1109,2.1109,2.1109,2.1109,2.1109,2.1235,0.0,0.0,2.1607,2.2591,2.3326,2.3377,2.5077,0.0,0.0,0.0,0.0,0.0,2.8328,2.9273,2.9273,2.8056,2.8178,3.0833,2.8567,2.8424,3.256,3.0209,2.8932,3.0225,2.723,2.5513,2.58,2.566,2.5667,2.5946,2.6392,2.6546,2.6546,2.6546,2.6392,2.5946,2.5667,2.5226,2.4636,2.4636,2.4636,2.4636,2.4636,2.4636,2.4636,2.4636,2.4636,2.4636,2.4636,2.4636,2.4636,2.4636,2.4636,2.4636,0.0,0.0,0.0,0.0,0.0,0.0,0.0,0.0,1.9366,1.9366,1.9366,0.0,0.0,0.0,0.0,0.0,0.0,0.0,1.9366,1.9366,1.9366,1.9366,1.9366,1.9366,1.9366,1.9366,1.9366,1.9366,1.9366,1.9366,1.9366,1.9366,1.9366,1.9366,1.9366,1.9366,1.9366,1.9366,1.9366,1.9399,1.9686,1.9806,1.984,0.0,0.0,0.0,0.0,0.0,0.0,0.0,2.1109,2.1109,2.1109,2.1109,2.1109,2.1109,2.1109,2.1109,2.1109,2.1109,2.1235,0.0,0.0,0.0,2.1985,2.2841,2.4136,2.5945,0.0,2.7643,2.95,0.0,0.0,0.0,2.8328,2.9273,2.9273,2.8056,2.8577,3.2629,2.968,2.9273,3.4405,3.1076,2.9226,3.0367,2.7513,2.58,2.58,2.6246,2.6392,2.6392,2.6838,2.6991,2.6991,2.6991,2.6838,2.6392,2.6392,2.5807,2.4636,2.4636,2.4636,2.4636,2.4636,2.4636,2.4636,2.4636,2.4636,2.4636,2.4636,2.4636,2.4636,2.4636,2.4636,2.4636,0.0,0.0,0.0,0.0,0.0,0.0,0.0,0.0,1.9366,1.9366,1.9366,0.0,0.0,0.0,0.0,0.0,0.0,0.0,1.9366,1.9366,1.9366,1.9366,1.9366,1.9366,1.9366,1.9366,1.9366,1.9366,1.9366,1.9366,1.9366,1.9366,1.9366,1.9366,1.9366,1.9366,1.9366,1.9366,1.9486,1.9679,1.9766,2.0047,2.0428,0.0,0.0,0.0,0.0,0.0,0.0,0.0,0.0,0.0,2.1109,2.1109,2.1109,2.1109,2.1109,2.1109,2.1109,2.1235,0.0,2.1607,0.0,0.0,0.0,2.2644,0.0,0.0,2.7074,2.7932,2.9265,0.0,0.0,0.0,2.9387,3.0723,2.9778,2.8452,2.8194,3.0021,2.8729,2.8726,3.1835,3.0225,2.9663,3.1076,2.8091,2.6392,2.6692,2.6538,2.6546,2.6838,2.6991,2.6991,2.6991,2.6991,2.6838,2.6392,2.6392,2.596,2.5085,2.5085,2.4931,2.4636,2.4636,2.4636,2.4636,2.4636,2.4636,2.4636,2.4636,2.4636,2.4636,2.4636,2.4636,2.4636,0.0,0.0,0.0,0.0,0.0,0.0,0.0,0.0,1.9366,1.9366,1.9366,1.9366,0.0,0.0,0.0,0.0,0.0,0.0,0.0,1.9366,1.9366,1.9366,1.9366,1.9366,1.9366,1.9366,1.9366,1.9366,1.9366,1.9366,1.9366,1.9366,1.9366,1.9366,1.9366,1.9432,1.9539,1.9539,1.9706,1.998,2.01,2.0361,2.0688,0.0,0.0,0.0,0.0,0.0,0.0,0.0,0.0,0.0,2.1109,2.1109,2.1109,2.1109,2.1109,2.1109,2.1109,2.1355,0.0,2.1607,2.2716,2.4014,2.4641,0.0,0.0,0.0,0.0,2.7535,3.0048,3.0455,0.0,2.8443,3.0437,3.1506,3.0039,2.9239,2.9066,2.9943,2.8648,2.8539,3.078,2.9859,2.9528,3.0518,2.8676,2.7398,2.6991,2.6838,2.6692,2.6991,2.6991,2.6991,2.6991,2.6991,2.6845,2.6692,2.6692,2.6253,2.5667,2.538,2.4931,2.4636,2.4636,2.4636,2.4636,2.4636,2.4636,2.4636,2.4784,2.4784,2.4784,2.4784,2.4784,2.4784,0.0,0.0,1.9366,1.9366,0.0,0.0,0.0,0.0,1.9366,1.9366,1.9366,1.9366,0.0,0.0,0.0,0.0,0.0,0.0,0.0,1.9366,1.9366,1.9366,1.9366,1.9366,1.9366,1.9366,1.9366,1.9366,1.9366,1.9366,1.9366,1.9366,1.9366,1.9366,1.9399,1.9553,1.98,1.9826,2.0007,2.0294,2.0568,2.0688,2.0742,2.1009,0.0,0.0,0.0,0.0,0.0,0.0,0.0,0.0,2.1109,2.1109,2.1109,2.1109,2.1109,2.1109,2.1109,2.1355,0.0,2.1859,2.3113,0.0,2.6429,2.636,2.6753,2.9067,0.0,2.7004,3.1359,3.0048,2.86,2.9778,3.123,3.1754,3.0298,3.0281,3.0553,3.1235,2.9166,2.8419,3.0572,2.9656,2.902,2.9194,2.9051,2.8364,2.7129,2.6991,2.6991,2.6991,2.6991,2.6991,2.6991,2.6991,2.6991,2.6991,2.6991,2.6823,2.6349,2.5653,2.5085,2.4636,2.4636,2.4636,2.4636,2.4636,2.4784,2.4784,2.5085,2.5233,2.5233,2.5233,2.5085,2.5085,0.0,0.0,1.9366,1.9366,0.0,0.0,0.0,0.0,0.0,1.9366,0.0,0.0,0.0,0.0,0.0,0.0,0.0,0.0,0.0,1.9366,1.9366,1.9366,1.9366,1.9366,1.9366,1.9366,1.9366,1.9366,1.9366,1.9366,1.9366,1.9366,1.9366,1.9379,1.9606,1.974,1.9813,2.004,2.0314,2.0588,2.0648,2.0815,2.1022,2.1082,2.1109,0.0,0.0,0.0,0.0,0.0,0.0,0.0,2.1109,2.1109,2.1109,2.1109,2.1109,2.1109,2.1355,2.1734,0.0,0.0,2.4774,2.6471,2.8174,2.7082,2.609,2.7744,2.7883,2.8205,3.0316,2.9395,2.9003,3.1497,3.1212,3.1074,3.2128,3.1341,3.0562,3.0177,2.8681,2.7923,2.8826,2.7563,2.7294,2.8821,2.7717,2.7001,2.6976,2.6991,2.6991,2.6991,2.6991,2.6991,2.6991,2.6991,2.6991,2.6991,2.6991,2.6707,2.6027,2.5841,2.5219,2.4636,2.4938,2.5085,2.5085,2.5366,2.5506,2.5506,2.5226,2.5233,2.5233,2.479,2.4784,2.4784,0.0,0.0,0.0,0.0,0.0,0.0,0.0,0.0,0.0,0.0,0.0,0.0,0.0,0.0,0.0,0.0,0.0,0.0,0.0,0.0,1.9366,1.9366,1.9366,1.9366,1.9366,1.9366,1.9366,1.9366,1.9506,1.9506,1.9372,1.9506,1.9573,1.9586,1.988,2.0087,2.0234,2.0381,2.0615,2.0882,2.0882,2.0975,2.1109,2.1109,2.1109,2.1109,2.1109,0.0,0.0,0.0,0.0,0.0,0.0,0.0,2.1109,2.1109,2.1109,2.1109,2.1488,2.1859,0.0,2.4933,0.0,2.8166,2.9943,2.8933,2.7881,2.8114,2.7278,2.7278,3.0039,2.8986,2.8732,3.2147,3.1598,3.1322,3.2657,3.2393,3.1414,2.9653,2.891,2.8148,2.7123,2.7015,2.7183,2.7499,2.7374,2.7175,2.6515,2.6522,2.6522,2.6522,2.6522,2.6522,2.6522,2.6522,2.6522,2.6522,2.6522,2.6284,2.5691,2.5425,2.5063,2.4781,2.4933,2.5077,2.507,2.5208,2.5352,2.5352,2.5366,2.5221,2.5084,2.4788,2.4732,2.4715,0.0,0.0,0.0,0.0,0.0,0.0,0.0,0.0,0.0,0.0,0.0,0.0,0.0,0.0,0.0,0.0,0.0,0.0,0.0,0.0,0.0,1.9366,1.9366,1.9366,1.9366,1.9419,1.9446,1.9446,1.9733,1.9753,1.9519,1.9766,1.9873,1.9887,2.018,2.0448,2.0681,2.0728,2.0889,2.1109,2.1109,2.1109,2.1109,2.1109,0.0,2.1109,2.1109,2.1109,2.1109,2.1109,0.0,0.0,0.0,0.0,2.1109,2.1109,2.1109,2.1109,2.1488,2.223,2.3457,2.652,2.8061,0.0,3.1199,3.0641,2.9515,2.8778,2.6871,2.6344,2.99,2.8592,2.8328,3.2393,3.1854,3.1322,3.2785,3.3165,3.2511,2.99,2.953,2.865,2.5981,2.6909,2.7239,2.607,2.7162,2.7324,2.601,2.6018,2.6018,2.6018,2.6018,2.6018,2.6018,2.6018,2.6018,2.6018,2.5959,2.579,2.5362,2.5017,2.4764,2.4862,2.4869,2.4869,2.4869,2.501,2.501,2.501,2.5299,2.5158,2.4876,2.4741,2.4616,2.4548,0.0,0.0,0.0,0.0,0.0,0.0,0.0,0.0,0.0,0.0,1.9366,1.9366,0.0,1.9366,1.9366,1.9366,1.9366,1.9366,1.9366,0.0,0.0,1.9366,1.9366,1.9366,1.9366,1.9613,1.974,1.974,2.0034,2.0154,2.0114,2.0154,2.0174,2.0187,2.0488,2.0641,2.0695,2.0942,2.1076,2.1109,2.1109,2.1109,2.1109,0.0,0.0,0.0,0.0,2.1109,2.1109,2.1109,2.1109,0.0,0.0,0.0,2.1109,2.1109,2.1109,2.1109,2.1488,2.345,2.6017,0.0,2.8149,2.8451,0.0,0.0,2.7743,0.0,2.8443,2.8452,2.9248,2.7932,2.818,3.2638,3.0927,3.0021,3.2902,3.3418,3.2765,3.1194,2.9944,2.8667,2.7091,2.6079,2.5566,2.5571,2.5731,2.5849,2.6003,2.6018,2.6018,2.6018,2.6018,2.6018,2.6018,2.6018,2.6018,2.601,2.5732,2.5593,2.5448,2.5171,2.4925,2.4862,2.5158,2.5299,2.5299,2.5729,2.587,2.5729,2.5165,2.4876,2.4883,2.4188,2.393,2.4004,0.0,0.0,0.0,0.0,0.0,0.0,0.0,0.0,0.0,0.0,0.0,1.9366,1.9366,1.9366,1.9366,1.9366,1.9366,1.9432,1.9599,1.976,1.9853,1.9853,1.9853,1.9853,1.9853,1.9973,2.004,2.004,2.0341,2.0481,0.0,2.0648,2.0635,2.0494,2.0788,2.0915,2.0929,2.1056,2.1109,2.1109,2.1109,2.1235,2.1362,0.0,0.0,0.0,0.0,0.0,0.0,0.0,2.1109,2.1109,2.1109,0.0,0.0,0.0,2.1109,2.1355,2.2591,2.4671,2.6779,2.8835,2.9079,2.9573,3.1826,3.0155,2.846,2.8854,2.8986,2.8986,2.9117,2.7278,2.7145,3.1579,2.9752,2.8846,3.1845,3.2237,3.1973,3.1313,3.0798,2.95,2.7278,2.6627,2.5899,2.5386,2.5264,2.533,2.5476,2.5483,2.5483,2.5483,2.5483,2.5483,2.5483,2.5483,2.5483,2.5476,2.5337,2.5264,2.5264,2.5118,2.5069,2.4918,2.5194,2.5194,2.5201,2.5476,2.5338,2.5194,2.478,2.4358,2.4081,2.3671,2.3507,2.3541,0.0,0.0,0.0,0.0,0.0,0.0,0.0,0.0,0.0,0.0,0.0,1.9366,1.9366,0.0,0.0,0.0,1.9546,1.9679,1.99,2.0114,2.0234,2.0234,2.0234,2.0234,2.0234,2.0429,2.0463,2.0341,2.0765,0.0,2.0795,2.1009,2.0995,0.0,2.1009,2.1109,2.1109,0.0,0.0,0.0,0.0,0.0,0.0,0.0,0.0,0.0,0.0,0.0,0.0,0.0,0.0,0.0,0.0,0.0,0.0,0.0,0.0,2.1734,2.3705,2.504,2.6457,2.8931,2.9337,2.9609,0.0,0.0,2.9125,0.0,2.8986,2.9248,2.9248,2.7286,2.6886,3.066,2.8977,2.7932,3.041,3.0798,3.0798,3.0798,3.0401,2.9361,2.7278,2.6753,2.6234,2.5187,2.5059,2.5059,2.5059,2.5059,2.5059,2.5059,2.5059,2.5059,2.5059,2.5059,2.5059,2.5059,2.5059,2.5059,2.5059,2.5059,2.5059,2.5059,2.5059,2.5059,2.5059,2.5059,2.4916,2.4503,2.4367,2.3952,2.3406,2.327,2.3282,2.322,0.0,0.0,0.0,0.0,0.0,0.0,0.0,0.0,0.0,0.0,0.0,1.9366,1.9366,1.9613,1.978,1.978,2.0027,2.0194,2.0207,2.0227,2.0234,2.0234,2.0234,0.0,2.0234,2.0876,2.1019,2.0655,0.0,0.0,2.1089,2.1102,2.1102,2.1089,2.1102,2.1109,2.1109,0.0,0.0,0.0,0.0,0.0,0.0,0.0,0.0,0.0,0.0,0.0,0.0,0.0,0.0,0.0,0.0,0.0,0.0,0.0,0.0,0.0,2.4077,2.444,2.5127,2.8689,2.7843,2.6959,3.0122,0.0,2.8854,2.7543,2.8328,2.9248,2.9248,2.7941,2.7932,3.0789,2.8977,2.7684,2.9117,2.9248,2.9248,2.9248,2.8065,2.7278,2.7145,2.5973,2.5187,2.5059,2.5059,2.5059,2.5059,2.5059,2.5059,2.5059,2.5059,2.5059,2.5059,2.5059,2.5059,2.5059,2.5059,2.5059,2.5059,2.5059,2.5059,2.5059,2.5059,2.5059,2.5059,2.5059,2.4916,2.4503,2.4095,2.3823,2.3406,2.2996,2.2873,2.2933,0.0,0.0,0.0,0.0,0.0,0.0,0.0,0.0,0.0,0.0,0.0,0.0,0.0,1.9907,2.008,2.008,2.0347,2.0514,2.0514,2.0688,2.0795,2.0795,2.1044,2.1037,2.1037,2.1271,2.145,2.1575,0.0,2.1362,2.1355,2.1355,2.1362,2.1109,2.1109,2.1235,2.1362,2.1235,0.0,0.0,0.0,0.0,0.0,0.0,0.0,0.0,0.0,0.0,0.0,0.0,0.0,0.0,0.0,0.0,0.0,0.0,0.0,2.1978,2.3829,2.4354,2.4961,2.7668,2.7933,2.8059,2.9473,3.0183,3.0151,2.8723,2.8863,2.9248,2.9248,2.8073,2.8065,3.0789,2.8977,2.7684,2.8986,2.846,2.8196,2.9117,2.8723,2.8073,2.7153,2.6627,2.5973,2.5187,2.5059,2.5059,2.5059,2.5059,2.5059,2.5059,2.5059,2.5059,2.5059,2.5059,2.5059,2.5059,2.5059,2.5059,2.5059,2.5059,2.5059,2.5059,2.5059,2.5059,2.5059,2.5059,2.4916,2.4503,2.4367,2.4088,2.3823,2.3686,2.3406,2.3283,0.0,0.0,0.0,0.0,0.0,1.9366,1.9366,1.9452,1.9512,1.9512,0.0,0.0,0.0,0.0,2.0421,2.0514,2.0708,2.0822,2.0822,2.1002,2.1109,2.1109,2.1355,2.1488,2.1607,2.163,2.1756,2.2111,2.163,2.1505,2.1734,2.1607,2.1481,2.1488,2.1235,2.1235,0.0,0.0,0.0,2.1985,0.0,0.0,2.444,0.0,0.0,0.0,0.0,0.0,0.0,0.0,0.0,0.0,0.0,0.0,0.0,0.0,0.0,0.0,2.334,0.0,0.0,2.662,2.7243,2.7483,2.8245,2.9239,2.9622,2.8723,2.8468,2.86,2.9117,2.8073,2.7668,2.9622,2.7932,2.6761,2.7676,2.702,2.6761,2.7676,2.7808,2.7419,2.6494,2.6368,2.6107,2.5194,2.5059,0.0,2.5059,2.5059,2.5059,2.5059,2.5059,2.5059,2.5059,2.5059,2.5059,2.5059,2.5059,2.5059,2.5059,2.5059,2.5059,2.5059,2.5059,2.5059,2.5059,2.5059,2.4916,2.4503,2.4503,2.4367,2.3959,2.3823,2.3679,2.3406,0.0,0.0,1.9379,1.9379,1.9392,1.9392,1.9392,1.9633,1.9813,1.9813,0.0,0.0,0.0,0.0,0.0,2.1082,2.1109,2.1109,2.1109,2.1109,2.1109,2.1109,2.1109,2.1362,2.1607,2.1693,2.1803,2.2111,2.2051,2.2058,2.2111,2.1734,2.1859,2.2111,2.1481,2.1109,2.1109,0.0,2.1734,2.1475,0.0,2.5391,2.4062,0.0,0.0,0.0,2.6599,2.6599,0.0,0.0,0.0,0.0,0.0,0.0,0.0,0.0,0.0,0.0,0.0,0.0,0.0,2.5514,2.5359,2.5056,2.6683,2.7153,2.7153,2.7153,2.7153,2.7543,2.8854,2.7941,2.702,2.702,2.5973,2.5187,2.5187,2.5059,2.5059,2.5059,2.5059,2.5059,2.5059,2.5059,2.5059,2.5059,2.5059,2.5059,2.5059,2.5059,2.5059,2.5059,2.5059,2.5059,2.5059,2.5059,2.5059,2.5059,2.5059,2.5059,2.5059,2.5059,2.5059,2.5059,2.5059,2.5059,2.5059,2.5059,2.4916,2.4503,2.4503,2.4367,2.3959,2.3543,2.3406,2.3406,0.0,1.9539,1.9679,1.9679,1.9853,1.9993,1.9993,2.006,2.0114,0.0,0.0,0.0,0.0,0.0,2.1393,2.1481,2.1488,2.1488,2.1488,2.1488,2.1607,2.1859,2.2111,2.2237,2.2355,2.2277,2.252,2.2856,2.2395,2.2277,2.2487,2.2355,2.223,2.2104,2.2355,2.2237,2.1859,2.1481,0.0,0.0,2.5138,2.6122,0.0,0.0,0.0,0.0,0.0,2.9658,0.0,0.0,2.8059,2.782,0.0,0.0,0.0,0.0,0.0,0.0,2.2731,0.0,0.0,0.0,0.0,0.0,2.5823,2.7153,2.8328,2.7278,2.7153,2.7278,2.7684,2.6635,2.5712,2.5712,2.61,2.6494,2.6494,2.5712,2.5059,2.5059,2.5059,2.5059,2.5059,2.5059,2.5059,0.0,2.5059,2.5059,2.5059,2.5059,2.5059,2.5059,2.5059,2.5059,2.5059,2.5059,2.5059,2.5059,2.5059,2.5059,2.5059,2.5059,2.5059,2.5059,2.5059,2.5059,2.5059,2.5059,2.5052,2.4916,2.4638,2.4503,2.4367,2.3959,2.3679,2.3406,2.0192,2.0335,2.0332,2.0332,2.0475,2.0591,2.047,2.0578,2.0659,0.0,0.0,0.0,0.0,0.0,0.0,2.1607,2.1734,2.1859,2.1859,2.1859,2.1859,2.2111,2.2237,2.2487,2.2606,2.2967,2.3214,2.3106,2.3091,2.3091,2.2863,2.2606,2.2606,2.248,2.2613,2.2606,0.0,0.0,0.0,0.0,2.5391,0.0,0.0,2.8938,2.9658,0.0,0.0,0.0,3.003,2.9785,2.9776,0.0,0.0,0.0,0.0,0.0,0.0,0.0,0.0,0.0,0.0,0.0,0.0,0.0,2.61,2.7153,2.846,2.8846,2.7932,2.7278,2.7949,2.6375,2.5059,2.5059,2.5712,2.6234,2.6234,2.5577,2.5059,2.5059,2.5059,2.5059,2.5059,2.5059,2.5059,2.5059,2.5059,2.5059,2.5059,2.5059,2.5059,2.5059,2.5059,2.5059,2.5059,2.5059,2.5059,2.5059,2.5059,2.5059,2.5059,2.5059,2.5059,2.5059,2.5059,2.5059,2.5052,2.4916,2.4916,2.5052,2.4638,2.4503,2.4503,2.3952,2.3543,2.3406,0.0,2.1215,2.1243,2.1243,2.1271,2.1171,2.0935,2.1162,2.1341,0.0,2.1568,0.0,0.0,0.0,0.0,0.0,2.1985,2.2111,2.2111,2.2111,2.2111,2.2237,2.2237,2.2362,2.2606,2.3542,2.378,0.0,0.0,0.0,0.0,0.0,0.0,0.0,2.248,2.248,2.3113,0.0,0.0,2.2724,2.5766,2.5887,0.0,0.0,2.8188,0.0,2.8554,2.9166,2.9285,3.0518,3.0762,0.0,0.0,0.0,0.0,0.0,2.5945,0.0,0.0,0.0,0.0,0.0,0.0,0.0,2.6886,2.6886,2.7543,3.0142,2.8583,2.7286,2.846,2.6769,2.5059,2.5059,2.5059,2.5059,2.5059,2.5059,2.5059,2.5059,2.5059,2.5059,2.5059,2.5059,2.5059,2.5059,2.5059,2.5059,2.5059,2.5059,2.5059,2.5059,2.5059,2.5059,2.5059,2.5059,2.5059,2.5059,2.5059,2.5059,2.5059,2.5059,2.5059,2.5059,2.5059,2.5059,2.5052,2.4638,2.4774,2.5052,2.4503,2.436,2.4231,2.3543,2.3406,2.327,2.1194,2.139,2.1565,2.1565,2.1768,2.1929,2.1804,2.1853,2.1895,2.1895,2.1943,0.0,0.0,0.0,0.0,0.0,2.248,2.2487,2.2487,2.2487,2.2606,2.2856,2.2856,2.2988,2.2981,2.3164,2.3777,2.4702,0.0,0.0,0.0,0.0,0.0,0.0,2.3472,2.2988,2.3106,0.0,0.0,2.4695,2.6009,0.0,2.6762,2.9431,3.0274,3.003,3.0401,3.0518,3.0518,0.0,3.0147,2.9285,0.0,0.0,0.0,0.0,0.0,0.0,0.0,0.0,0.0,0.0,0.0,0.0,2.5712,2.545,2.5719,2.6234,2.5839,2.5577,2.5846,2.545,2.5059,2.5059,2.5059,2.5059,2.5059,2.5059,2.5059,2.5059,2.5059,2.5059,2.5059,2.5059,2.5059,2.5059,2.5059,2.5059,2.5059,2.5059,2.5059,2.5059,2.5059,2.5059,2.5059,2.5059,2.5059,2.5059,2.5059,2.5059,2.5059,2.5059,2.5059,2.5059,2.5059,2.4916,2.4638,2.4503,2.4503,2.4503,2.3816,2.3679,2.3543,2.3133,2.2996,2.2996,2.214,2.2269,2.2377,2.2377,2.2505,2.248,2.2355,2.2362,2.2362,2.2362,2.248,0.0,0.0,0.0,0.0,0.0,0.0,0.0,0.0,2.3472,2.3961,2.4092,2.4695,2.5063,2.5063,2.566,2.6026,2.6042,0.0,0.0,0.0,0.0,0.0,0.0,0.0,2.3845,0.0,0.0,2.3845,2.5194,2.6269,0.0,2.8215,3.0157,3.0889,3.0889,3.0889,3.0889,3.0889,3.0889,3.0536,0.0,0.0,2.9195,2.8259,0.0,2.8401,2.8509,0.0,0.0,0.0,2.7499,0.0,0.0,0.0,2.6107,2.6234,2.7028,2.6635,2.6107,2.6107,2.5577,2.5059,2.5059,2.5059,2.5059,2.5059,2.5059,2.5059,2.5059,2.5059,2.5059,2.5059,2.5059,2.5059,2.5059,2.5059,2.5059,2.5059,2.5059,2.5059,2.5059,2.5059,2.5059,2.5059,2.5059,2.5059,2.5059,2.5059,2.5059,2.5059,2.5059,2.5059,2.5052,2.4916,2.4645,2.4503,2.4088,2.3952,2.3952,2.3543,2.3406,2.3406,2.2996,2.2859,2.2859,2.3106,2.3106,2.3106,2.3106,2.3106,2.2988,2.2731,2.2731,2.2731,2.2731,0.0,0.0,0.0,0.0,0.0,0.0,0.0,0.0,0.0,0.0,2.5439,2.5439,2.6407,2.7013,2.7013,2.7966,2.8206,2.7375,2.7375,0.0,0.0,0.0,0.0,0.0,0.0,0.0,0.0,0.0,0.0,2.5912,0.0,2.7847,2.8673,3.0274,3.0889,3.0889,3.0889,3.0889,3.0898,3.0986,0.0,3.1475,3.1221,3.0577,0.0,0.0,0.0,0.0,0.0,0.0,0.0,0.0,0.0,2.8863,0.0,0.0,0.0,2.8205,2.7551,2.6753,2.6753,2.5839,2.5059,2.5059,2.5059,0.0,0.0,2.5059,0.0,2.5059,2.5059,2.5059,2.5059,2.5059,2.5059,2.5059,2.5059,2.5059,2.5059,2.5059,2.5059,2.5059,2.5059,2.5059,2.5059,2.5059,2.5059,2.5059,2.5059,2.5059,2.5059,2.5059,2.5052,2.4916,2.4638,2.4367,2.4224,2.3679,2.3406,2.327,2.327,2.327,2.327,2.2996,2.2859,2.2859,2.3106,2.3106,2.3106,2.3106,2.3106,2.3113,2.3106,2.2981,2.2981,0.0,0.0,0.0,0.0,0.0,0.0,0.0,0.0,0.0,2.6529,0.0,0.0,2.6771,2.6892,2.7013,2.7013,2.7134,2.7727,2.8683,2.8683,2.9176,0.0,0.0,0.0,0.0,2.7125,0.0,0.0,0.0,2.7246,0.0,2.8683,2.8068,0.0,2.9912,3.0889,3.0889,3.0889,3.0889,3.0947,0.0,3.1475,3.1572,0.0,3.1667,3.1214,0.0,0.0,0.0,0.0,0.0,0.0,0.0,3.0021,0.0,0.0,0.0,2.5315,2.5584,0.0,2.5322,0.0,0.0,0.0,0.0,0.0,2.5059,2.5059,2.5059,2.5059,2.5059,2.5059,2.5059,2.5059,2.5059,2.5059,2.5059,2.5059,2.5059,2.5059,2.5059,2.5059,2.5059,2.5059,2.5059,2.5059,2.5059,2.5059,2.5059,2.5059,2.5059,2.5059,2.5059,2.4916,2.4503,2.4503,2.4088,2.3543,2.3406,2.327,2.3003,2.3003,2.3003,2.2996,2.2859,2.2859,2.2859,2.3106,2.3106,2.3106,2.3106,2.3106,2.3106,2.3106,2.3106,2.3106,0.0,0.0,0.0,0.0,0.0,0.0,0.0,0.0,2.7013,0.0,0.0,0.0,0.0,2.8086,0.0,2.9194,2.9313,2.9549,3.003,2.9285,2.9166,2.9658,0.0,0.0,0.0,2.7615,0.0,2.9194,0.0,2.7727,0.0,0.0,0.0,0.0,3.0157,3.0889,3.0889,3.0889,3.0889,3.0918,0.0,3.1484,0.0,0.0,0.0,0.0,0.0,0.0,0.0,0.0,0.0,0.0,0.0,0.0,0.0,2.7411,0.0,2.5059,0.0,0.0,0.0,0.0,0.0,0.0,0.0,2.5059,2.5059,0.0,0.0,2.5059,2.5059,0.0,0.0,2.5059,2.5059,2.5059,2.5059,2.5059,2.5059,2.5059,2.5059,2.5059,2.5059,2.5059,2.5059,2.5059,2.5059,2.5059,2.5059,2.5059,2.5059,2.5052,2.4916,2.4638,2.4503,2.4088,2.3679,2.3406,2.3133,2.2996,2.2859,2.2859,2.2859,2.2859,2.2859,2.2859,2.2859,2.3106,0.0,2.3106,2.3106,2.3106,2.3106,2.3106,2.3106,0.0,0.0,0.0,0.0,2.3596,2.5186,0.0,0.0,0.0,2.8104,0.0,0.0,2.8462,0.0,0.0,0.0,0.0,0.0,3.0889,3.0889,2.9903,2.9412,0.0,0.0,0.0,0.0,0.0,2.9076,3.0772,0.0,0.0,2.9412,2.9412,2.9412,2.954,3.0518,3.0889,3.0889,3.0889,3.0889,3.0908,3.1025,3.1475,0.0,3.1406,0.0,0.0,0.0,0.0,0.0,3.331,0.0,0.0,0.0,0.0,0.0,0.0,0.0,0.0,0.0,0.0,0.0,0.0,0.0,0.0,0.0,0.0,2.5059,0.0,2.5059,0.0,0.0,0.0,0.0,0.0,2.5059,2.5059,2.5059,2.5059,2.5059,2.5059,2.5059,2.5015,2.4927,2.492,2.4883,2.4788,2.4788,2.4788,2.4788,2.4788,2.4654,2.4654,2.4245,2.4111,2.3969,2.343,2.316,2.3025,2.2754,2.2619,2.2619,2.2619,2.2619,2.2645,2.2806,2.2859,2.2859,2.3106,2.3106,0.0,0.0,0.0,2.3106,2.3106,2.3106,0.0,0.0,0.0,0.0,0.0,0.0,0.0,0.0,0.0,3.0772,3.0772,0.0,3.0772,0.0,0.0,0.0,0.0,0.0,0.0,3.0889,3.0889,0.0,0.0,0.0,0.0,0.0,0.0,3.0772,3.0889,3.0772,3.0772,3.0889,3.0889,3.0889,3.0889,0.0,3.0889,3.0889,3.0889,0.0,0.0,3.1357,3.1514,0.0,0.0,0.0,0.0,0.0,0.0,0.0,0.0,0.0,0.0,3.1707,0.0,0.0,0.0,0.0,2.5059,0.0,0.0,0.0,0.0,0.0,0.0,0.0,0.0,0.0,0.0,0.0,0.0,0.0,0.0,0.0,0.0,2.5059,2.5059,0.0,2.5059,2.5059,2.5059,2.5059,2.4913,2.4598,2.4583,2.443,2.4115,2.4115,2.4115,2.4115,2.3855,2.3593,2.3593,2.3332,2.2932,2.2531,2.2538,2.2406,2.2011,2.2017,2.2017,2.2017,2.2017,2.2017,2.2084,2.2652,2.2859,2.2859,2.3106,0.0,0.0,0.0,0.0,0.0,0.0,2.3845,0.0,0.0,0.0,0.0,0.0,0.0,2.892,0.0,0.0,3.0889,3.0889,3.003,0.0,0.0,0.0,3.003,0.0,0.0,0.0,0.0,0.0,0.0,0.0,0.0,0.0,0.0,0.0,3.0889,0.0,0.0,0.0,0.0,0.0,3.0889,3.0889,0.0,3.0889,3.0889,3.0889,3.0889,0.0,3.1055,3.1289,3.1543,3.1689,3.2129,3.2607,3.2754,3.2998,0.0,0.0,0.0,3.3292,3.2765,0.0,0.0,0.0,0.0,0.0,0.0,0.0,0.0,0.0,0.0,0.0,0.0,0.0,0.0,0.0,0.0,2.4415,0.0,0.0,0.0,0.0,0.0,0.0,0.0,2.4415,0.0,2.4415,2.4415,2.4364,2.4247,2.4247,2.4196,2.4086,2.4086,2.3949,2.3818,2.3826,2.3818,2.3558,2.3427,2.3289,2.3159,2.2635,2.2379,2.2372,2.2116,2.1984,2.1984,2.1984,2.1984,2.2031,2.2425,2.2572,2.2599,2.3845,0.0,0.0,0.0,0.0,0.0,0.0,0.0,0.0,0.0,2.6164,0.0,2.7013,0.0,2.892,0.0,3.0147,3.0889,3.0889,3.0147,0.0,3.0889,3.003,0.0,0.0,0.0,0.0,0.0,0.0,3.0889,0.0,0.0,0.0,0.0,0.0,3.0889,3.0889,0.0,3.0889,0.0,0.0,3.0889,0.0,0.0,3.0889,3.0889,0.0,3.0889,3.0889,3.0889,3.1172,3.1514,3.1514,3.2109,3.2793,3.2793,3.3086,3.3418,3.3418,3.3418,0.0,3.2765,3.1973,0.0,2.9509,0.0,0.0,0.0,0.0,0.0,0.0,0.0,0.0,0.0,0.0,0.0,0.0,2.4218,0.0,0.0,0.0,0.0,0.0,0.0,0.0,0.0,0.0,0.0,0.0,2.4086,2.4027,2.391,2.391,2.3852,2.3735,2.3735,2.3607,2.3478,2.3478,2.3478,2.3221,2.2964,2.2828,2.2828,2.2189,2.2059,2.193,2.18,2.1677,2.1677,2.1677,2.1677,2.1724,2.2118,2.2331,2.2465,2.5317,2.6042,0.0,0.0,2.3106,0.0,0.0,0.0,2.5194,0.0,2.6407,2.7142,2.7142,2.8325,2.9048,2.9048,3.0147,0.0,3.0889,3.0889,0.0,0.0,3.0889,3.0889,3.0889,0.0,0.0,0.0,0.0,0.0,0.0,0.0,0.0,0.0,3.0889,0.0,3.0889,3.0889,3.0889,3.0889,3.0889,3.0889,3.0889,3.0889,3.0889,3.0889,3.0889,3.0889,3.0898,3.0918,3.1182,3.1523,3.1572,3.2139,3.2803,3.2822,3.3105,3.3418,3.3418,3.3418,3.3029,3.1707,3.1442,0.0,0.0,0.0,2.9222,0.0,0.0,0.0,0.0,0.0,0.0,0.0,0.0,0.0,0.0,0.0,0.0,0.0,0.0,0.0,0.0,0.0,0.0,0.0,0.0,0.0,0.0,2.4035,2.3888,2.3581,2.3574,2.342,2.3113,2.3106,2.3106,2.3106,2.2731,2.2606,2.2613,2.1985,2.1607,2.1607,2.1235,2.1109,2.1109,2.1109,2.1109,2.1109,2.1109,2.1109,2.1176,2.175,2.2158,2.2458,2.4085,2.4702,2.5439,0.0,2.372,2.3479,0.0,0.0,0.0,0.0,2.9057,2.9922,2.9922,3.0157,3.0401,3.0401,3.0645,0.0,0.0,0.0,0.0,3.0889,3.0889,3.0889,3.0889,3.0889,0.0,3.0889,0.0,0.0,3.0889,0.0,0.0,0.0,0.0,0.0,3.0889,3.0889,3.0889,3.0889,3.0889,3.0889,3.0889,0.0,3.0889,3.0889,3.0889,3.0889,3.0937,3.125,3.1426,3.1631,3.2266,3.2617,3.2861,3.3174,3.334,3.3418,3.3418,3.3418,3.3292,3.2892,3.2892,3.2502,0.0,0.0,0.0,0.0,0.0,0.0,0.0,0.0,0.0,0.0,0.0,0.0,0.0,0.0,0.0,2.3245,0.0,0.0,0.0,0.0,0.0,0.0,0.0,0.0,2.3362,2.3362,2.3318,2.3237,2.3237,2.3193,2.3106,2.3106,2.2981,2.2738,2.2856,2.2856,2.2606,2.2355,2.2355,2.2362,2.1734,2.1481,2.1481,2.1235,2.1109,2.1109,2.1109,2.1109,2.1156,2.153,2.1984,2.2432,2.6017,0.0,0.0,2.652,0.0,0.0,2.579,0.0,0.0,2.9039,3.0144,0.0,3.1143,3.1162,3.1162,3.1162,3.1338,0.0,0.0,0.0,0.0,3.1162,3.0986,3.0889,3.0889,3.0889,0.0,3.0889,0.0,0.0,3.0889,0.0,0.0,0.0,0.0,3.0889,3.0889,3.0889,3.0889,3.0889,3.0889,3.0889,0.0,3.0889,3.1006,3.1162,3.1162,3.1162,3.1201,3.1435,3.1768,3.2158,3.2646,3.2793,3.2842,3.3076,3.3018,3.2871,3.2871,3.2871,3.2871,3.2871,3.2871,3.2622,3.1834,3.153,3.1112,0.0,3.0038,0.0,0.0,0.0,0.0,0.0,0.0,0.0,0.0,0.0,0.0,0.0,2.3106,0.0,0.0,0.0,0.0,0.0,0.0,0.0,0.0,2.3106,2.3106,2.3106,2.3106,2.3106,2.3106,2.3106,2.2988,2.2856,2.2988,2.2856,2.2606,2.2487,2.2362,2.2111,2.1607,2.1362,2.1355,2.1235,2.1109,2.1109,2.1109,2.1109,2.1129,2.1296,2.165,2.2058,0.0,0.0,0.0,0.0,0.0,0.0,0.0,2.8424,0.0,2.973,0.0,3.1191,3.1562,3.1601,3.1601,3.1601,0.0,3.2168,3.2168,3.1816,3.1601,3.1601,3.125,3.1055,3.1055,3.0996,0.0,0.0,0.0,0.0,3.0889,3.0889,0.0,0.0,0.0,0.0,0.0,3.0889,3.0889,3.0889,3.0889,3.0928,3.0976,3.0976,3.123,3.1601,3.1601,3.1601,3.1601,3.1601,3.21,3.2715,3.2715,3.2715,3.2715,3.2715,3.2451,3.2168,3.2168,3.2168,3.2168,3.2168,3.2168,3.2168,3.2168,3.2129,3.209,3.209,3.2041,3.2002,0.0,0.0,0.0,0.0,0.0,0.0,0.0,0.0,0.0,0.0,0.0,0.0,0.0,0.0,0.0,0.0,0.0,0.0,0.0,0.0,2.3106,2.3106,2.3106,2.3106,2.3106,2.3106,2.3113,2.2988,2.3113,2.2856,2.248,2.2237,2.1859,2.1607,2.1235,2.1109,2.1109,2.1109,2.1109,2.1109,2.1109,2.1109,2.1109,2.1109,2.1269,2.1537,0.0,0.0,0.0,0.0,0.0,3.0537,3.1252,3.026,2.9823,3.1017,3.1638,3.1973,3.2041,3.206,3.206,3.206,3.2129,0.0,0.0,0.0,0.0,3.206,3.1982,3.1943,3.1943,3.1592,3.1406,0.0,3.1064,3.0889,3.0889,3.0889,0.0,0.0,0.0,0.0,3.0889,3.0889,0.0,3.0889,3.0889,3.1094,3.1406,3.1406,3.168,3.206,3.206,3.206,3.206,3.206,3.2158,3.2275,3.2275,3.2275,3.2275,3.2275,3.2226,3.2168,3.2168,3.2168,3.2168,3.2168,3.2168,3.2168,3.2168,3.1894,3.1631,3.1631,3.1357,3.0741,2.9627,0.0,0.0,0.0,0.0,0.0,0.0,0.0,0.0,0.0,0.0,2.3106,0.0,0.0,0.0,0.0,0.0,2.3106,2.3106,0.0,2.3106,0.0,2.3106,2.3106,0.0,0.0,2.2988,2.2731,2.2981,2.2738,2.2237,2.2111,2.1859,2.1607,2.1235,2.1109,2.1109,2.1109,2.1109,2.1109,2.1109,2.1109,2.1109,2.1109,2.1142,2.1229,0.0,0.0,0.0,0.0,0.0,0.0,0.0,3.1661,0.0,3.2056,3.2178,3.2256,3.2471,3.249,3.249,3.249,3.2695,3.2822,3.2822,3.2617,3.249,3.249,3.2285,0.0,3.2168,3.1963,3.1855,3.1855,3.165,3.1435,0.0,0.0,0.0,3.0889,0.0,3.1016,0.0,0.0,0.0,3.1553,3.1553,3.167,3.1855,3.1855,3.2119,3.249,3.249,3.249,3.2461,3.2246,3.2168,3.2168,3.2168,3.2012,3.1836,3.1836,3.168,3.1504,3.1504,3.1504,3.1504,3.1504,3.1504,3.1504,3.1504,3.1338,3.1191,3.1191,3.1035,3.0518,2.9166,2.7847,0.0,0.0,0.0,0.0,0.0,0.0,0.0,0.0,0.0,0.0,0.0,0.0,0.0,0.0,0.0,2.3106,2.3106,2.3106,2.3106,0.0,0.0,0.0,2.3106,0.0,2.2988,2.2606,2.2731,2.248,2.1859,2.1859,2.1607,2.1362,2.1109,2.1109,2.1109,2.1109,2.1109,2.1109,2.1109,2.1109,2.1109,2.1109,2.0589,2.0094,0.0,3.1388,0.0,0.0,3.1399,0.0,3.2289,3.2715,3.29,3.2803,3.2588,3.2559,3.2891,3.293,3.293,3.293,3.3232,3.3418,3.3418,3.3115,3.293,3.293,3.2607,3.2441,3.2441,3.2344,3.2305,0.0,3.2217,3.1943,0.0,0.0,0.0,0.0,0.0,0.0,0.0,0.0,3.1855,3.2168,3.2168,3.2217,3.2305,3.2305,3.2559,3.292,3.2832,3.2744,3.2598,3.2168,3.2031,3.2012,3.1924,3.166,3.1387,3.1387,3.1152,3.0889,3.0889,3.0889,3.0889,3.0889,3.0889,3.0889,3.0889,3.0889,3.0889,3.0889,3.0889,3.0518,2.9166,2.8334,0.0,0.0,0.0,0.0,0.0,0.0,0.0,0.0,0.0,0.0,2.3106,0.0,0.0,0.0,2.3106,2.3106,2.3106,2.3106,2.3106,2.3106,0.0,2.3106,2.3106,0.0,2.2863,2.248,2.248,2.2111,2.1481,2.1607,2.1355,2.1109,2.1109,2.1109,2.1109,2.1109,2.1109,2.1109,2.1109,2.1109,2.1109,2.1109,2.0462,1.9297,0.0,0.0,0.0,0.0,0.0,0.0,3.3242,3.334,3.3223,3.2842,3.3086,3.332,3.3359,3.3359,3.3359,3.3359,3.3398,3.3418,3.3418,3.3389,3.3359,3.3359,3.333,3.3301,3.3301,3.293,3.2734,0.0,0.0,3.1943,0.0,0.0,0.0,0.0,0.0,0.0,0.0,3.2109,3.2129,3.2168,3.2168,3.2393,3.2734,3.2734,3.2998,3.331,3.293,3.2549,3.2158,3.1728,3.1582,3.1514,3.1133,3.0986,3.0947,3.0947,3.0918,3.0889,3.0889,3.0889,3.0889,3.0889,3.0889,3.0889,3.0889,3.0889,3.0889,3.0889,3.0889,3.0518,2.9166,2.9785,2.9804,0.0,0.0,0.0,0.0,0.0,0.0,0.0,0.0,0.0,0.0,2.3106,0.0,0.0,2.3106,2.3106,2.3106,2.3106,2.3106,2.3106,2.3106,2.3106,2.3106,2.2856,2.2487,2.2111,2.2111,2.1859,2.1109,2.1488,2.1355,2.1109,2.1109,2.1109,2.1109,2.1109,2.1109,2.1109,2.1109,2.1109,2.1109,2.1109,2.0982,2.0589,0.0,0.0,0.0,0.0,0.0,0.0,0.0,3.3418,3.3359,3.3193,3.332,3.3418,3.3418,3.3418,3.3418,3.3418,3.3418,3.3418,3.3418,3.3418,3.3418,3.3418,3.3418,3.3418,3.3418,3.3252,3.3174,0.0,0.0,0.0,0.0,0.0,0.0,0.0,0.0,3.2305,3.2549,3.2549,3.2695,3.292,3.292,3.3027,3.3174,3.3174,3.3271,3.3369,3.2939,3.2529,3.21,3.167,3.1348,3.1113,3.0947,3.0889,3.0889,3.0889,3.0889,3.0889,3.0889,3.0889,3.0889,3.0889,3.0889,3.0889,3.0889,3.0889,3.0889,3.0889,3.0889,3.0762,3.0157,2.9903,2.9658,2.9431,0.0,0.0,0.0,0.0,0.0,0.0,0.0,0.0,0.0,2.3106,0.0,0.0,0.0,2.3106,2.3106,2.3106,2.3106,2.3106,0.0,2.3106,2.3106,2.2731,2.2487,2.2111,2.1859,2.1607,2.1109,2.1235,2.1235,2.1109,2.1109,2.1109,2.1109,2.1109,2.1109,2.1109,2.1109,2.1109,2.0982,2.0202,1.9297,1.8396,3.3418,0.0,3.3418,0.0,3.3418,3.3418,3.3418,3.3418,3.3418,3.3418,3.3418,3.3418,3.3418,3.3418,3.3418,3.3418,3.3418,3.3418,3.3418,3.3418,3.3418,3.3418,3.3418,0.0,3.3418,3.3418,3.3418,3.3418,3.3418,0.0,0.0,0.0,0.0,0.0,3.2539,3.2705,3.2978,3.2978,3.3144,3.3418,3.3418,3.3418,3.3418,3.3418,3.3418,3.335,3.2803,3.2422,3.208,3.1523,3.1133,3.0889,3.0889,3.0889,3.0889,3.0889,3.0889,3.0889,3.0889,3.0889,3.0889,3.0889,3.0889,3.0889,3.0889,3.0889,3.0889,3.0889,3.0889,3.0889,3.0889,3.0147,2.9658,3.0274,0.0,0.0,0.0,0.0,0.0,0.0,2.3106,2.3106,2.3106,2.3106,0.0,0.0,0.0,2.3106,2.3106,2.3106,2.3106,0.0,0.0,0.0,2.3106,2.2731,2.2487,2.2111,2.1734,2.1355,2.1109,2.1109,2.1109,2.1109,2.1109,2.1109,2.1109,2.1109,2.1109,2.1109,2.1109,2.1109,2.0976,1.9553,1.8396,1.7361,3.3418,3.3418,3.3418,3.3418,3.3418,3.3418,3.3418,3.3418,3.3418,3.3418,3.3418,3.3418,3.3418,3.3418,3.3418,3.3418,3.3418,3.3418,3.3418,3.3418,3.3418,0.0,0.0,3.3418,3.3418,3.3418,3.3418,3.3418,0.0,0.0,3.2793,0.0,3.3008,3.3408,3.3408,3.3408,3.3418,3.3418,3.3418,3.3418,3.3418,3.3418,3.3418,3.3418,3.3418,3.331,3.2471,3.2178,3.2041,3.1191,3.0898,3.0889,3.0889,3.0889,3.0889,3.0889,3.0889,3.0889,3.0889,3.0889,3.0889,3.0889,3.0889,3.0889,3.0889,3.0889,3.0889,3.0889,3.0889,3.0889,3.0889,3.0889,3.0401,2.9166,0.0,0.0,0.0,0.0,0.0,2.323,2.3106,2.3106,2.3106,2.3106,0.0,0.0,0.0,0.0,0.0,0.0,0.0,2.3106,2.3106,0.0,2.3106,2.2731,2.2487,2.2111,2.1734,2.1355,2.1109,2.1109,2.1109,2.1109,2.1109,2.1109,2.1109,2.1109,2.1109,2.1109,2.1109,2.1109,2.0976,1.9553,1.9036,1.8652,3.3418,3.3418,3.3418,3.3418,3.3418,3.3418,3.3418,3.3418,3.3418,3.3418,3.3418,3.3418,3.3418,3.3418,3.3418,0.0,3.3418,3.3418,0.0,3.3418,3.3418,3.3418,3.3418,3.3418,3.3418,3.3418,3.3418,3.3418,0.0,0.0,0.0,3.3223,3.3301,3.3418,3.3418,3.3418,3.3418,3.3418,3.3418,3.3418,3.3418,3.3418,3.3418,3.3418,3.3418,3.331,3.2471,3.2168,3.2041,3.1182,3.0889,3.0889,3.0889,3.0889,3.0889,3.0889,3.0889,3.0889,3.0889,3.0889,3.0889,3.0889,3.0889,3.0889,3.0889,3.0889,3.0889,3.0889,3.0889,3.0889,3.0889,3.0889,3.0762,3.0274,2.953,0.0,2.665,0.0,0.0,2.323,2.3106,2.3106,2.3106,2.3106,0.0,0.0,0.0,0.0,0.0,0.0,0.0,0.0,2.3106,0.0,2.3106,2.248,2.2237,2.2111,2.1481,2.1235,2.1109,2.1109,2.1109,2.1109,2.1109,2.1109,2.1109,2.1109,2.1109,2.0982,2.0068,1.9686,1.9425,1.7103,1.6198,1.5939,3.3418,3.3418,3.3418,3.3418,3.3418,3.3418,3.3418,3.3418,3.3418,3.3418,3.3418,3.3418,3.3418,3.3418,0.0,3.3418,3.3418,3.3418,3.3418,3.3418,3.3418,3.3418,3.3418,3.3418,3.3418,3.3418,0.0,3.3418,3.3418,3.3418,3.3418,3.3418,3.3418,3.3418,3.3418,3.3418,3.3418,3.3418,3.3418,3.3418,3.3418,3.3418,3.3418,3.3418,3.3418,3.331,3.2471,3.2168,3.2041,3.1182,3.0889,3.0889,3.0889,3.0889,3.0889,3.0889,3.0889,3.0889,3.0889,3.0889,3.0889,3.0889,3.0889,3.0889,3.0889,3.0889,3.0889,3.0889,3.0889,3.0889,3.0889,3.0889,3.0889,3.0889,2.9412,2.7958,2.7134,0.0,2.4092,0.0,0.0,0.0,0.0,2.3106,2.3106,0.0,0.0,0.0,0.0,0.0,0.0,2.3106,2.3106,2.3106,2.3106,2.2738,2.2362,2.2111,2.1355,2.1109,2.1109,2.1109,2.1109,2.1109,2.1109,2.1109,2.1109,2.1109,2.0849,2.0202,1.9297,1.8652,1.8005,1.5684,1.4907,1.4651,3.3418,3.3418,3.3418,0.0,3.3418,3.3418,3.3418,3.3418,3.3418,3.3418,3.3418,3.3418,3.3418,3.3418,3.3418,3.3418,0.0,0.0,3.3418,3.3418,3.3418,3.3418,3.3418,3.3418,3.3418,3.3418,3.3418,3.3418,3.3418,3.3418,3.3418,3.3418,3.3418,3.3418,3.3418,3.3418,3.3418,3.3418,3.3418,3.3418,3.3418,3.3418,3.3418,3.3418,3.3418,3.331,3.2471,3.2168,3.2041,3.1182,3.0889,3.0889,3.0889,3.0889,3.0889,3.0889,3.0889,3.0889,3.0889,3.0889,3.0889,3.0889,3.0889,3.0889,3.0889,3.0889,3.0889,3.0889,3.0889,3.0889,3.0889,3.0889,3.0889,3.0889,2.8692,2.6987,2.7013,2.4695,2.3106,0.0,0.0,0.0,2.3106,2.3106,2.3106,0.0,0.0,0.0,0.0,0.0,2.3106,2.3106,2.3106,2.3106,2.3106,2.3106,2.2731,2.1985,2.1362,2.1109,2.1109,2.1109,2.1109,2.1109,2.1109,2.1109,2.1109,2.0982,2.0202,1.9036,1.878,1.8005,1.6716,1.5298,1.4782,1.452,0.0,0.0,3.3418,3.3418,3.3418,3.3418,3.3418,3.3418,3.3418,3.3418,3.3418,3.3418,3.3418,3.3418,3.3418,3.3418,3.3418,3.3418,3.3418,3.3418,3.3418,3.3418,3.3418,3.3418,3.3418,3.3418,3.3418,3.3418,3.3418,3.3418,3.3418,3.3418,3.3418,3.3418,3.3418,3.3418,3.3418,3.3418,3.3418,3.3418,3.3418,3.3418,3.3418,3.3418,3.3418,3.331,3.2471,3.2168,3.2041,3.1182,3.0889,3.0889,3.0889,3.0889,3.0889,3.0889,3.0889,3.0889,3.0889,3.0889,3.0889,3.0889,3.0889,3.0889,3.0889,3.0889,3.0889,3.0889,3.0889,3.0889,3.0889,3.0889,3.0889,3.0889,2.871,2.7004,2.7013,2.4695,2.3106,0.0,2.3106,2.3106,2.3106,2.3106,2.3106,0.0,0.0,0.0,2.3106,2.3106,2.3106,2.3106,2.3106,2.3106,2.3106,2.2606,2.1985,2.1362,2.1235,2.1109,2.1109,2.1109,2.1109,2.1109,2.1109,2.1109,2.0982,1.9941,1.9291,1.878,1.6716,1.5684,1.5168,1.3875,1.3358,1.3227,3.3418,3.3418,3.3418,3.3418,3.3418,3.3418,3.3418,3.3418,3.3418,3.3418,3.3418,3.3418,3.3418,3.3418,3.3418,3.3418,3.3418,3.3418,3.3418,3.3418,3.3418,3.3418,3.3418,3.3418,3.3418,3.3418,3.3418,3.3418,3.3418,3.3418,3.3418,3.3418,3.3418,3.3418,3.3418,3.3418,3.3418,3.3418,3.3418,3.3418,3.3418,3.3418,3.3418,3.3418,3.3418,3.331,3.2471,3.2168,3.2041,3.1182,3.0889,3.0889,3.0889,3.0889,3.0889,3.0889,3.0889,3.0889,3.0889,3.0889,3.0889,3.0889,3.0889,3.0889,3.0889,3.0889,3.0889,3.0889,3.0889,3.0889,3.0889,3.0889,3.0889,3.0889,2.871,2.7013,2.7013,2.4695,2.3106,2.3106,2.3106,2.3106,2.3106,2.3106,2.3106,2.3106,2.3106,0.0,2.3106,2.3106,2.3106,2.3106,2.3106,2.3106,2.3106,2.2487,2.1859,2.1607,2.1235,2.1109,2.1109,2.1109,2.1109,2.1109,2.1109,2.1109,2.0982,2.0329,1.917,1.7876,1.6462,1.5038,1.3875,1.3095,1.2836,1.2836,3.3418,3.3418,3.3418,3.3418,3.3418,3.3418,3.3418,3.3418,3.3418,3.3418,3.3418,3.3418,3.3418,3.3418,3.3418,3.3418,3.3418,3.3418,3.3418,3.3418,3.3418,3.3418,3.3418,3.3418,3.3418,3.3418,3.3418,3.3418,3.3418,3.3418,3.3418,3.3418,3.3418,3.3418,3.3418,3.3418,3.3418,3.3418,3.3418,3.3418,3.3418,3.3418,3.3418,3.3418,3.3418,3.331,3.2471,3.2168,3.2041,3.1182,3.0889,3.0889,3.0889,3.0889,3.0889,3.0889,3.0889,3.0889,3.0889,3.0889,3.0889,3.0889,3.0889,3.0889,3.0889,3.0889,3.0889,3.0889,3.0889,3.0889,3.0889,3.0889,3.0889,3.0645,2.8582,2.6892,2.6771,0.0,2.3106,2.3106,2.3106,2.3106,2.3106,2.3106,2.3106,2.3106,2.3106,2.3106,2.3106,2.3106,2.3106,2.3106,2.3106,2.3113,2.2988,2.2362,2.2111,2.1985,2.1362,2.1109,2.1109,2.1109,2.1109,2.1109,2.1109,2.1109,2.1109,2.0849,1.9297,1.698,1.6721,1.5038,1.2836,1.2836,1.2836,1.2836,3.3418,3.3418,3.3418,3.3418,3.3418,3.3418,3.3418,3.3418,3.3418,3.3418,3.3418,3.3418,3.3418,3.3418,3.3418,3.3418,3.3418,3.3418,3.3418,3.3418,3.3418,3.3418,3.3418,3.3418,3.3418,3.3418,3.3418,3.3418,3.3418,3.3418,3.3418,3.3418,3.3418,3.3418,3.3418,3.3418,3.3418,3.3418,3.3418,3.3418,3.3418,3.3418,3.3418,3.3418,3.3418,3.331,3.2471,3.2168,3.2041,3.1182,3.0889,3.0889,3.0889,3.0889,3.0889,3.0889,3.0889,3.0889,3.0889,3.0889,3.0889,3.0889,3.0889,3.0889,3.0889,3.0889,3.0889,3.0889,3.0889,3.0889,3.0889,3.0889,3.0518,2.9412,2.7975,2.665,2.5562,0.0,2.3106,2.3106,2.3106,2.3106,2.3106,2.3106,2.3106,2.3106,2.3106,2.3106,2.3106,2.3106,2.3106,2.3106,2.3106,2.2981,2.2738,2.223,2.1985,2.1607,2.1235,2.1109,2.1109,2.1109,2.1109,2.1109,2.1109,2.1109,2.0982,1.9814,1.8396,1.6845,1.5684,1.4263,1.2836,1.2836,1.2836,1.2836,3.3418,3.3418,3.3418,3.3418,3.3418,3.3418,3.3418,3.3418,3.3418,3.3418,3.3418,3.3418,3.3418,3.3418,3.3418,3.3418,3.3418,3.3418,3.3418,3.3418,3.3418,3.3418,3.3418,3.3418,3.3418,3.3418,3.3418,3.3418,3.3418,3.3418,3.3418,3.3418,3.3418,3.3418,3.3418,3.3418,3.3418,3.3418,3.3418,3.3418,3.3418,3.3418,3.3418,3.3418,3.3418,3.331,3.2471,3.2168,3.2041,3.1182,3.0889,3.0889,3.0889,3.0889,3.0889,3.0889,3.0889,3.0889,3.0889,3.0889,3.0889,3.0889,3.0889,3.0889,3.0889,3.0889,3.0889,3.0889,3.0889,3.0889,3.0889,3.0889,3.0645,3.003,2.8938,0.0,2.6286,2.4941,2.3969,2.323,2.3106,2.3106,2.3106,2.3106,2.3106,2.3106,2.3106,2.3106,2.3106,2.3106,2.3106,2.3106,2.3106,2.2988,2.2856,2.2362,2.1985,2.1859,2.1362,2.1109,2.1109,2.1109,2.1109,2.1109,2.1109,2.0716,1.9941,1.9291,1.7748,1.5814,1.5168,1.4002,1.2836,1.2836,1.2836,1.2836,3.3418,3.3418,3.3418,3.3418,3.3418,3.3418,3.3418,3.3418,3.3418,3.3418,3.3418,3.3418,3.3418,3.3418,3.3418,3.3418,3.3418,3.3418,3.3418,3.3418,3.3418,3.3418,3.3418,3.3418,3.3418,3.3418,3.3418,3.3418,3.3418,3.3418,3.3418,3.3418,3.3418,3.3418,3.3418,3.3418,3.3418,3.3418,3.3418,3.3418,3.3418,3.3418,3.3418,3.3418,3.3418,3.331,3.2471,3.2168,3.2041,3.1182,3.0889,3.0889,3.0889,3.0889,3.0889,3.0889,3.0889,3.0889,3.0889,3.0889,3.0889,3.0889,3.0889,3.0889,3.0889,3.0889,3.0889,3.0889,3.0889,3.0889,3.0889,3.0889,3.0772,3.0518,0.0,2.8325,2.6771,2.5684,2.4579,2.323,2.3106,2.3106,2.3106,2.3106,2.3106,2.3106,2.3106,2.3106,2.3106,2.3106,2.3106,2.3106,2.3106,2.3106,2.3106,2.2487,2.2111,2.2111,2.1355,2.1109,2.1109,2.1109,2.1109,2.1109,2.1109,2.0329,1.9036,1.9036,1.7361,1.4907,1.4907,1.4002,1.2836,1.2836,1.2836,1.2836,3.3418,3.3418,3.3418,3.3418,3.3418,3.3418,3.3418,3.3418,3.3418,3.3418,3.3418,3.3418,3.3418,3.3418,3.3418,3.3418,3.3418,3.3418,3.3418,3.3418,3.3418,3.3418,3.3418,3.3418,3.3418,3.3418,3.3418,3.3418,3.3418,3.3418,3.3418,3.3418,3.3418,3.3418,3.3418,3.3418,3.3418,3.3418,3.3418,3.3418,3.3418,3.3418,3.3418,3.3418,3.3418,3.331,3.2471,3.2168,3.2041,3.1182,3.0889,3.0889,3.0889,3.0889,3.0889,3.0889,3.0889,3.0889,3.0889,3.0889,3.0889,3.0889,3.0889,3.0889,3.0889,3.0889,3.0889,3.0889,3.0889,3.0889,3.0889,3.0889,3.0518,2.9285,0.0,0.0,2.5554,2.5194,2.4579,2.323,2.3106,2.3106,2.3106,2.3106,2.3106,2.3106,2.3106,2.3106,2.3106,2.3106,2.3106,2.3106,2.3106,2.3106,2.3106,2.2487,2.2111,2.2111,2.1355,2.1109,2.1109,2.1109,2.1109,2.1109,2.1109,2.0329,1.9036,1.9036,1.7361,1.4907,1.4907,1.4002,1.2836,1.2836,1.2836,1.2836,3.3418,3.3418,3.3418,3.3418,3.3418,3.3418,3.3418,3.3418,3.3418,3.3418,3.3418,3.3418,3.3418,3.3418,3.3418,3.3418,3.3418,3.3418,3.3418,3.3418,3.3418,3.3418,3.3418,3.3418,3.3418,3.3418,3.3418,3.3418,3.3418,3.3418,3.3418,3.3418,3.3418,3.3418,3.3418,3.3418,3.3418,3.3418,3.3418,3.3418,3.3418,3.3418,3.3418,3.3418,3.3418,3.331,3.2471,3.2168,3.2041,3.1182,3.0889,3.0889,3.0889,3.0889,3.0889,3.0889,3.0889,3.0889,3.0889,3.0889,3.0889,3.0889,3.0889,3.0889,3.0889,3.0889,3.0889,3.0889,3.0889,3.0889,3.0889,3.0889,3.0762,3.0265,0.0,2.8316,2.6529,2.5554,2.4579,2.323,2.3106,2.3106,2.3106,2.3106,2.3106,2.3106,2.3106,2.3106,2.3106,2.3106,2.3106,2.3106,2.3106,2.3106,2.3106,2.2487,2.2111,2.2111,2.1355,2.1109,2.1109,2.1109,2.1109,2.1109,2.0202,1.9036,1.7748,1.6845,1.5294,1.3613,1.3613,1.3227,1.2836,1.2836,1.2836,1.2836,3.3418,3.3418,3.3418,3.3418,3.3418,3.3418,3.3418,3.3418,3.3418,3.3418,3.3418,3.3418,3.3418,3.3418,3.3418,3.3418,3.3418,3.3418,3.3418,3.3418,3.3418,3.3418,3.3418,3.3418,3.3418,3.3418,3.3418,3.3418,3.3418,3.3418,3.3418,3.3418,3.3418,3.3418,3.3418,3.3418,3.3418,3.3418,3.3418,3.3418,3.3418,3.3418,3.3418,3.3418,3.3418,3.331,3.2471,3.2168,3.2041,3.1182,3.0889,3.0889,3.0889,3.0889,3.0889,3.0889,3.0889,3.0889,3.0889,3.0889,3.0889,3.0889,3.0889,3.0889,3.0889,3.0889,3.0889,3.0889,3.0889,3.0889,3.0889,3.0889,3.0889,3.0889,2.9785,2.8444,2.7125,2.592,2.4579,2.323,2.3106,2.3106,2.3106,2.3106,2.3106,2.3106,2.3106,2.3106,2.3106,2.3106,2.3106,2.3106,2.3106,2.3106,2.3106,2.2487,2.2111,2.2111,2.1355,2.1109,2.1109,2.1109,2.1109,2.0982,1.9559,1.8267,1.6845,1.5424,1.4132,1.2836,1.2836,1.2836,1.2836,1.2836,1.2836,1.2836,3.3418,3.3418,3.3418,3.3418,3.3418,3.3418,3.3418,3.3418,3.3418,3.3418,3.3418,3.3418,3.3418,3.3418,3.3418,3.3418,3.3418,3.3418,3.3418,3.3418,3.3418,3.3418,3.3418,3.3418,3.3418,3.3418,3.3418,3.3418,3.3418,3.3418,3.3418,3.3418,3.3418,3.3418,3.3418,3.3418,3.3418,3.3418,3.3418,3.3418,3.3418,3.3418,3.3418,3.3418,3.3418,3.331,3.2471,3.2168,3.2041,3.1182,3.0889,3.0889,3.0889,3.0889,3.0889,3.0889,3.0889,3.0889,3.0889,3.0889,3.0889,3.0889,3.0889,3.0889,3.0889,3.0889,3.0889,3.0889,3.0889,3.0889,3.0889,3.0889,3.0889,3.0889,2.9785,2.8435,2.722,2.5904,2.4579,2.323,2.3106,2.3106,2.3106,2.3106,2.3106,2.3106,2.3106,2.3106,2.3106,2.3106,2.3106,2.3106,2.3106,2.3106,2.3106,2.248,2.2111,2.2111,2.1488,2.1109,2.1109,2.1109,2.1109,2.0982,1.9553,1.8262,1.685,1.5424,1.4002,1.2836,1.2836,1.2836,1.2836,1.2836,1.2836,1.2836,3.3418,3.3418,3.3418,3.3418,3.3418,3.3418,3.3418,3.3418,3.3418,3.3418,3.3418,3.3418,3.3418,3.3418,3.3418,3.3418,3.3418,3.3418,3.3418,3.3418,3.3418,3.3418,3.3418,3.3418,3.3418,3.3418,3.3418,3.3418,3.3418,3.3418,3.3418,3.3418,3.3418,3.3418,3.3418,3.3418,3.3418,3.3418,3.3418,3.3418,3.3418,3.3418,3.3418,3.3418,3.3418,3.331,3.2471,3.2168,3.2041,3.1182,3.0889,3.0889,3.0889,3.0889,3.0889,3.0889,3.0889,3.0889,3.0889,3.0889,3.0889,3.0889,3.0889,3.0889,3.0889,3.0889,3.0889,3.0889,3.0889,3.0889,3.0889,3.0889,3.0889,3.0889,2.9066,2.7486,2.7004,2.5056,2.3604,2.3106,2.3106,2.3106,2.3106,2.3106,2.3106,2.3106,2.3106,2.3106,2.3106,2.3106,2.3106,2.3106,2.3106,2.3106,2.3106,2.2606,2.2487,2.2487,2.1985,2.1734,2.1481,2.1481,2.0843,1.9553,1.8139,1.6845,1.5424,1.4006,1.3227,1.2836,1.2836,1.2836,1.2836,1.2836,1.2836,1.2836,3.3418,3.3418,3.3418,3.3418,3.3418,3.3418,3.3418,3.3418,3.3418,3.3418,3.3418,3.3418,3.3418,3.3418,3.3418,3.3418,3.3418,3.3418,3.3418,3.3418,3.3418,3.3418,3.3418,3.3418,3.3418,3.3418,3.3418,3.3418,3.3418,3.3418,3.3418,3.3418,3.3418,3.3418,3.3418,3.3418,3.3418,3.3418,3.3418,3.3418,3.3418,3.3418,3.3418,3.3418,3.3418,3.334,3.2656,3.2314,3.206,3.1367,3.1025,3.0889,3.0889,3.0889,3.0889,3.0889,3.0889,3.0889,3.0889,3.0889,3.0889,3.0889,3.0889,3.0889,3.0889,3.0889,3.0889,3.0889,3.0889,3.0889,3.0889,3.0889,3.0889,3.0889,2.871,2.7013,2.7013,2.4695,2.3106,2.3106,2.3106,2.3106,2.3106,2.3106,2.3106,2.3106,2.3106,2.3106,2.3106,2.3106,2.3106,2.3106,2.3106,2.3106,2.3106,2.2856,2.2738,2.2606,2.2237,2.1985,2.1734,2.1607,2.0703,1.9164,1.7619,1.6203,1.4782,1.3354,1.2836,1.2836,1.2836,1.2836,1.2836,1.2836,1.2836,1.2836,3.3418,3.3418,3.3418,3.3418,3.3418,3.3418,3.3418,3.3418,3.3418,3.3418,3.3418,3.3418,3.3418,3.3418,3.3418,3.3418,3.3418,3.3418,3.3418,3.3418,3.3418,3.3418,3.3418,3.3418,3.3418,3.3418,3.3418,3.3418,3.3418,3.3418,3.3418,3.3418,3.3418,3.3418,3.3418,3.3418,3.3418,3.3418,3.3418,3.3418,3.3418,3.3418,3.3418,3.3418,3.3418,3.3369,3.2939,3.2549,3.2158,3.168,3.124,3.0889,3.0889,3.0889,3.0889,3.0889,3.0889,3.0889,3.0889,3.0889,3.0889,3.0889,3.0889,3.0889,3.0889,3.0889,3.0889,3.0889,3.0889,3.0889,3.0889,3.0889,3.0889,3.0889,2.871,2.7013,2.7013,2.4695,2.3106,2.3106,2.3106,2.3106,2.3106,2.3106,2.3106,2.3106,2.3106,2.3106,2.3106,2.3106,2.3106,2.3106,2.3106,2.3106,2.3106,2.3106,2.2981,2.2606,2.2362,2.2111,2.2111,2.1859,2.0829,1.9279,1.7619,1.6073,1.4651,1.3354,1.2836,1.2836,1.2836,1.2836,1.2836,1.2836,1.2836,1.2836,3.3418,3.3418,3.3418,3.3418,3.3418,3.3418,3.3418,3.3418,3.3418,3.3418,3.3418,3.3418,3.3418,3.3418,3.3418,3.3418,3.3418,3.3418,3.3418,3.3418,3.3418,3.3418,3.3418,3.3418,3.3418,3.3418,3.3418,3.3418,3.3418,3.3418,3.3418,3.3418,3.3418,3.3418,3.3418,3.3418,3.3418,3.3418,3.3418,3.3418,3.3418,3.3418,3.3418,3.3418,3.3418,3.3369,3.2939,3.2734,3.2539,3.1777,3.124,3.0889,3.0889,3.0889,3.0889,3.0889,3.0889,3.0889,3.0889,3.0889,3.0889,3.0889,3.0889,3.0889,3.0889,3.0889,3.0889,3.0889,3.0889,3.0889,3.0889,3.0889,3.0889,3.0889,2.871,2.7013,2.7013,2.4695,2.3106,2.3106,2.3106,2.3106,2.3106,2.3106,2.3106,2.3106,2.3106,2.3106,2.3106,2.3106,2.3106,2.3106,2.3106,2.3106,2.3106,2.3106,2.3106,2.2981,2.2856,2.2731,2.2487,2.2111,2.0563,1.7865,1.7227,1.5559,1.3227,1.2968,1.2836,1.2836,1.2836,1.2836,1.2836,1.2836,1.2836,1.2836,3.3418,3.3418,3.3418,3.3418,3.3418,3.3418,3.3418,3.3418,3.3418,3.3418,3.3418,3.3418,3.3418,3.3418,3.3418,3.3418,3.3418,3.3418,3.3418,3.3418,3.3418,3.3418,3.3418,3.3418,3.3418,3.3418,3.3418,3.3418,3.3418,3.3418,3.3418,3.3418,3.3418,3.3418,3.3418,3.3418,3.3418,3.3418,3.3418,3.3418,3.3418,3.3418,3.3418,3.3418,3.3418,3.3389,3.3174,3.2969,3.2666,3.1807,3.1367,3.1152,3.0957,3.0889,3.0889,3.0889,3.0889,3.0889,3.0889,3.0889,3.0889,3.0889,3.0889,3.0889,3.0889,3.0889,3.0889,3.0889,3.0889,3.0889,3.0889,3.0889,3.0645,3.003,2.8343,2.6771,2.6164,2.4332,2.3106,2.3106,2.3106,2.3106,2.3106,2.3106,2.3106,2.3106,2.3106,2.3106,2.3106,2.3106,2.3106,2.3106,2.3106,2.3106,2.3106,2.3106,2.3106,2.3106,2.3106,2.2988,2.2856,2.1713,1.9916,1.7731,1.6452,1.4777,1.2836,1.2836,1.2836,1.2836,1.2836,1.2836,1.2836,1.2836,1.2836,1.2836,3.3418,3.3544,3.366,3.3418,3.3418,3.3418,3.366,3.3786,3.3786,3.4027,3.4027,3.4027,3.4027,3.4027,3.4037,3.3786,3.3786,3.366,3.3418,3.3418,3.3418,3.3418,3.3418,3.3418,3.3418,3.3418,3.3418,3.3418,3.3418,3.3418,3.3418,3.3418,3.3418,3.3418,3.3418,3.3418,3.3418,3.3418,3.3418,3.3418,3.3418,3.3418,3.3418,3.3418,3.3418,3.3418,3.3418,3.3154,3.2676,3.1894,3.1582,3.1445,3.1025,3.0889,3.0889,3.0889,3.0889,3.0889,3.0889,3.0889,3.0889,3.0889,3.0889,3.0889,3.0889,3.0889,3.0889,3.0889,3.0889,3.0889,3.0889,3.0889,3.0518,2.9166,2.7847,2.6529,2.5317,2.3969,2.3106,2.3106,2.3106,2.3106,2.3106,2.3106,2.3106,2.3106,2.3106,2.3106,2.3106,2.3106,2.3106,2.3106,2.3106,2.3106,2.3106,2.3106,2.3106,2.3106,2.3106,2.3106,2.2981,2.1062,1.9267,1.7854,1.5804,1.4132,1.2836,1.2836,1.2836,1.2836,1.2836,1.2836,1.2836,1.2836,1.2836,1.2836,3.367,3.4278,3.4767,3.3544,3.3418,3.3786,3.5015,3.5139,3.5489,3.6571,3.6814,3.6814,3.6814,3.6814,3.6338,3.5253,3.5139,3.4642,3.3418,3.3418,3.3418,3.3418,3.3418,3.3418,3.3418,3.3418,3.3418,3.3418,3.3418,3.3418,3.3418,3.3418,3.3418,3.3418,3.3418,3.3418,3.3418,3.3418,3.3418,3.3418,3.3418,3.3418,3.3418,3.3418,3.3418,3.3418,3.3418,3.3154,3.2725,3.2236,3.1836,3.1445,3.1025,3.0889,3.0889,3.0889,3.0889,3.0889,3.0889,3.0889,3.0889,3.0889,3.0889,3.0889,3.0889,3.0889,3.0889,3.0889,3.0889,3.0889,3.0889,3.0889,3.0518,2.9166,2.7847,2.6529,2.5317,2.3969,2.3106,2.3106,2.3106,2.3106,2.3106,2.3106,2.3106,2.3106,2.3106,2.3106,2.3106,2.3106,2.3106,2.3106,2.3106,2.3106,2.3106,2.3106,2.3106,2.3106,2.3106,2.3106,2.2981,2.0929,1.9267,1.7854,1.5804,1.4132,1.2836,1.2836,1.2836,1.2836,1.2836,1.2836,1.2836,1.2836,1.2836,1.2836,3.5602,3.6093,3.6093,3.4767,3.5129,3.5489,3.5376,3.6215,3.6935,3.7298,3.7407,3.7528,3.7298,3.7298,3.6824,3.55,3.5376,3.4891,3.3544,3.3418,3.3418,3.3418,3.3418,3.3418,3.3418,3.3418,3.3418,3.3418,3.3418,3.3418,3.3418,3.3418,3.3418,3.3418,3.3418,3.3418,3.3418,3.3418,3.3418,3.3418,3.3418,3.3418,3.3418,3.3418,3.3418,3.3418,3.3418,3.3301,3.3076,3.2656,3.2236,3.1807,3.1377,3.1074,3.0889,3.0889,3.0889,3.0889,3.0889,3.0889,3.0889,3.0889,3.0889,3.0889,3.0889,3.0889,3.0889,3.0889,3.0889,3.0889,3.0889,3.0889,3.0284,2.8215,2.7375,2.6286,2.4209,2.3479,2.3106,2.3106,2.3106,2.3106,2.3106,2.3106,2.3106,2.3106,2.3106,2.3106,2.3106,2.3106,2.3106,2.3106,2.3106,2.3106,2.3106,2.3106,2.3106,2.3106,2.3106,2.3106,2.2981,2.0556,1.9152,1.8378,1.5949,1.4268,1.3354,1.3354,1.3227,1.2836,1.2836,1.2836,1.2836,1.2836,1.2836,1.2836]}]]